<?xml version='1.0' encoding='UTF-8'?>
<gpx version="1.1" creator="https://www.komoot.de" xmlns="http://www.topografix.com/GPX/1/1" xmlns:xsi="http://www.w3.org/2001/XMLSchema-instance" xsi:schemaLocation="http://www.topografix.com/GPX/1/1 http://www.topografix.com/GPX/1/1/gpx.xsd">
  <metadata>
    <name>Base to tower</name>
    <author>
      <link href="https://www.komoot.de">
        <text>komoot</text>
        <type>text/html</type>
      </link>
    </author>
  </metadata>
  <wpt lat="52.003714" lon="5.461483">
    <name>Wielercafé De Proloog</name>
    <sym>Restaurant</sym>
  </wpt>
  <wpt lat="52.062779" lon="5.619755">
    <name>Fransesteeg Onverhard Pad</name>
    <sym>Flag, Blue</sym>
  </wpt>
  <wpt lat="52.173560" lon="5.820064">
    <name>Radio Kootwijk Gebouw A</name>
    <sym>Flag, Blue</sym>
  </wpt>
  <wpt lat="52.233764" lon="5.831214">
    <name>Strade Bianche Hofweg (Kroondomein)</name>
    <sym>Flag, Blue</sym>
  </wpt>
  <wpt lat="52.078500" lon="5.581419">
    <name>Zwetselaarsepad</name>
    <sym>Flag, Blue</sym>
  </wpt>
  <trk>
    <name>Base to tower</name>
    <trkseg>
      <trkpt lat="52.003710" lon="5.461478">
        <ele>20.661134</ele>
        <time>2026-03-05T19:07:25.614Z</time>
      </trkpt>
      <trkpt lat="52.003568" lon="5.461798">
        <ele>20.661134</ele>
        <time>2026-03-05T19:07:42.511Z</time>
      </trkpt>
      <trkpt lat="52.003096" lon="5.461639">
        <ele>20.661134</ele>
        <time>2026-03-05T19:07:56.477Z</time>
      </trkpt>
      <trkpt lat="52.003089" lon="5.461667">
        <ele>20.661134</ele>
        <time>2026-03-05T19:07:56.775Z</time>
      </trkpt>
      <trkpt lat="52.002963" lon="5.462136">
        <ele>20.617517</ele>
        <time>2026-03-05T19:08:01.624Z</time>
      </trkpt>
      <trkpt lat="52.002873" lon="5.462049">
        <ele>20.588821</ele>
        <time>2026-03-05T19:08:03.203Z</time>
      </trkpt>
      <trkpt lat="52.002471" lon="5.462995">
        <ele>20.394926</ele>
        <time>2026-03-05T19:08:14.343Z</time>
      </trkpt>
      <trkpt lat="52.002311" lon="5.463440">
        <ele>20.307998</ele>
        <time>2026-03-05T19:08:19.138Z</time>
      </trkpt>
      <trkpt lat="52.002288" lon="5.463497">
        <ele>20.296502</ele>
        <time>2026-03-05T19:08:19.751Z</time>
      </trkpt>
      <trkpt lat="52.002102" lon="5.463966">
        <ele>20.202396</ele>
        <time>2026-03-05T19:08:24.916Z</time>
      </trkpt>
      <trkpt lat="52.002031" lon="5.464146">
        <ele>20.166531</ele>
        <time>2026-03-05T19:08:26.930Z</time>
      </trkpt>
      <trkpt lat="52.001696" lon="5.464990">
        <ele>20.013869</ele>
        <time>2026-03-05T19:08:36.600Z</time>
      </trkpt>
      <trkpt lat="52.002362" lon="5.465611">
        <ele>19.824240</ele>
        <time>2026-03-05T19:08:48.453Z</time>
      </trkpt>
      <trkpt lat="52.002339" lon="5.465674">
        <ele>19.813105</ele>
        <time>2026-03-05T19:08:49.159Z</time>
      </trkpt>
      <trkpt lat="52.001965" lon="5.466676">
        <ele>19.773697</ele>
        <time>2026-03-05T19:09:00.283Z</time>
      </trkpt>
      <trkpt lat="52.001441" lon="5.468521">
        <ele>19.945252</ele>
        <time>2026-03-05T19:09:20.750Z</time>
      </trkpt>
      <trkpt lat="52.001630" lon="5.468745">
        <ele>20.015966</ele>
        <time>2026-03-05T19:09:24.983Z</time>
      </trkpt>
      <trkpt lat="52.001656" lon="5.468779">
        <ele>20.047740</ele>
        <time>2026-03-05T19:09:25.596Z</time>
      </trkpt>
      <trkpt lat="52.001866" lon="5.468995">
        <ele>20.284358</ele>
        <time>2026-03-05T19:09:31.768Z</time>
      </trkpt>
      <trkpt lat="52.002713" lon="5.469692">
        <ele>21.188221</ele>
        <time>2026-03-05T19:09:56.439Z</time>
      </trkpt>
      <trkpt lat="52.002868" lon="5.469859">
        <ele>21.365279</ele>
        <time>2026-03-05T19:10:01.191Z</time>
      </trkpt>
      <trkpt lat="52.002777" lon="5.470011">
        <ele>21.489534</ele>
        <time>2026-03-05T19:10:04.519Z</time>
      </trkpt>
      <trkpt lat="52.002262" lon="5.471023">
        <ele>21.714233</ele>
        <time>2026-03-05T19:10:24.915Z</time>
      </trkpt>
      <trkpt lat="52.002110" lon="5.471583">
        <ele>21.733653</ele>
        <time>2026-03-05T19:10:33.606Z</time>
      </trkpt>
      <trkpt lat="52.002063" lon="5.472057">
        <ele>21.748888</ele>
        <time>2026-03-05T19:10:40.002Z</time>
      </trkpt>
      <trkpt lat="52.001964" lon="5.472389">
        <ele>21.760593</ele>
        <time>2026-03-05T19:10:44.723Z</time>
      </trkpt>
      <trkpt lat="52.001953" lon="5.472439">
        <ele>21.762278</ele>
        <time>2026-03-05T19:10:45.391Z</time>
      </trkpt>
      <trkpt lat="52.001881" lon="5.472785">
        <ele>21.773868</ele>
        <time>2026-03-05T19:10:49.919Z</time>
      </trkpt>
      <trkpt lat="52.001835" lon="5.472876">
        <ele>21.724025</ele>
        <time>2026-03-05T19:10:51.356Z</time>
      </trkpt>
      <trkpt lat="52.001759" lon="5.472947">
        <ele>21.597564</ele>
        <time>2026-03-05T19:10:53.067Z</time>
      </trkpt>
      <trkpt lat="52.001591" lon="5.472963">
        <ele>21.354822</ele>
        <time>2026-03-05T19:10:56.279Z</time>
      </trkpt>
      <trkpt lat="52.000847" lon="5.474559">
        <ele>19.577090</ele>
        <time>2026-03-05T19:11:19.168Z</time>
      </trkpt>
      <trkpt lat="52.000705" lon="5.474798">
        <ele>19.282137</ele>
        <time>2026-03-05T19:11:23.098Z</time>
      </trkpt>
      <trkpt lat="52.000608" lon="5.474842">
        <ele>19.156089</ele>
        <time>2026-03-05T19:11:25.033Z</time>
      </trkpt>
      <trkpt lat="52.000333" lon="5.474950">
        <ele>18.924273</ele>
        <time>2026-03-05T19:11:30.507Z</time>
      </trkpt>
      <trkpt lat="52.000265" lon="5.475153">
        <ele>18.807696</ele>
        <time>2026-03-05T19:11:31.858Z</time>
      </trkpt>
      <trkpt lat="52.000137" lon="5.475385">
        <ele>18.650548</ele>
        <time>2026-03-05T19:11:33.689Z</time>
      </trkpt>
      <trkpt lat="51.999706" lon="5.476165">
        <ele>18.121846</ele>
        <time>2026-03-05T19:11:40.104Z</time>
      </trkpt>
      <trkpt lat="51.999353" lon="5.476694">
        <ele>17.728315</ele>
        <time>2026-03-05T19:11:45.474Z</time>
      </trkpt>
      <trkpt lat="51.999141" lon="5.477049">
        <ele>17.803147</ele>
        <time>2026-03-05T19:11:52.284Z</time>
      </trkpt>
      <trkpt lat="51.999085" lon="5.477243">
        <ele>17.848266</ele>
        <time>2026-03-05T19:11:55.265Z</time>
      </trkpt>
      <trkpt lat="51.999061" lon="5.477464">
        <ele>17.895521</ele>
        <time>2026-03-05T19:11:58.405Z</time>
      </trkpt>
      <trkpt lat="51.999113" lon="5.477856">
        <ele>17.979960</ele>
        <time>2026-03-05T19:12:04.000Z</time>
      </trkpt>
      <trkpt lat="51.999242" lon="5.478460">
        <ele>18.114581</ele>
        <time>2026-03-05T19:12:13.283Z</time>
      </trkpt>
      <trkpt lat="51.999248" lon="5.478482">
        <ele>18.119648</ele>
        <time>2026-03-05T19:12:13.648Z</time>
      </trkpt>
      <trkpt lat="51.999496" lon="5.478857">
        <ele>18.235536</ele>
        <time>2026-03-05T19:12:18.403Z</time>
      </trkpt>
      <trkpt lat="51.999593" lon="5.479052">
        <ele>18.288325</ele>
        <time>2026-03-05T19:12:20.564Z</time>
      </trkpt>
      <trkpt lat="51.999628" lon="5.479197">
        <ele>18.321120</ele>
        <time>2026-03-05T19:12:21.876Z</time>
      </trkpt>
      <trkpt lat="51.999640" lon="5.479553">
        <ele>18.539769</ele>
        <time>2026-03-05T19:12:24.897Z</time>
      </trkpt>
      <trkpt lat="51.999522" lon="5.481816">
        <ele>19.953611</ele>
        <time>2026-03-05T19:12:46.018Z</time>
      </trkpt>
      <trkpt lat="51.999490" lon="5.482570">
        <ele>20.550300</ele>
        <time>2026-03-05T19:12:53.565Z</time>
      </trkpt>
      <trkpt lat="51.999655" lon="5.484730">
        <ele>22.510301</ele>
        <time>2026-03-05T19:13:15.680Z</time>
      </trkpt>
      <trkpt lat="51.999963" lon="5.487508">
        <ele>25.547485</ele>
        <time>2026-03-05T19:13:46.305Z</time>
      </trkpt>
      <trkpt lat="52.000044" lon="5.487776">
        <ele>25.874744</ele>
        <time>2026-03-05T19:13:51.494Z</time>
      </trkpt>
      <trkpt lat="52.000245" lon="5.488145">
        <ele>26.289822</ele>
        <time>2026-03-05T19:14:00.168Z</time>
      </trkpt>
      <trkpt lat="52.000462" lon="5.488419">
        <ele>26.640212</ele>
        <time>2026-03-05T19:14:07.872Z</time>
      </trkpt>
      <trkpt lat="52.000610" lon="5.488575">
        <ele>26.865131</ele>
        <time>2026-03-05T19:14:10.832Z</time>
      </trkpt>
      <trkpt lat="52.001008" lon="5.489389">
        <ele>27.680960</ele>
        <time>2026-03-05T19:14:20.737Z</time>
      </trkpt>
      <trkpt lat="52.001809" lon="5.491218">
        <ele>28.880889</ele>
        <time>2026-03-05T19:14:40.060Z</time>
      </trkpt>
      <trkpt lat="52.002596" lon="5.492990">
        <ele>29.447858</ele>
        <time>2026-03-05T19:14:58.811Z</time>
      </trkpt>
      <trkpt lat="52.002637" lon="5.493094">
        <ele>29.445165</ele>
        <time>2026-03-05T19:15:00.160Z</time>
      </trkpt>
      <trkpt lat="52.002786" lon="5.493422">
        <ele>29.436278</ele>
        <time>2026-03-05T19:15:04.514Z</time>
      </trkpt>
      <trkpt lat="52.002812" lon="5.493479">
        <ele>29.434731</ele>
        <time>2026-03-05T19:15:05.259Z</time>
      </trkpt>
      <trkpt lat="52.004188" lon="5.496487">
        <ele>28.095173</ele>
        <time>2026-03-05T19:15:39.305Z</time>
      </trkpt>
      <trkpt lat="52.005016" lon="5.498907">
        <ele>24.771729</ele>
        <time>2026-03-05T19:16:00.639Z</time>
      </trkpt>
      <trkpt lat="52.005735" lon="5.501119">
        <ele>20.913658</ele>
        <time>2026-03-05T19:16:18.931Z</time>
      </trkpt>
      <trkpt lat="52.006136" lon="5.502354">
        <ele>18.723993</ele>
        <time>2026-03-05T19:16:29.350Z</time>
      </trkpt>
      <trkpt lat="52.006256" lon="5.502323">
        <ele>18.536863</ele>
        <time>2026-03-05T19:16:30.394Z</time>
      </trkpt>
      <trkpt lat="52.010993" lon="5.501209">
        <ele>11.500989</ele>
        <time>2026-03-05T19:17:14.754Z</time>
      </trkpt>
      <trkpt lat="52.011381" lon="5.501145">
        <ele>10.996175</ele>
        <time>2026-03-05T19:17:18.584Z</time>
      </trkpt>
      <trkpt lat="52.011703" lon="5.501108">
        <ele>10.750338</ele>
        <time>2026-03-05T19:17:21.733Z</time>
      </trkpt>
      <trkpt lat="52.012106" lon="5.501917">
        <ele>10.315003</ele>
        <time>2026-03-05T19:17:28.176Z</time>
      </trkpt>
      <trkpt lat="52.012279" lon="5.502230">
        <ele>10.139040</ele>
        <time>2026-03-05T19:17:44.087Z</time>
      </trkpt>
      <trkpt lat="52.012405" lon="5.502372">
        <ele>10.034828</ele>
        <time>2026-03-05T19:17:53.447Z</time>
      </trkpt>
      <trkpt lat="52.012507" lon="5.502426">
        <ele>9.961923</ele>
        <time>2026-03-05T19:17:59.974Z</time>
      </trkpt>
      <trkpt lat="52.014428" lon="5.502721">
        <ele>9.538975</ele>
        <time>2026-03-05T19:20:01.831Z</time>
      </trkpt>
      <trkpt lat="52.014626" lon="5.503445">
        <ele>9.510007</ele>
        <time>2026-03-05T19:20:12.819Z</time>
      </trkpt>
      <trkpt lat="52.015277" lon="5.505814">
        <ele>9.489542</ele>
        <time>2026-03-05T19:20:48.142Z</time>
      </trkpt>
      <trkpt lat="52.015380" lon="5.506317">
        <ele>9.473840</ele>
        <time>2026-03-05T19:20:55.408Z</time>
      </trkpt>
      <trkpt lat="52.015611" lon="5.507834">
        <ele>9.427552</ele>
        <time>2026-03-05T19:21:16.740Z</time>
      </trkpt>
      <trkpt lat="52.015806" lon="5.508915">
        <ele>9.410769</ele>
        <time>2026-03-05T19:21:32.167Z</time>
      </trkpt>
      <trkpt lat="52.015912" lon="5.509220">
        <ele>9.415253</ele>
        <time>2026-03-05T19:21:36.910Z</time>
      </trkpt>
      <trkpt lat="52.016075" lon="5.509407">
        <ele>9.419404</ele>
        <time>2026-03-05T19:21:41.302Z</time>
      </trkpt>
      <trkpt lat="52.016588" lon="5.509803">
        <ele>9.431219</ele>
        <time>2026-03-05T19:21:53.983Z</time>
      </trkpt>
      <trkpt lat="52.016613" lon="5.509820">
        <ele>9.431783</ele>
        <time>2026-03-05T19:21:54.598Z</time>
      </trkpt>
      <trkpt lat="52.016625" lon="5.509829">
        <ele>9.432058</ele>
        <time>2026-03-05T19:21:54.879Z</time>
      </trkpt>
      <trkpt lat="52.016863" lon="5.510011">
        <ele>9.437530</ele>
        <time>2026-03-05T19:22:00.807Z</time>
      </trkpt>
      <trkpt lat="52.017572" lon="5.510572">
        <ele>9.405674</ele>
        <time>2026-03-05T19:22:18.574Z</time>
      </trkpt>
      <trkpt lat="52.017964" lon="5.510994">
        <ele>9.371556</ele>
        <time>2026-03-05T19:22:29.100Z</time>
      </trkpt>
      <trkpt lat="52.019054" lon="5.512327">
        <ele>9.197099</ele>
        <time>2026-03-05T19:22:58.295Z</time>
      </trkpt>
      <trkpt lat="52.019063" lon="5.512533">
        <ele>9.170523</ele>
        <time>2026-03-05T19:23:01.007Z</time>
      </trkpt>
      <trkpt lat="52.019200" lon="5.512799">
        <ele>9.125887</ele>
        <time>2026-03-05T19:23:05.578Z</time>
      </trkpt>
      <trkpt lat="52.019360" lon="5.512983">
        <ele>9.084898</ele>
        <time>2026-03-05T19:23:09.780Z</time>
      </trkpt>
      <trkpt lat="52.020058" lon="5.513435">
        <ele>8.935568</ele>
        <time>2026-03-05T19:23:26.053Z</time>
      </trkpt>
      <trkpt lat="52.022048" lon="5.514949">
        <ele>8.852482</ele>
        <time>2026-03-05T19:24:15.091Z</time>
      </trkpt>
      <trkpt lat="52.022900" lon="5.515636">
        <ele>8.763196</ele>
        <time>2026-03-05T19:24:35.999Z</time>
      </trkpt>
      <trkpt lat="52.023422" lon="5.516059">
        <ele>8.697694</ele>
        <time>2026-03-05T19:24:48.640Z</time>
      </trkpt>
      <trkpt lat="52.024954" lon="5.517245">
        <ele>8.441964</ele>
        <time>2026-03-05T19:25:25.426Z</time>
      </trkpt>
      <trkpt lat="52.025297" lon="5.517511">
        <ele>8.418247</ele>
        <time>2026-03-05T19:25:33.864Z</time>
      </trkpt>
      <trkpt lat="52.025755" lon="5.517856">
        <ele>8.386745</ele>
        <time>2026-03-05T19:25:45.085Z</time>
      </trkpt>
      <trkpt lat="52.025933" lon="5.518000">
        <ele>8.374337</ele>
        <time>2026-03-05T19:25:49.505Z</time>
      </trkpt>
      <trkpt lat="52.026071" lon="5.518111">
        <ele>8.364728</ele>
        <time>2026-03-05T19:25:51.996Z</time>
      </trkpt>
      <trkpt lat="52.026178" lon="5.518197">
        <ele>8.357279</ele>
        <time>2026-03-05T19:25:53.904Z</time>
      </trkpt>
      <trkpt lat="52.027404" lon="5.519148">
        <ele>8.210322</ele>
        <time>2026-03-05T19:26:09.300Z</time>
      </trkpt>
      <trkpt lat="52.030615" lon="5.521639">
        <ele>7.979585</ele>
        <time>2026-03-05T19:26:50.392Z</time>
      </trkpt>
      <trkpt lat="52.031078" lon="5.522010">
        <ele>8.018895</ele>
        <time>2026-03-05T19:26:57.043Z</time>
      </trkpt>
      <trkpt lat="52.031875" lon="5.522564">
        <ele>7.949112</ele>
        <time>2026-03-05T19:27:07.988Z</time>
      </trkpt>
      <trkpt lat="52.031931" lon="5.522604">
        <ele>7.938294</ele>
        <time>2026-03-05T19:27:08.732Z</time>
      </trkpt>
      <trkpt lat="52.034704" lon="5.524627">
        <ele>6.993010</ele>
        <time>2026-03-05T19:27:41.629Z</time>
      </trkpt>
      <trkpt lat="52.035568" lon="5.525264">
        <ele>6.583302</ele>
        <time>2026-03-05T19:27:51.878Z</time>
      </trkpt>
      <trkpt lat="52.036105" lon="5.525667">
        <ele>6.327874</ele>
        <time>2026-03-05T19:27:58.239Z</time>
      </trkpt>
      <trkpt lat="52.038245" lon="5.527340">
        <ele>5.668302</ele>
        <time>2026-03-05T19:28:24.039Z</time>
      </trkpt>
      <trkpt lat="52.038664" lon="5.527659">
        <ele>5.754631</ele>
        <time>2026-03-05T19:28:29.923Z</time>
      </trkpt>
      <trkpt lat="52.039434" lon="5.528215">
        <ele>5.911838</ele>
        <time>2026-03-05T19:28:40.871Z</time>
      </trkpt>
      <trkpt lat="52.039915" lon="5.528437">
        <ele>5.996602</ele>
        <time>2026-03-05T19:28:47.375Z</time>
      </trkpt>
      <trkpt lat="52.040153" lon="5.528486">
        <ele>6.035744</ele>
        <time>2026-03-05T19:28:50.553Z</time>
      </trkpt>
      <trkpt lat="52.040263" lon="5.528569">
        <ele>6.055530</ele>
        <time>2026-03-05T19:28:52.146Z</time>
      </trkpt>
      <trkpt lat="52.040401" lon="5.528719">
        <ele>6.082615</ele>
        <time>2026-03-05T19:28:54.314Z</time>
      </trkpt>
      <trkpt lat="52.040463" lon="5.528884">
        <ele>6.102020</ele>
        <time>2026-03-05T19:28:55.793Z</time>
      </trkpt>
      <trkpt lat="52.040474" lon="5.528942">
        <ele>6.108112</ele>
        <time>2026-03-05T19:28:56.266Z</time>
      </trkpt>
      <trkpt lat="52.040655" lon="5.530239">
        <ele>6.232866</ele>
        <time>2026-03-05T19:29:05.814Z</time>
      </trkpt>
      <trkpt lat="52.040675" lon="5.530383">
        <ele>6.235866</ele>
        <time>2026-03-05T19:29:06.874Z</time>
      </trkpt>
      <trkpt lat="52.040775" lon="5.530826">
        <ele>6.245454</ele>
        <time>2026-03-05T19:29:10.296Z</time>
      </trkpt>
      <trkpt lat="52.040959" lon="5.531373">
        <ele>6.258122</ele>
        <time>2026-03-05T19:29:14.674Z</time>
      </trkpt>
      <trkpt lat="52.041156" lon="5.531910">
        <ele>6.270827</ele>
        <time>2026-03-05T19:29:18.936Z</time>
      </trkpt>
      <trkpt lat="52.041372" lon="5.532495">
        <ele>6.284691</ele>
        <time>2026-03-05T19:29:23.682Z</time>
      </trkpt>
      <trkpt lat="52.042138" lon="5.534562">
        <ele>7.225622</ele>
        <time>2026-03-05T19:29:45.114Z</time>
      </trkpt>
      <trkpt lat="52.042221" lon="5.534706">
        <ele>7.311555</ele>
        <time>2026-03-05T19:29:46.931Z</time>
      </trkpt>
      <trkpt lat="52.042272" lon="5.534679">
        <ele>7.349526</ele>
        <time>2026-03-05T19:29:47.750Z</time>
      </trkpt>
      <trkpt lat="52.042427" lon="5.534788">
        <ele>7.469082</ele>
        <time>2026-03-05T19:29:50.186Z</time>
      </trkpt>
      <trkpt lat="52.042844" lon="5.534851">
        <ele>7.608250</ele>
        <time>2026-03-05T19:29:56.001Z</time>
      </trkpt>
      <trkpt lat="52.043166" lon="5.534882">
        <ele>7.658904</ele>
        <time>2026-03-05T19:30:01.874Z</time>
      </trkpt>
      <trkpt lat="52.043305" lon="5.534901">
        <ele>7.680808</ele>
        <time>2026-03-05T19:30:03.804Z</time>
      </trkpt>
      <trkpt lat="52.043409" lon="5.535000">
        <ele>7.699733</ele>
        <time>2026-03-05T19:30:05.345Z</time>
      </trkpt>
      <trkpt lat="52.043494" lon="5.535154">
        <ele>7.719719</ele>
        <time>2026-03-05T19:30:06.885Z</time>
      </trkpt>
      <trkpt lat="52.043555" lon="5.535406">
        <ele>7.745875</ele>
        <time>2026-03-05T19:30:08.789Z</time>
      </trkpt>
      <trkpt lat="52.043557" lon="5.535609">
        <ele>7.765485</ele>
        <time>2026-03-05T19:30:10.193Z</time>
      </trkpt>
      <trkpt lat="52.043513" lon="5.535608">
        <ele>7.772395</ele>
        <time>2026-03-05T19:30:10.871Z</time>
      </trkpt>
      <trkpt lat="52.043486" lon="5.536506">
        <ele>7.821261</ele>
        <time>2026-03-05T19:30:16.766Z</time>
      </trkpt>
      <trkpt lat="52.043478" lon="5.537013">
        <ele>7.731195</ele>
        <time>2026-03-05T19:30:20.216Z</time>
      </trkpt>
      <trkpt lat="52.043527" lon="5.537250">
        <ele>7.686793</ele>
        <time>2026-03-05T19:30:21.966Z</time>
      </trkpt>
      <trkpt lat="52.043643" lon="5.537475">
        <ele>7.634655</ele>
        <time>2026-03-05T19:30:24.023Z</time>
      </trkpt>
      <trkpt lat="52.043822" lon="5.537648">
        <ele>7.574530</ele>
        <time>2026-03-05T19:30:26.365Z</time>
      </trkpt>
      <trkpt lat="52.044840" lon="5.538525">
        <ele>7.280555</ele>
        <time>2026-03-05T19:30:39.088Z</time>
      </trkpt>
      <trkpt lat="52.047417" lon="5.540699">
        <ele>7.017169</ele>
        <time>2026-03-05T19:31:12.473Z</time>
      </trkpt>
      <trkpt lat="52.047518" lon="5.540675">
        <ele>7.015178</ele>
        <time>2026-03-05T19:31:13.826Z</time>
      </trkpt>
      <trkpt lat="52.047576" lon="5.540593">
        <ele>7.013679</ele>
        <time>2026-03-05T19:31:14.834Z</time>
      </trkpt>
      <trkpt lat="52.047984" lon="5.539481">
        <ele>6.946169</ele>
        <time>2026-03-05T19:31:24.609Z</time>
      </trkpt>
      <trkpt lat="52.048057" lon="5.539281">
        <ele>6.930435</ele>
        <time>2026-03-05T19:31:26.293Z</time>
      </trkpt>
      <trkpt lat="52.048661" lon="5.539992">
        <ele>6.848410</ele>
        <time>2026-03-05T19:32:13.270Z</time>
      </trkpt>
      <trkpt lat="52.048997" lon="5.540483">
        <ele>6.807608</ele>
        <time>2026-03-05T19:32:41.413Z</time>
      </trkpt>
      <trkpt lat="52.049627" lon="5.541439">
        <ele>6.778773</ele>
        <time>2026-03-05T19:33:36.138Z</time>
      </trkpt>
      <trkpt lat="52.050232" lon="5.542370">
        <ele>6.750284</ele>
        <time>2026-03-05T19:34:29.458Z</time>
      </trkpt>
      <trkpt lat="52.050259" lon="5.542450">
        <ele>6.745568</ele>
        <time>2026-03-05T19:34:30.681Z</time>
      </trkpt>
      <trkpt lat="52.050902" lon="5.543490">
        <ele>6.669351</ele>
        <time>2026-03-05T19:34:50.424Z</time>
      </trkpt>
      <trkpt lat="52.051346" lon="5.544920">
        <ele>6.608127</ele>
        <time>2026-03-05T19:35:11.881Z</time>
      </trkpt>
      <trkpt lat="52.051499" lon="5.545123">
        <ele>6.617866</ele>
        <time>2026-03-05T19:35:16.250Z</time>
      </trkpt>
      <trkpt lat="52.051533" lon="5.545306">
        <ele>6.623664</ele>
        <time>2026-03-05T19:35:18.856Z</time>
      </trkpt>
      <trkpt lat="52.051493" lon="5.545494">
        <ele>6.629698</ele>
        <time>2026-03-05T19:35:21.576Z</time>
      </trkpt>
      <trkpt lat="52.050485" lon="5.548175">
        <ele>6.947707</ele>
        <time>2026-03-05T19:36:05.234Z</time>
      </trkpt>
      <trkpt lat="52.049903" lon="5.549894">
        <ele>7.374190</ele>
        <time>2026-03-05T19:36:34.149Z</time>
      </trkpt>
      <trkpt lat="52.049875" lon="5.550574">
        <ele>7.522985</ele>
        <time>2026-03-05T19:36:44.210Z</time>
      </trkpt>
      <trkpt lat="52.049809" lon="5.552209">
        <ele>7.880720</ele>
        <time>2026-03-05T19:37:49.255Z</time>
      </trkpt>
      <trkpt lat="52.049802" lon="5.552297">
        <ele>7.900093</ele>
        <time>2026-03-05T19:37:52.744Z</time>
      </trkpt>
      <trkpt lat="52.049720" lon="5.552486">
        <ele>7.950592</ele>
        <time>2026-03-05T19:38:01.820Z</time>
      </trkpt>
      <trkpt lat="52.049582" lon="5.552630">
        <ele>7.988771</ele>
        <time>2026-03-05T19:38:12.316Z</time>
      </trkpt>
      <trkpt lat="52.049546" lon="5.552785">
        <ele>8.009229</ele>
        <time>2026-03-05T19:38:18.803Z</time>
      </trkpt>
      <trkpt lat="52.049396" lon="5.554446">
        <ele>8.216515</ele>
        <time>2026-03-05T19:39:24.743Z</time>
      </trkpt>
      <trkpt lat="52.049256" lon="5.555550">
        <ele>8.317795</ele>
        <time>2026-03-05T19:40:09.657Z</time>
      </trkpt>
      <trkpt lat="52.049088" lon="5.556575">
        <ele>8.293068</ele>
        <time>2026-03-05T19:40:51.666Z</time>
      </trkpt>
      <trkpt lat="52.049051" lon="5.556789">
        <ele>8.287886</ele>
        <time>2026-03-05T19:40:53.912Z</time>
      </trkpt>
      <trkpt lat="52.048907" lon="5.557648">
        <ele>8.267132</ele>
        <time>2026-03-05T19:41:02.508Z</time>
      </trkpt>
      <trkpt lat="52.048881" lon="5.557973">
        <ele>8.259492</ele>
        <time>2026-03-05T19:41:05.522Z</time>
      </trkpt>
      <trkpt lat="52.048878" lon="5.558038">
        <ele>8.257972</ele>
        <time>2026-03-05T19:41:05.948Z</time>
      </trkpt>
      <trkpt lat="52.048877" lon="5.558052">
        <ele>8.257644</ele>
        <time>2026-03-05T19:41:06.042Z</time>
      </trkpt>
      <trkpt lat="52.048868" lon="5.558178">
        <ele>8.249557</ele>
        <time>2026-03-05T19:41:06.850Z</time>
      </trkpt>
      <trkpt lat="52.048852" lon="5.558567">
        <ele>8.191451</ele>
        <time>2026-03-05T19:41:09.287Z</time>
      </trkpt>
      <trkpt lat="52.049060" lon="5.558546">
        <ele>8.140946</ele>
        <time>2026-03-05T19:41:11.378Z</time>
      </trkpt>
      <trkpt lat="52.049233" lon="5.558421">
        <ele>8.095067</ele>
        <time>2026-03-05T19:41:13.327Z</time>
      </trkpt>
      <trkpt lat="52.049256" lon="5.558398">
        <ele>8.088523</ele>
        <time>2026-03-05T19:41:13.618Z</time>
      </trkpt>
      <trkpt lat="52.049341" lon="5.558316">
        <ele>8.064571</ele>
        <time>2026-03-05T19:41:14.672Z</time>
      </trkpt>
      <trkpt lat="52.049423" lon="5.558301">
        <ele>8.044573</ele>
        <time>2026-03-05T19:41:15.564Z</time>
      </trkpt>
      <trkpt lat="52.049942" lon="5.558664">
        <ele>7.907653</ele>
        <time>2026-03-05T19:41:22.086Z</time>
      </trkpt>
      <trkpt lat="52.050002" lon="5.558677">
        <ele>7.892984</ele>
        <time>2026-03-05T19:41:22.845Z</time>
      </trkpt>
      <trkpt lat="52.050096" lon="5.558639">
        <ele>7.869510</ele>
        <time>2026-03-05T19:41:24.043Z</time>
      </trkpt>
      <trkpt lat="52.050195" lon="5.558483">
        <ele>7.836100</ele>
        <time>2026-03-05T19:41:25.759Z</time>
      </trkpt>
      <trkpt lat="52.050242" lon="5.558350">
        <ele>7.820327</ele>
        <time>2026-03-05T19:41:26.968Z</time>
      </trkpt>
      <trkpt lat="52.050380" lon="5.557579">
        <ele>7.831100</ele>
        <time>2026-03-05T19:41:33.219Z</time>
      </trkpt>
      <trkpt lat="52.050436" lon="5.557443">
        <ele>7.833296</ele>
        <time>2026-03-05T19:41:34.513Z</time>
      </trkpt>
      <trkpt lat="52.050512" lon="5.557399">
        <ele>7.835055</ele>
        <time>2026-03-05T19:41:35.531Z</time>
      </trkpt>
      <trkpt lat="52.050697" lon="5.557447">
        <ele>7.839142</ele>
        <time>2026-03-05T19:41:37.929Z</time>
      </trkpt>
      <trkpt lat="52.052595" lon="5.558055">
        <ele>7.644724</ele>
        <time>2026-03-05T19:42:20.108Z</time>
      </trkpt>
      <trkpt lat="52.054023" lon="5.558381">
        <ele>7.293198</ele>
        <time>2026-03-05T19:42:50.892Z</time>
      </trkpt>
      <trkpt lat="52.054766" lon="5.558512">
        <ele>7.080939</ele>
        <time>2026-03-05T19:43:06.686Z</time>
      </trkpt>
      <trkpt lat="52.056352" lon="5.558643">
        <ele>6.967741</ele>
        <time>2026-03-05T19:43:41.444Z</time>
      </trkpt>
      <trkpt lat="52.057865" lon="5.558978">
        <ele>7.029569</ele>
        <time>2026-03-05T19:44:16.496Z</time>
      </trkpt>
      <trkpt lat="52.058504" lon="5.559182">
        <ele>7.074236</ele>
        <time>2026-03-05T19:44:31.054Z</time>
      </trkpt>
      <trkpt lat="52.058814" lon="5.559242">
        <ele>7.054175</ele>
        <time>2026-03-05T19:44:37.718Z</time>
      </trkpt>
      <trkpt lat="52.058858" lon="5.559330">
        <ele>7.029539</ele>
        <time>2026-03-05T19:44:38.485Z</time>
      </trkpt>
      <trkpt lat="52.058898" lon="5.559425">
        <ele>7.004530</ele>
        <time>2026-03-05T19:44:39.256Z</time>
      </trkpt>
      <trkpt lat="52.059020" lon="5.559276">
        <ele>6.950633</ele>
        <time>2026-03-05T19:44:40.911Z</time>
      </trkpt>
      <trkpt lat="52.059088" lon="5.559414">
        <ele>6.912221</ele>
        <time>2026-03-05T19:44:43.194Z</time>
      </trkpt>
      <trkpt lat="52.059166" lon="5.559483">
        <ele>6.880855</ele>
        <time>2026-03-05T19:44:45.062Z</time>
      </trkpt>
      <trkpt lat="52.059297" lon="5.559541">
        <ele>6.832893</ele>
        <time>2026-03-05T19:44:47.915Z</time>
      </trkpt>
      <trkpt lat="52.059598" lon="5.559600">
        <ele>6.725791</ele>
        <time>2026-03-05T19:44:54.252Z</time>
      </trkpt>
      <trkpt lat="52.062393" lon="5.559756">
        <ele>5.919723</ele>
        <time>2026-03-05T19:45:53.914Z</time>
      </trkpt>
      <trkpt lat="52.062767" lon="5.559777">
        <ele>5.929909</ele>
        <time>2026-03-05T19:46:02.090Z</time>
      </trkpt>
      <trkpt lat="52.063818" lon="5.559982">
        <ele>5.958720</ele>
        <time>2026-03-05T19:46:25.725Z</time>
      </trkpt>
      <trkpt lat="52.063795" lon="5.560410">
        <ele>6.043447</ele>
        <time>2026-03-05T19:46:30.332Z</time>
      </trkpt>
      <trkpt lat="52.064262" lon="5.560458">
        <ele>6.345321</ele>
        <time>2026-03-05T19:46:36.763Z</time>
      </trkpt>
      <trkpt lat="52.064851" lon="5.560463">
        <ele>6.725305</ele>
        <time>2026-03-05T19:46:45.374Z</time>
      </trkpt>
      <trkpt lat="52.065725" lon="5.560474">
        <ele>7.150807</ele>
        <time>2026-03-05T19:46:57.938Z</time>
      </trkpt>
      <trkpt lat="52.065768" lon="5.560477">
        <ele>7.155476</ele>
        <time>2026-03-05T19:46:58.507Z</time>
      </trkpt>
      <trkpt lat="52.066052" lon="5.560495">
        <ele>7.186304</ele>
        <time>2026-03-05T19:47:02.064Z</time>
      </trkpt>
      <trkpt lat="52.066083" lon="5.560497">
        <ele>7.189669</ele>
        <time>2026-03-05T19:47:02.446Z</time>
      </trkpt>
      <trkpt lat="52.066745" lon="5.560574">
        <ele>7.261659</ele>
        <time>2026-03-05T19:47:10.201Z</time>
      </trkpt>
      <trkpt lat="52.067059" lon="5.560673">
        <ele>7.296353</ele>
        <time>2026-03-05T19:47:13.759Z</time>
      </trkpt>
      <trkpt lat="52.067304" lon="5.560778">
        <ele>7.316698</ele>
        <time>2026-03-05T19:47:16.539Z</time>
      </trkpt>
      <trkpt lat="52.067767" lon="5.560806">
        <ele>7.306105</ele>
        <time>2026-03-05T19:47:21.805Z</time>
      </trkpt>
      <trkpt lat="52.068493" lon="5.560851">
        <ele>7.289494</ele>
        <time>2026-03-05T19:47:30.543Z</time>
      </trkpt>
      <trkpt lat="52.068778" lon="5.560913">
        <ele>7.282920</ele>
        <time>2026-03-05T19:47:34.051Z</time>
      </trkpt>
      <trkpt lat="52.068854" lon="5.561012">
        <ele>7.280694</ele>
        <time>2026-03-05T19:47:35.248Z</time>
      </trkpt>
      <trkpt lat="52.068889" lon="5.561214">
        <ele>7.277745</ele>
        <time>2026-03-05T19:47:36.830Z</time>
      </trkpt>
      <trkpt lat="52.068878" lon="5.561409">
        <ele>7.281699</ele>
        <time>2026-03-05T19:47:38.287Z</time>
      </trkpt>
      <trkpt lat="52.068806" lon="5.561969">
        <ele>7.303208</ele>
        <time>2026-03-05T19:47:42.557Z</time>
      </trkpt>
      <trkpt lat="52.068488" lon="5.564398">
        <ele>7.395044</ele>
        <time>2026-03-05T19:48:00.879Z</time>
      </trkpt>
      <trkpt lat="52.068054" lon="5.567746">
        <ele>7.514027</ele>
        <time>2026-03-05T19:48:26.096Z</time>
      </trkpt>
      <trkpt lat="52.067004" lon="5.575835">
        <ele>7.949524</ele>
        <time>2026-03-05T19:49:27.590Z</time>
      </trkpt>
      <trkpt lat="52.067004" lon="5.575974">
        <ele>7.971495</ele>
        <time>2026-03-05T19:49:28.685Z</time>
      </trkpt>
      <trkpt lat="52.067061" lon="5.576182">
        <ele>8.007490</ele>
        <time>2026-03-05T19:49:30.501Z</time>
      </trkpt>
      <trkpt lat="52.067082" lon="5.576251">
        <ele>8.019660</ele>
        <time>2026-03-05T19:49:31.124Z</time>
      </trkpt>
      <trkpt lat="52.067001" lon="5.576344">
        <ele>8.045152</ele>
        <time>2026-03-05T19:49:32.387Z</time>
      </trkpt>
      <trkpt lat="52.066820" lon="5.576536">
        <ele>8.100711</ele>
        <time>2026-03-05T19:49:35.124Z</time>
      </trkpt>
      <trkpt lat="52.066853" lon="5.576631">
        <ele>8.117959</ele>
        <time>2026-03-05T19:49:36.265Z</time>
      </trkpt>
      <trkpt lat="52.066889" lon="5.576726">
        <ele>8.135598</ele>
        <time>2026-03-05T19:49:37.436Z</time>
      </trkpt>
      <trkpt lat="52.066720" lon="5.577722">
        <ele>8.298915</ele>
        <time>2026-03-05T19:49:48.629Z</time>
      </trkpt>
      <trkpt lat="52.066672" lon="5.578097">
        <ele>8.359460</ele>
        <time>2026-03-05T19:49:52.719Z</time>
      </trkpt>
      <trkpt lat="52.066795" lon="5.578258">
        <ele>8.378172</ele>
        <time>2026-03-05T19:49:55.354Z</time>
      </trkpt>
      <trkpt lat="52.066950" lon="5.578380">
        <ele>8.386242</ele>
        <time>2026-03-05T19:49:58.093Z</time>
      </trkpt>
      <trkpt lat="52.067230" lon="5.578530">
        <ele>8.400059</ele>
        <time>2026-03-05T19:50:02.794Z</time>
      </trkpt>
      <trkpt lat="52.067285" lon="5.579301">
        <ele>8.422422</ele>
        <time>2026-03-05T19:50:10.473Z</time>
      </trkpt>
      <trkpt lat="52.067315" lon="5.579711">
        <ele>8.434318</ele>
        <time>2026-03-05T19:50:14.639Z</time>
      </trkpt>
      <trkpt lat="52.067540" lon="5.582749">
        <ele>8.489571</ele>
        <time>2026-03-05T19:50:45.463Z</time>
      </trkpt>
      <trkpt lat="52.067829" lon="5.586039">
        <ele>8.232920</ele>
        <time>2026-03-05T19:51:17.343Z</time>
      </trkpt>
      <trkpt lat="52.068018" lon="5.588189">
        <ele>8.199862</ele>
        <time>2026-03-05T19:51:38.740Z</time>
      </trkpt>
      <trkpt lat="52.068229" lon="5.590354">
        <ele>8.239306</ele>
        <time>2026-03-05T19:52:00.974Z</time>
      </trkpt>
      <trkpt lat="52.068250" lon="5.590572">
        <ele>8.247345</ele>
        <time>2026-03-05T19:52:03.202Z</time>
      </trkpt>
      <trkpt lat="52.068301" lon="5.591155">
        <ele>8.268800</ele>
        <time>2026-03-05T19:52:09.078Z</time>
      </trkpt>
      <trkpt lat="52.068494" lon="5.593072">
        <ele>8.362777</ele>
        <time>2026-03-05T19:52:28.458Z</time>
      </trkpt>
      <trkpt lat="52.068795" lon="5.596265">
        <ele>8.523180</ele>
        <time>2026-03-05T19:53:01.482Z</time>
      </trkpt>
      <trkpt lat="52.068874" lon="5.597068">
        <ele>8.551036</ele>
        <time>2026-03-05T19:53:09.487Z</time>
      </trkpt>
      <trkpt lat="52.069034" lon="5.598674">
        <ele>8.736178</ele>
        <time>2026-03-05T19:53:25.846Z</time>
      </trkpt>
      <trkpt lat="52.069260" lon="5.600828">
        <ele>9.155940</ele>
        <time>2026-03-05T19:53:49.327Z</time>
      </trkpt>
      <trkpt lat="52.069367" lon="5.601911">
        <ele>9.272981</ele>
        <time>2026-03-05T19:54:01.008Z</time>
      </trkpt>
      <trkpt lat="52.069685" lon="5.604706">
        <ele>9.488330</ele>
        <time>2026-03-05T19:54:29.630Z</time>
      </trkpt>
      <trkpt lat="52.069690" lon="5.605060">
        <ele>9.497248</ele>
        <time>2026-03-05T19:54:33.141Z</time>
      </trkpt>
      <trkpt lat="52.069478" lon="5.605422">
        <ele>9.509841</ele>
        <time>2026-03-05T19:54:38.105Z</time>
      </trkpt>
      <trkpt lat="52.067840" lon="5.606705">
        <ele>9.619223</ele>
        <time>2026-03-05T19:55:07.718Z</time>
      </trkpt>
      <trkpt lat="52.067156" lon="5.607211">
        <ele>9.653985</ele>
        <time>2026-03-05T19:55:20.261Z</time>
      </trkpt>
      <trkpt lat="52.066983" lon="5.607370">
        <ele>9.645883</ele>
        <time>2026-03-05T19:55:23.550Z</time>
      </trkpt>
      <trkpt lat="52.066870" lon="5.607412">
        <ele>9.641156</ele>
        <time>2026-03-05T19:55:25.459Z</time>
      </trkpt>
      <trkpt lat="52.066794" lon="5.607401">
        <ele>9.638045</ele>
        <time>2026-03-05T19:55:26.738Z</time>
      </trkpt>
      <trkpt lat="52.066116" lon="5.606936">
        <ele>9.608042</ele>
        <time>2026-03-05T19:55:38.484Z</time>
      </trkpt>
      <trkpt lat="52.065975" lon="5.606854">
        <ele>9.601936</ele>
        <time>2026-03-05T19:55:40.177Z</time>
      </trkpt>
      <trkpt lat="52.065813" lon="5.606809">
        <ele>9.595235</ele>
        <time>2026-03-05T19:55:42.032Z</time>
      </trkpt>
      <trkpt lat="52.065320" lon="5.606779">
        <ele>9.604850</ele>
        <time>2026-03-05T19:55:47.641Z</time>
      </trkpt>
      <trkpt lat="52.065197" lon="5.606843">
        <ele>9.612564</ele>
        <time>2026-03-05T19:55:49.134Z</time>
      </trkpt>
      <trkpt lat="52.065144" lon="5.607044">
        <ele>9.620596</ele>
        <time>2026-03-05T19:55:50.701Z</time>
      </trkpt>
      <trkpt lat="52.065530" lon="5.607274">
        <ele>9.645152</ele>
        <time>2026-03-05T19:55:55.590Z</time>
      </trkpt>
      <trkpt lat="52.066255" lon="5.607843">
        <ele>9.693238</ele>
        <time>2026-03-05T19:56:05.738Z</time>
      </trkpt>
      <trkpt lat="52.067141" lon="5.608599">
        <ele>9.806520</ele>
        <time>2026-03-05T19:56:18.295Z</time>
      </trkpt>
      <trkpt lat="52.067396" lon="5.608833">
        <ele>9.840041</ele>
        <time>2026-03-05T19:56:21.798Z</time>
      </trkpt>
      <trkpt lat="52.067655" lon="5.609166">
        <ele>9.877839</ele>
        <time>2026-03-05T19:56:25.663Z</time>
      </trkpt>
      <trkpt lat="52.068036" lon="5.609820">
        <ele>9.940935</ele>
        <time>2026-03-05T19:56:32.157Z</time>
      </trkpt>
      <trkpt lat="52.068258" lon="5.610385">
        <ele>9.987759</ele>
        <time>2026-03-05T19:56:37.085Z</time>
      </trkpt>
      <trkpt lat="52.068467" lon="5.611190">
        <ele>10.048777</ele>
        <time>2026-03-05T19:56:43.695Z</time>
      </trkpt>
      <trkpt lat="52.068510" lon="5.611390">
        <ele>10.063572</ele>
        <time>2026-03-05T19:56:45.347Z</time>
      </trkpt>
      <trkpt lat="52.068830" lon="5.613220">
        <ele>10.262158</ele>
        <time>2026-03-05T19:57:00.181Z</time>
      </trkpt>
      <trkpt lat="52.069105" lon="5.614562">
        <ele>10.431852</ele>
        <time>2026-03-05T19:57:10.872Z</time>
      </trkpt>
      <trkpt lat="52.069183" lon="5.614969">
        <ele>10.471768</ele>
        <time>2026-03-05T19:57:14.131Z</time>
      </trkpt>
      <trkpt lat="52.068027" lon="5.615771">
        <ele>10.615532</ele>
        <time>2026-03-05T19:57:29.716Z</time>
      </trkpt>
      <trkpt lat="52.066442" lon="5.616840">
        <ele>10.564009</ele>
        <time>2026-03-05T19:57:49.623Z</time>
      </trkpt>
      <trkpt lat="52.066371" lon="5.616887">
        <ele>10.558310</ele>
        <time>2026-03-05T19:57:50.502Z</time>
      </trkpt>
      <trkpt lat="52.065168" lon="5.617704">
        <ele>10.529488</ele>
        <time>2026-03-05T19:58:05.807Z</time>
      </trkpt>
      <trkpt lat="52.064469" lon="5.618182">
        <ele>10.530837</ele>
        <time>2026-03-05T19:58:14.795Z</time>
      </trkpt>
      <trkpt lat="52.062671" lon="5.619422">
        <ele>10.710610</ele>
        <time>2026-03-05T19:58:38.473Z</time>
      </trkpt>
      <trkpt lat="52.062764" lon="5.619765">
        <ele>10.762519</ele>
        <time>2026-03-05T19:58:45.461Z</time>
      </trkpt>
      <trkpt lat="52.064142" lon="5.624807">
        <ele>11.604293</ele>
        <time>2026-03-05T20:00:28.970Z</time>
      </trkpt>
      <trkpt lat="52.064863" lon="5.627447">
        <ele>12.125060</ele>
        <time>2026-03-05T20:01:23.199Z</time>
      </trkpt>
      <trkpt lat="52.064830" lon="5.627470">
        <ele>12.141005</ele>
        <time>2026-03-05T20:01:23.810Z</time>
      </trkpt>
      <trkpt lat="52.064644" lon="5.627596">
        <ele>12.230496</ele>
        <time>2026-03-05T20:01:26.411Z</time>
      </trkpt>
      <trkpt lat="52.064578" lon="5.627641">
        <ele>12.262281</ele>
        <time>2026-03-05T20:01:27.333Z</time>
      </trkpt>
      <trkpt lat="52.066877" lon="5.635585">
        <ele>14.529862</ele>
        <time>2026-03-05T20:04:15.239Z</time>
      </trkpt>
      <trkpt lat="52.066987" lon="5.635965">
        <ele>14.548351</ele>
        <time>2026-03-05T20:04:23.039Z</time>
      </trkpt>
      <trkpt lat="52.066938" lon="5.635993">
        <ele>14.552070</ele>
        <time>2026-03-05T20:04:23.670Z</time>
      </trkpt>
      <trkpt lat="52.065383" lon="5.637176">
        <ele>14.642567</ele>
        <time>2026-03-05T20:04:43.662Z</time>
      </trkpt>
      <trkpt lat="52.063437" lon="5.638619">
        <ele>14.540683</ele>
        <time>2026-03-05T20:05:09.263Z</time>
      </trkpt>
      <trkpt lat="52.061963" lon="5.639707">
        <ele>14.338277</ele>
        <time>2026-03-05T20:05:27.108Z</time>
      </trkpt>
      <trkpt lat="52.061473" lon="5.640043">
        <ele>14.276659</ele>
        <time>2026-03-05T20:05:33.171Z</time>
      </trkpt>
      <trkpt lat="52.059948" lon="5.641141">
        <ele>14.326800</ele>
        <time>2026-03-05T20:05:53.808Z</time>
      </trkpt>
      <trkpt lat="52.058530" lon="5.642159">
        <ele>14.582155</ele>
        <time>2026-03-05T20:06:12.420Z</time>
      </trkpt>
      <trkpt lat="52.058458" lon="5.642174">
        <ele>14.597676</ele>
        <time>2026-03-05T20:06:13.335Z</time>
      </trkpt>
      <trkpt lat="52.058468" lon="5.642315">
        <ele>14.616336</ele>
        <time>2026-03-05T20:06:14.431Z</time>
      </trkpt>
      <trkpt lat="52.058483" lon="5.642413">
        <ele>14.629614</ele>
        <time>2026-03-05T20:06:15.216Z</time>
      </trkpt>
      <trkpt lat="52.058543" lon="5.642590">
        <ele>14.656186</ele>
        <time>2026-03-05T20:06:16.807Z</time>
      </trkpt>
      <trkpt lat="52.059149" lon="5.643730">
        <ele>14.982808</ele>
        <time>2026-03-05T20:06:29.103Z</time>
      </trkpt>
      <trkpt lat="52.059650" lon="5.645774">
        <ele>15.788678</ele>
        <time>2026-03-05T20:06:47.815Z</time>
      </trkpt>
      <trkpt lat="52.060265" lon="5.647705">
        <ele>16.651513</ele>
        <time>2026-03-05T20:07:06.421Z</time>
      </trkpt>
      <trkpt lat="52.060607" lon="5.648592">
        <ele>17.070045</ele>
        <time>2026-03-05T20:07:15.472Z</time>
      </trkpt>
      <trkpt lat="52.060762" lon="5.648872">
        <ele>17.221472</ele>
        <time>2026-03-05T20:07:18.786Z</time>
      </trkpt>
      <trkpt lat="52.060922" lon="5.649064">
        <ele>17.351448</ele>
        <time>2026-03-05T20:07:21.673Z</time>
      </trkpt>
      <trkpt lat="52.061061" lon="5.649248">
        <ele>17.468601</ele>
        <time>2026-03-05T20:07:24.191Z</time>
      </trkpt>
      <trkpt lat="52.061142" lon="5.649423">
        <ele>17.556637</ele>
        <time>2026-03-05T20:07:26.064Z</time>
      </trkpt>
      <trkpt lat="52.061526" lon="5.650514">
        <ele>18.061879</ele>
        <time>2026-03-05T20:07:36.706Z</time>
      </trkpt>
      <trkpt lat="52.061580" lon="5.650675">
        <ele>18.135587</ele>
        <time>2026-03-05T20:07:38.252Z</time>
      </trkpt>
      <trkpt lat="52.061589" lon="5.650702">
        <ele>18.147931</ele>
        <time>2026-03-05T20:07:38.513Z</time>
      </trkpt>
      <trkpt lat="52.061812" lon="5.651286">
        <ele>18.409236</ele>
        <time>2026-03-05T20:07:44.425Z</time>
      </trkpt>
      <trkpt lat="52.062052" lon="5.651915">
        <ele>18.687035</ele>
        <time>2026-03-05T20:07:50.766Z</time>
      </trkpt>
      <trkpt lat="52.062297" lon="5.652667">
        <ele>19.006400</ele>
        <time>2026-03-05T20:07:58.180Z</time>
      </trkpt>
      <trkpt lat="52.062308" lon="5.652705">
        <ele>19.022162</ele>
        <time>2026-03-05T20:07:58.559Z</time>
      </trkpt>
      <trkpt lat="52.062815" lon="5.654636">
        <ele>19.476759</ele>
        <time>2026-03-05T20:08:15.862Z</time>
      </trkpt>
      <trkpt lat="52.063089" lon="5.655681">
        <ele>19.626691</ele>
        <time>2026-03-05T20:08:23.959Z</time>
      </trkpt>
      <trkpt lat="52.063110" lon="5.655758">
        <ele>19.637808</ele>
        <time>2026-03-05T20:08:24.543Z</time>
      </trkpt>
      <trkpt lat="52.063413" lon="5.656942">
        <ele>20.093512</ele>
        <time>2026-03-05T20:08:33.824Z</time>
      </trkpt>
      <trkpt lat="52.063664" lon="5.657912">
        <ele>20.550616</ele>
        <time>2026-03-05T20:08:43.029Z</time>
      </trkpt>
      <trkpt lat="52.063730" lon="5.658169">
        <ele>20.671588</ele>
        <time>2026-03-05T20:08:45.748Z</time>
      </trkpt>
      <trkpt lat="52.063913" lon="5.658858">
        <ele>21.030911</ele>
        <time>2026-03-05T20:08:53.499Z</time>
      </trkpt>
      <trkpt lat="52.064201" lon="5.659995">
        <ele>21.962157</ele>
        <time>2026-03-05T20:09:06.143Z</time>
      </trkpt>
      <trkpt lat="52.064424" lon="5.660872">
        <ele>22.680853</ele>
        <time>2026-03-05T20:09:14.937Z</time>
      </trkpt>
      <trkpt lat="52.064664" lon="5.661896">
        <ele>23.479442</ele>
        <time>2026-03-05T20:09:24.953Z</time>
      </trkpt>
      <trkpt lat="52.065287" lon="5.664283">
        <ele>25.292602</ele>
        <time>2026-03-05T20:09:49.704Z</time>
      </trkpt>
      <trkpt lat="52.065328" lon="5.664442">
        <ele>25.452863</ele>
        <time>2026-03-05T20:09:51.393Z</time>
      </trkpt>
      <trkpt lat="52.065464" lon="5.664977">
        <ele>25.990970</ele>
        <time>2026-03-05T20:09:57.180Z</time>
      </trkpt>
      <trkpt lat="52.065488" lon="5.665072">
        <ele>26.086436</ele>
        <time>2026-03-05T20:09:58.177Z</time>
      </trkpt>
      <trkpt lat="52.066421" lon="5.668773">
        <ele>29.932992</ele>
        <time>2026-03-05T20:10:40.282Z</time>
      </trkpt>
      <trkpt lat="52.066448" lon="5.668883">
        <ele>30.050518</ele>
        <time>2026-03-05T20:10:41.582Z</time>
      </trkpt>
      <trkpt lat="52.066676" lon="5.669803">
        <ele>30.914583</ele>
        <time>2026-03-05T20:10:52.241Z</time>
      </trkpt>
      <trkpt lat="52.066603" lon="5.669835">
        <ele>30.973080</ele>
        <time>2026-03-05T20:10:54.903Z</time>
      </trkpt>
      <trkpt lat="52.067055" lon="5.671635">
        <ele>31.897906</ele>
        <time>2026-03-05T20:11:12.061Z</time>
      </trkpt>
      <trkpt lat="52.067322" lon="5.672746">
        <ele>32.381809</ele>
        <time>2026-03-05T20:11:20.824Z</time>
      </trkpt>
      <trkpt lat="52.067594" lon="5.673841">
        <ele>32.769684</ele>
        <time>2026-03-05T20:11:29.546Z</time>
      </trkpt>
      <trkpt lat="52.067881" lon="5.674989">
        <ele>33.194166</ele>
        <time>2026-03-05T20:11:41.067Z</time>
      </trkpt>
      <trkpt lat="52.068224" lon="5.676312">
        <ele>34.073703</ele>
        <time>2026-03-05T20:11:55.640Z</time>
      </trkpt>
      <trkpt lat="52.068384" lon="5.677032">
        <ele>34.542674</ele>
        <time>2026-03-05T20:12:03.018Z</time>
      </trkpt>
      <trkpt lat="52.068475" lon="5.677321">
        <ele>34.741574</ele>
        <time>2026-03-05T20:12:05.972Z</time>
      </trkpt>
      <trkpt lat="52.069670" lon="5.680789">
        <ele>34.922795</ele>
        <time>2026-03-05T20:12:34.635Z</time>
      </trkpt>
      <trkpt lat="52.070134" lon="5.682106">
        <ele>34.755404</ele>
        <time>2026-03-05T20:12:44.929Z</time>
      </trkpt>
      <trkpt lat="52.070552" lon="5.683403">
        <ele>34.748657</ele>
        <time>2026-03-05T20:12:55.265Z</time>
      </trkpt>
      <trkpt lat="52.070599" lon="5.683543">
        <ele>34.763216</ele>
        <time>2026-03-05T20:12:56.427Z</time>
      </trkpt>
      <trkpt lat="52.069381" lon="5.685233">
        <ele>35.117747</ele>
        <time>2026-03-05T20:13:16.791Z</time>
      </trkpt>
      <trkpt lat="52.069335" lon="5.685296">
        <ele>35.145550</ele>
        <time>2026-03-05T20:13:17.589Z</time>
      </trkpt>
      <trkpt lat="52.067810" lon="5.687400">
        <ele>35.941070</ele>
        <time>2026-03-05T20:13:44.751Z</time>
      </trkpt>
      <trkpt lat="52.066655" lon="5.689046">
        <ele>35.929756</ele>
        <time>2026-03-05T20:14:03.707Z</time>
      </trkpt>
      <trkpt lat="52.066563" lon="5.689337">
        <ele>35.759845</ele>
        <time>2026-03-05T20:14:05.754Z</time>
      </trkpt>
      <trkpt lat="52.066548" lon="5.689440">
        <ele>35.704883</ele>
        <time>2026-03-05T20:14:06.406Z</time>
      </trkpt>
      <trkpt lat="52.066583" lon="5.689493">
        <ele>35.664494</ele>
        <time>2026-03-05T20:14:06.875Z</time>
      </trkpt>
      <trkpt lat="52.066603" lon="5.689736">
        <ele>35.537192</ele>
        <time>2026-03-05T20:14:08.363Z</time>
      </trkpt>
      <trkpt lat="52.066864" lon="5.689711">
        <ele>35.316357</ele>
        <time>2026-03-05T20:14:10.875Z</time>
      </trkpt>
      <trkpt lat="52.067219" lon="5.689814">
        <ele>35.011774</ele>
        <time>2026-03-05T20:14:14.230Z</time>
      </trkpt>
      <trkpt lat="52.067415" lon="5.689889">
        <ele>34.841705</ele>
        <time>2026-03-05T20:14:16.065Z</time>
      </trkpt>
      <trkpt lat="52.067533" lon="5.689935">
        <ele>34.739214</ele>
        <time>2026-03-05T20:14:17.168Z</time>
      </trkpt>
      <trkpt lat="52.068224" lon="5.690165">
        <ele>34.096641</ele>
        <time>2026-03-05T20:14:23.857Z</time>
      </trkpt>
      <trkpt lat="52.068532" lon="5.690268">
        <ele>33.809596</ele>
        <time>2026-03-05T20:14:26.990Z</time>
      </trkpt>
      <trkpt lat="52.070018" lon="5.690779">
        <ele>32.706517</ele>
        <time>2026-03-05T20:14:42.986Z</time>
      </trkpt>
      <trkpt lat="52.070612" lon="5.690984">
        <ele>32.390899</ele>
        <time>2026-03-05T20:14:49.454Z</time>
      </trkpt>
      <trkpt lat="52.071895" lon="5.691407">
        <ele>31.705277</ele>
        <time>2026-03-05T20:15:03.149Z</time>
      </trkpt>
      <trkpt lat="52.073576" lon="5.691995">
        <ele>31.096761</ele>
        <time>2026-03-05T20:15:21.413Z</time>
      </trkpt>
      <trkpt lat="52.073774" lon="5.692061">
        <ele>31.069189</ele>
        <time>2026-03-05T20:15:23.719Z</time>
      </trkpt>
      <trkpt lat="52.074401" lon="5.692270">
        <ele>30.981877</ele>
        <time>2026-03-05T20:15:31.431Z</time>
      </trkpt>
      <trkpt lat="52.078413" lon="5.693615">
        <ele>32.686613</ele>
        <time>2026-03-05T20:16:26.046Z</time>
      </trkpt>
      <trkpt lat="52.079548" lon="5.693994">
        <ele>33.184964</ele>
        <time>2026-03-05T20:16:41.287Z</time>
      </trkpt>
      <trkpt lat="52.079623" lon="5.694056">
        <ele>33.221147</ele>
        <time>2026-03-05T20:16:42.397Z</time>
      </trkpt>
      <trkpt lat="52.079672" lon="5.694148">
        <ele>33.253327</ele>
        <time>2026-03-05T20:16:43.379Z</time>
      </trkpt>
      <trkpt lat="52.079701" lon="5.694206">
        <ele>33.273091</ele>
        <time>2026-03-05T20:16:43.988Z</time>
      </trkpt>
      <trkpt lat="52.079746" lon="5.694250">
        <ele>33.295672</ele>
        <time>2026-03-05T20:16:44.678Z</time>
      </trkpt>
      <trkpt lat="52.084285" lon="5.695764">
        <ele>34.761755</ele>
        <time>2026-03-05T20:17:45.693Z</time>
      </trkpt>
      <trkpt lat="52.084812" lon="5.695983">
        <ele>34.735307</ele>
        <time>2026-03-05T20:17:51.720Z</time>
      </trkpt>
      <trkpt lat="52.088695" lon="5.697871">
        <ele>31.826352</ele>
        <time>2026-03-05T20:18:32.643Z</time>
      </trkpt>
      <trkpt lat="52.091699" lon="5.699462">
        <ele>29.242951</ele>
        <time>2026-03-05T20:19:04.847Z</time>
      </trkpt>
      <trkpt lat="52.091729" lon="5.699477">
        <ele>29.213706</ele>
        <time>2026-03-05T20:19:05.130Z</time>
      </trkpt>
      <trkpt lat="52.092174" lon="5.699650">
        <ele>28.647239</ele>
        <time>2026-03-05T20:19:09.215Z</time>
      </trkpt>
      <trkpt lat="52.095136" lon="5.701161">
        <ele>23.922221</ele>
        <time>2026-03-05T20:19:37.449Z</time>
      </trkpt>
      <trkpt lat="52.096293" lon="5.701723">
        <ele>23.240905</ele>
        <time>2026-03-05T20:19:49.833Z</time>
      </trkpt>
      <trkpt lat="52.096620" lon="5.701845">
        <ele>23.141970</ele>
        <time>2026-03-05T20:19:53.673Z</time>
      </trkpt>
      <trkpt lat="52.097877" lon="5.702285">
        <ele>23.084536</ele>
        <time>2026-03-05T20:20:10.378Z</time>
      </trkpt>
      <trkpt lat="52.097894" lon="5.702032">
        <ele>23.106092</ele>
        <time>2026-03-05T20:20:12.507Z</time>
      </trkpt>
      <trkpt lat="52.098248" lon="5.702101">
        <ele>23.155246</ele>
        <time>2026-03-05T20:20:17.109Z</time>
      </trkpt>
      <trkpt lat="52.098866" lon="5.702044">
        <ele>23.173731</ele>
        <time>2026-03-05T20:20:24.218Z</time>
      </trkpt>
      <trkpt lat="52.099143" lon="5.702055">
        <ele>22.970288</ele>
        <time>2026-03-05T20:20:27.148Z</time>
      </trkpt>
      <trkpt lat="52.099447" lon="5.702145">
        <ele>22.743420</ele>
        <time>2026-03-05T20:20:30.259Z</time>
      </trkpt>
      <trkpt lat="52.100792" lon="5.702768">
        <ele>21.749518</ele>
        <time>2026-03-05T20:20:44.036Z</time>
      </trkpt>
      <trkpt lat="52.101071" lon="5.702894">
        <ele>21.573155</ele>
        <time>2026-03-05T20:20:47.019Z</time>
      </trkpt>
      <trkpt lat="52.101126" lon="5.702919">
        <ele>21.538372</ele>
        <time>2026-03-05T20:20:47.627Z</time>
      </trkpt>
      <trkpt lat="52.103667" lon="5.704073">
        <ele>20.080249</ele>
        <time>2026-03-05T20:21:15.544Z</time>
      </trkpt>
      <trkpt lat="52.104718" lon="5.704397">
        <ele>19.674972</ele>
        <time>2026-03-05T20:21:26.901Z</time>
      </trkpt>
      <trkpt lat="52.104963" lon="5.704513">
        <ele>19.594139</ele>
        <time>2026-03-05T20:21:29.691Z</time>
      </trkpt>
      <trkpt lat="52.105159" lon="5.704665">
        <ele>19.525361</ele>
        <time>2026-03-05T20:21:32.095Z</time>
      </trkpt>
      <trkpt lat="52.105357" lon="5.704880">
        <ele>19.449962</ele>
        <time>2026-03-05T20:21:34.770Z</time>
      </trkpt>
      <trkpt lat="52.106881" lon="5.707185">
        <ele>19.228928</ele>
        <time>2026-03-05T20:21:59.400Z</time>
      </trkpt>
      <trkpt lat="52.108974" lon="5.710297">
        <ele>18.571711</ele>
        <time>2026-03-05T20:22:30.762Z</time>
      </trkpt>
      <trkpt lat="52.109453" lon="5.711022">
        <ele>18.436578</ele>
        <time>2026-03-05T20:22:38.055Z</time>
      </trkpt>
      <trkpt lat="52.110038" lon="5.711922">
        <ele>18.662359</ele>
        <time>2026-03-05T20:22:47.761Z</time>
      </trkpt>
      <trkpt lat="52.110929" lon="5.713268">
        <ele>19.192747</ele>
        <time>2026-03-05T20:23:04.804Z</time>
      </trkpt>
      <trkpt lat="52.111357" lon="5.713898">
        <ele>19.408925</ele>
        <time>2026-03-05T20:23:12.726Z</time>
      </trkpt>
      <trkpt lat="52.111534" lon="5.714206">
        <ele>19.505988</ele>
        <time>2026-03-05T20:23:16.217Z</time>
      </trkpt>
      <trkpt lat="52.111686" lon="5.714537">
        <ele>19.601091</ele>
        <time>2026-03-05T20:23:19.591Z</time>
      </trkpt>
      <trkpt lat="52.111976" lon="5.715371">
        <ele>19.821624</ele>
        <time>2026-03-05T20:23:27.075Z</time>
      </trkpt>
      <trkpt lat="52.112052" lon="5.715588">
        <ele>19.845227</ele>
        <time>2026-03-05T20:23:28.855Z</time>
      </trkpt>
      <trkpt lat="52.112107" lon="5.715744">
        <ele>19.822585</ele>
        <time>2026-03-05T20:23:30.113Z</time>
      </trkpt>
      <trkpt lat="52.112132" lon="5.715810">
        <ele>19.812824</ele>
        <time>2026-03-05T20:23:30.644Z</time>
      </trkpt>
      <trkpt lat="52.112153" lon="5.715878">
        <ele>19.803243</ele>
        <time>2026-03-05T20:23:31.163Z</time>
      </trkpt>
      <trkpt lat="52.112286" lon="5.716240">
        <ele>19.750146</ele>
        <time>2026-03-05T20:23:34.083Z</time>
      </trkpt>
      <trkpt lat="52.112396" lon="5.716539">
        <ele>19.706274</ele>
        <time>2026-03-05T20:23:36.502Z</time>
      </trkpt>
      <trkpt lat="52.112610" lon="5.717108">
        <ele>19.622290</ele>
        <time>2026-03-05T20:23:41.144Z</time>
      </trkpt>
      <trkpt lat="52.112786" lon="5.717503">
        <ele>19.560863</ele>
        <time>2026-03-05T20:23:44.481Z</time>
      </trkpt>
      <trkpt lat="52.112848" lon="5.717609">
        <ele>19.542437</ele>
        <time>2026-03-05T20:23:45.458Z</time>
      </trkpt>
      <trkpt lat="52.113056" lon="5.717966">
        <ele>19.477538</ele>
        <time>2026-03-05T20:23:48.708Z</time>
      </trkpt>
      <trkpt lat="52.113279" lon="5.718268">
        <ele>19.396258</ele>
        <time>2026-03-05T20:23:51.815Z</time>
      </trkpt>
      <trkpt lat="52.113327" lon="5.718324">
        <ele>19.379710</ele>
        <time>2026-03-05T20:23:52.458Z</time>
      </trkpt>
      <trkpt lat="52.113867" lon="5.718903">
        <ele>19.198524</ele>
        <time>2026-03-05T20:23:59.517Z</time>
      </trkpt>
      <trkpt lat="52.113850" lon="5.719002">
        <ele>19.180833</ele>
        <time>2026-03-05T20:24:00.206Z</time>
      </trkpt>
      <trkpt lat="52.113890" lon="5.719121">
        <ele>19.157487</ele>
        <time>2026-03-05T20:24:01.133Z</time>
      </trkpt>
      <trkpt lat="52.113954" lon="5.719152">
        <ele>19.138775</ele>
        <time>2026-03-05T20:24:01.865Z</time>
      </trkpt>
      <trkpt lat="52.113966" lon="5.719150">
        <ele>19.135395</ele>
        <time>2026-03-05T20:24:01.999Z</time>
      </trkpt>
      <trkpt lat="52.114629" lon="5.719733">
        <ele>18.995689</ele>
        <time>2026-03-05T20:24:13.855Z</time>
      </trkpt>
      <trkpt lat="52.115695" lon="5.720532">
        <ele>19.056730</ele>
        <time>2026-03-05T20:24:33.425Z</time>
      </trkpt>
      <trkpt lat="52.115804" lon="5.720541">
        <ele>19.062407</ele>
        <time>2026-03-05T20:24:35.220Z</time>
      </trkpt>
      <trkpt lat="52.116312" lon="5.720941">
        <ele>19.034898</ele>
        <time>2026-03-05T20:24:41.912Z</time>
      </trkpt>
      <trkpt lat="52.116653" lon="5.721120">
        <ele>18.976166</ele>
        <time>2026-03-05T20:24:46.012Z</time>
      </trkpt>
      <trkpt lat="52.116668" lon="5.721172">
        <ele>18.970383</ele>
        <time>2026-03-05T20:24:46.407Z</time>
      </trkpt>
      <trkpt lat="52.116794" lon="5.721230">
        <ele>18.948918</ele>
        <time>2026-03-05T20:24:47.870Z</time>
      </trkpt>
      <trkpt lat="52.117249" lon="5.721280">
        <ele>18.874160</ele>
        <time>2026-03-05T20:24:52.940Z</time>
      </trkpt>
      <trkpt lat="52.117532" lon="5.721354">
        <ele>18.827174</ele>
        <time>2026-03-05T20:24:56.112Z</time>
      </trkpt>
      <trkpt lat="52.120490" lon="5.721646">
        <ele>18.561569</ele>
        <time>2026-03-05T20:25:29.960Z</time>
      </trkpt>
      <trkpt lat="52.121314" lon="5.721740">
        <ele>18.598925</ele>
        <time>2026-03-05T20:25:40.411Z</time>
      </trkpt>
      <trkpt lat="52.121638" lon="5.721884">
        <ele>18.627723</ele>
        <time>2026-03-05T20:25:44.696Z</time>
      </trkpt>
      <trkpt lat="52.121804" lon="5.722079">
        <ele>18.647701</ele>
        <time>2026-03-05T20:25:47.291Z</time>
      </trkpt>
      <trkpt lat="52.122934" lon="5.724144">
        <ele>18.811320</ele>
        <time>2026-03-05T20:26:07.670Z</time>
      </trkpt>
      <trkpt lat="52.122991" lon="5.724115">
        <ele>18.816795</ele>
        <time>2026-03-05T20:26:08.383Z</time>
      </trkpt>
      <trkpt lat="52.123084" lon="5.724007">
        <ele>18.827269</ele>
        <time>2026-03-05T20:26:09.775Z</time>
      </trkpt>
      <trkpt lat="52.123922" lon="5.723500">
        <ele>18.909240</ele>
        <time>2026-03-05T20:26:20.665Z</time>
      </trkpt>
      <trkpt lat="52.124590" lon="5.723090">
        <ele>18.959366</ele>
        <time>2026-03-05T20:26:29.393Z</time>
      </trkpt>
      <trkpt lat="52.124908" lon="5.722839">
        <ele>18.976169</ele>
        <time>2026-03-05T20:26:33.650Z</time>
      </trkpt>
      <trkpt lat="52.125749" lon="5.722085">
        <ele>19.021818</ele>
        <time>2026-03-05T20:26:45.158Z</time>
      </trkpt>
      <trkpt lat="52.125861" lon="5.721961">
        <ele>19.028257</ele>
        <time>2026-03-05T20:26:46.732Z</time>
      </trkpt>
      <trkpt lat="52.125990" lon="5.721730">
        <ele>19.007169</ele>
        <time>2026-03-05T20:26:48.931Z</time>
      </trkpt>
      <trkpt lat="52.126089" lon="5.721489">
        <ele>18.987203</ele>
        <time>2026-03-05T20:26:50.968Z</time>
      </trkpt>
      <trkpt lat="52.126170" lon="5.721180">
        <ele>18.964068</ele>
        <time>2026-03-05T20:26:53.322Z</time>
      </trkpt>
      <trkpt lat="52.126266" lon="5.720732">
        <ele>18.931397</ele>
        <time>2026-03-05T20:26:56.643Z</time>
      </trkpt>
      <trkpt lat="52.126349" lon="5.720102">
        <ele>18.887031</ele>
        <time>2026-03-05T20:27:01.145Z</time>
      </trkpt>
      <trkpt lat="52.126731" lon="5.717627">
        <ele>18.730082</ele>
        <time>2026-03-05T20:27:19.331Z</time>
      </trkpt>
      <trkpt lat="52.127079" lon="5.716763">
        <ele>18.670510</ele>
        <time>2026-03-05T20:27:26.669Z</time>
      </trkpt>
      <trkpt lat="52.127316" lon="5.715992">
        <ele>18.647779</ele>
        <time>2026-03-05T20:27:32.796Z</time>
      </trkpt>
      <trkpt lat="52.127476" lon="5.715685">
        <ele>18.641513</ele>
        <time>2026-03-05T20:27:35.684Z</time>
      </trkpt>
      <trkpt lat="52.127568" lon="5.715585">
        <ele>18.638709</ele>
        <time>2026-03-05T20:27:36.965Z</time>
      </trkpt>
      <trkpt lat="52.127737" lon="5.715474">
        <ele>18.634091</ele>
        <time>2026-03-05T20:27:39.094Z</time>
      </trkpt>
      <trkpt lat="52.127827" lon="5.715879">
        <ele>18.627389</ele>
        <time>2026-03-05T20:27:42.168Z</time>
      </trkpt>
      <trkpt lat="52.127879" lon="5.716063">
        <ele>18.624237</ele>
        <time>2026-03-05T20:27:43.632Z</time>
      </trkpt>
      <trkpt lat="52.127938" lon="5.716173">
        <ele>18.621964</ele>
        <time>2026-03-05T20:27:44.676Z</time>
      </trkpt>
      <trkpt lat="52.127991" lon="5.716246">
        <ele>18.620205</ele>
        <time>2026-03-05T20:27:45.500Z</time>
      </trkpt>
      <trkpt lat="52.128086" lon="5.716306">
        <ele>18.617622</ele>
        <time>2026-03-05T20:27:46.700Z</time>
      </trkpt>
      <trkpt lat="52.128314" lon="5.716322">
        <ele>18.612700</ele>
        <time>2026-03-05T20:27:49.426Z</time>
      </trkpt>
      <trkpt lat="52.130108" lon="5.716192">
        <ele>18.687386</ele>
        <time>2026-03-05T20:28:11.101Z</time>
      </trkpt>
      <trkpt lat="52.131788" lon="5.717668">
        <ele>18.731073</ele>
        <time>2026-03-05T20:28:33.927Z</time>
      </trkpt>
      <trkpt lat="52.132502" lon="5.718295">
        <ele>18.800395</ele>
        <time>2026-03-05T20:28:43.747Z</time>
      </trkpt>
      <trkpt lat="52.132640" lon="5.718544">
        <ele>18.817994</ele>
        <time>2026-03-05T20:28:46.254Z</time>
      </trkpt>
      <trkpt lat="52.134149" lon="5.722240">
        <ele>19.057897</ele>
        <time>2026-03-05T20:29:19.368Z</time>
      </trkpt>
      <trkpt lat="52.135060" lon="5.721856">
        <ele>19.055620</ele>
        <time>2026-03-05T20:29:30.527Z</time>
      </trkpt>
      <trkpt lat="52.135317" lon="5.721718">
        <ele>19.054966</ele>
        <time>2026-03-05T20:29:33.723Z</time>
      </trkpt>
      <trkpt lat="52.136004" lon="5.721140">
        <ele>19.060591</ele>
        <time>2026-03-05T20:29:42.830Z</time>
      </trkpt>
      <trkpt lat="52.136142" lon="5.721068">
        <ele>19.062651</ele>
        <time>2026-03-05T20:29:44.539Z</time>
      </trkpt>
      <trkpt lat="52.136254" lon="5.721050">
        <ele>19.064250</ele>
        <time>2026-03-05T20:29:45.861Z</time>
      </trkpt>
      <trkpt lat="52.137865" lon="5.721508">
        <ele>19.245764</ele>
        <time>2026-03-05T20:30:05.608Z</time>
      </trkpt>
      <trkpt lat="52.138287" lon="5.721804">
        <ele>19.385752</ele>
        <time>2026-03-05T20:30:11.593Z</time>
      </trkpt>
      <trkpt lat="52.138515" lon="5.721964">
        <ele>19.461390</ele>
        <time>2026-03-05T20:30:14.878Z</time>
      </trkpt>
      <trkpt lat="52.139030" lon="5.722324">
        <ele>19.629084</ele>
        <time>2026-03-05T20:30:22.343Z</time>
      </trkpt>
      <trkpt lat="52.139936" lon="5.722552">
        <ele>19.712943</ele>
        <time>2026-03-05T20:30:33.902Z</time>
      </trkpt>
      <trkpt lat="52.140084" lon="5.726486">
        <ele>19.659379</ele>
        <time>2026-03-05T20:31:01.628Z</time>
      </trkpt>
      <trkpt lat="52.140252" lon="5.727256">
        <ele>19.679596</ele>
        <time>2026-03-05T20:31:07.611Z</time>
      </trkpt>
      <trkpt lat="52.140772" lon="5.729504">
        <ele>19.919666</ele>
        <time>2026-03-05T20:31:26.065Z</time>
      </trkpt>
      <trkpt lat="52.141430" lon="5.732350">
        <ele>20.373826</ele>
        <time>2026-03-05T20:31:49.875Z</time>
      </trkpt>
      <trkpt lat="52.141540" lon="5.733260">
        <ele>20.442212</ele>
        <time>2026-03-05T20:31:56.857Z</time>
      </trkpt>
      <trkpt lat="52.141993" lon="5.732914">
        <ele>20.502082</ele>
        <time>2026-03-05T20:32:02.942Z</time>
      </trkpt>
      <trkpt lat="52.145987" lon="5.731234">
        <ele>20.998438</ele>
        <time>2026-03-05T20:32:53.512Z</time>
      </trkpt>
      <trkpt lat="52.146274" lon="5.732514">
        <ele>21.082620</ele>
        <time>2026-03-05T20:33:03.548Z</time>
      </trkpt>
      <trkpt lat="52.146862" lon="5.735130">
        <ele>21.473664</ele>
        <time>2026-03-05T20:33:24.208Z</time>
      </trkpt>
      <trkpt lat="52.147295" lon="5.736710">
        <ele>22.022602</ele>
        <time>2026-03-05T20:33:39.406Z</time>
      </trkpt>
      <trkpt lat="52.147284" lon="5.736914">
        <ele>22.087566</ele>
        <time>2026-03-05T20:33:41.243Z</time>
      </trkpt>
      <trkpt lat="52.147428" lon="5.737201">
        <ele>22.184983</ele>
        <time>2026-03-05T20:33:44.435Z</time>
      </trkpt>
      <trkpt lat="52.147591" lon="5.737775">
        <ele>22.336634</ele>
        <time>2026-03-05T20:33:49.720Z</time>
      </trkpt>
      <trkpt lat="52.147994" lon="5.739211">
        <ele>22.715243</ele>
        <time>2026-03-05T20:34:02.661Z</time>
      </trkpt>
      <trkpt lat="52.148509" lon="5.741074">
        <ele>22.648245</ele>
        <time>2026-03-05T20:34:17.097Z</time>
      </trkpt>
      <trkpt lat="52.148575" lon="5.741052">
        <ele>22.635977</ele>
        <time>2026-03-05T20:34:17.853Z</time>
      </trkpt>
      <trkpt lat="52.148784" lon="5.740964">
        <ele>22.596665</ele>
        <time>2026-03-05T20:34:20.280Z</time>
      </trkpt>
      <trkpt lat="52.150059" lon="5.740329">
        <ele>22.350249</ele>
        <time>2026-03-05T20:34:34.642Z</time>
      </trkpt>
      <trkpt lat="52.150729" lon="5.740006">
        <ele>22.219806</ele>
        <time>2026-03-05T20:34:42.834Z</time>
      </trkpt>
      <trkpt lat="52.150882" lon="5.739929">
        <ele>22.189911</ele>
        <time>2026-03-05T20:34:44.759Z</time>
      </trkpt>
      <trkpt lat="52.151276" lon="5.739730">
        <ele>22.131004</ele>
        <time>2026-03-05T20:34:49.734Z</time>
      </trkpt>
      <trkpt lat="52.151407" lon="5.739722">
        <ele>22.115566</ele>
        <time>2026-03-05T20:34:51.299Z</time>
      </trkpt>
      <trkpt lat="52.151889" lon="5.739806">
        <ele>22.058477</ele>
        <time>2026-03-05T20:34:56.872Z</time>
      </trkpt>
      <trkpt lat="52.152273" lon="5.739875">
        <ele>22.012980</ele>
        <time>2026-03-05T20:35:02.847Z</time>
      </trkpt>
      <trkpt lat="52.152322" lon="5.739763">
        <ele>22.003040</ele>
        <time>2026-03-05T20:35:03.816Z</time>
      </trkpt>
      <trkpt lat="52.152813" lon="5.739334">
        <ele>21.959092</ele>
        <time>2026-03-05T20:35:10.102Z</time>
      </trkpt>
      <trkpt lat="52.153272" lon="5.738840">
        <ele>22.004978</ele>
        <time>2026-03-05T20:35:16.617Z</time>
      </trkpt>
      <trkpt lat="52.153421" lon="5.738734">
        <ele>22.018540</ele>
        <time>2026-03-05T20:35:18.548Z</time>
      </trkpt>
      <trkpt lat="52.153497" lon="5.738611">
        <ele>22.027475</ele>
        <time>2026-03-05T20:35:19.849Z</time>
      </trkpt>
      <trkpt lat="52.153793" lon="5.738457">
        <ele>22.053395</ele>
        <time>2026-03-05T20:35:23.734Z</time>
      </trkpt>
      <trkpt lat="52.154032" lon="5.738039">
        <ele>22.082640</ele>
        <time>2026-03-05T20:35:28.210Z</time>
      </trkpt>
      <trkpt lat="52.154300" lon="5.737921">
        <ele>22.101756</ele>
        <time>2026-03-05T20:35:31.728Z</time>
      </trkpt>
      <trkpt lat="52.154529" lon="5.737711">
        <ele>22.107971</ele>
        <time>2026-03-05T20:35:34.990Z</time>
      </trkpt>
      <trkpt lat="52.154778" lon="5.737590">
        <ele>22.114116</ele>
        <time>2026-03-05T20:35:38.156Z</time>
      </trkpt>
      <trkpt lat="52.154845" lon="5.737526">
        <ele>22.115953</ele>
        <time>2026-03-05T20:35:39.097Z</time>
      </trkpt>
      <trkpt lat="52.155011" lon="5.737321">
        <ele>22.120878</ele>
        <time>2026-03-05T20:35:41.578Z</time>
      </trkpt>
      <trkpt lat="52.155224" lon="5.737159">
        <ele>22.126438</ele>
        <time>2026-03-05T20:35:44.349Z</time>
      </trkpt>
      <trkpt lat="52.156291" lon="5.736490">
        <ele>22.068307</ele>
        <time>2026-03-05T20:35:57.560Z</time>
      </trkpt>
      <trkpt lat="52.156565" lon="5.736188">
        <ele>22.014320</ele>
        <time>2026-03-05T20:36:01.338Z</time>
      </trkpt>
      <trkpt lat="52.157206" lon="5.735352">
        <ele>21.880328</ele>
        <time>2026-03-05T20:36:10.568Z</time>
      </trkpt>
      <trkpt lat="52.157359" lon="5.735121">
        <ele>21.848406</ele>
        <time>2026-03-05T20:36:12.868Z</time>
      </trkpt>
      <trkpt lat="52.157498" lon="5.734846">
        <ele>21.839378</ele>
        <time>2026-03-05T20:36:15.273Z</time>
      </trkpt>
      <trkpt lat="52.157879" lon="5.733671">
        <ele>21.805704</ele>
        <time>2026-03-05T20:36:33.062Z</time>
      </trkpt>
      <trkpt lat="52.158038" lon="5.733376">
        <ele>21.795755</ele>
        <time>2026-03-05T20:36:38.497Z</time>
      </trkpt>
      <trkpt lat="52.158308" lon="5.732979">
        <ele>21.780737</ele>
        <time>2026-03-05T20:36:46.784Z</time>
      </trkpt>
      <trkpt lat="52.158753" lon="5.732217">
        <ele>21.811884</ele>
        <time>2026-03-05T20:37:01.682Z</time>
      </trkpt>
      <trkpt lat="52.159060" lon="5.731533">
        <ele>21.850205</ele>
        <time>2026-03-05T20:37:13.639Z</time>
      </trkpt>
      <trkpt lat="52.159496" lon="5.731009">
        <ele>21.890131</ele>
        <time>2026-03-05T20:37:25.691Z</time>
      </trkpt>
      <trkpt lat="52.159579" lon="5.730848">
        <ele>21.899640</ele>
        <time>2026-03-05T20:37:28.495Z</time>
      </trkpt>
      <trkpt lat="52.159646" lon="5.730574">
        <ele>21.889063</ele>
        <time>2026-03-05T20:37:32.386Z</time>
      </trkpt>
      <trkpt lat="52.159735" lon="5.730443">
        <ele>21.859938</ele>
        <time>2026-03-05T20:37:34.912Z</time>
      </trkpt>
      <trkpt lat="52.159774" lon="5.730421">
        <ele>21.849915</ele>
        <time>2026-03-05T20:37:35.791Z</time>
      </trkpt>
      <trkpt lat="52.160475" lon="5.730022">
        <ele>21.669579</ele>
        <time>2026-03-05T20:37:51.512Z</time>
      </trkpt>
      <trkpt lat="52.160887" lon="5.729885">
        <ele>21.567454</ele>
        <time>2026-03-05T20:38:00.549Z</time>
      </trkpt>
      <trkpt lat="52.161015" lon="5.729747">
        <ele>21.530181</ele>
        <time>2026-03-05T20:38:03.877Z</time>
      </trkpt>
      <trkpt lat="52.161391" lon="5.728934">
        <ele>21.428012</ele>
        <time>2026-03-05T20:38:17.523Z</time>
      </trkpt>
      <trkpt lat="52.161727" lon="5.727689">
        <ele>21.334365</ele>
        <time>2026-03-05T20:38:36.037Z</time>
      </trkpt>
      <trkpt lat="52.161819" lon="5.727490">
        <ele>21.317208</ele>
        <time>2026-03-05T20:38:39.396Z</time>
      </trkpt>
      <trkpt lat="52.161893" lon="5.727391">
        <ele>21.306464</ele>
        <time>2026-03-05T20:38:41.482Z</time>
      </trkpt>
      <trkpt lat="52.162042" lon="5.727276">
        <ele>21.287961</ele>
        <time>2026-03-05T20:38:45.035Z</time>
      </trkpt>
      <trkpt lat="52.162264" lon="5.726796">
        <ele>21.240857</ele>
        <time>2026-03-05T20:38:52.973Z</time>
      </trkpt>
      <trkpt lat="52.162557" lon="5.726485">
        <ele>21.191474</ele>
        <time>2026-03-05T20:39:00.491Z</time>
      </trkpt>
      <trkpt lat="52.162597" lon="5.726408">
        <ele>21.182732</ele>
        <time>2026-03-05T20:39:01.818Z</time>
      </trkpt>
      <trkpt lat="52.162717" lon="5.726176">
        <ele>21.156439</ele>
        <time>2026-03-05T20:39:05.841Z</time>
      </trkpt>
      <trkpt lat="52.162786" lon="5.726095">
        <ele>21.144430</ele>
        <time>2026-03-05T20:39:07.677Z</time>
      </trkpt>
      <trkpt lat="52.162941" lon="5.725997">
        <ele>21.120948</ele>
        <time>2026-03-05T20:39:11.312Z</time>
      </trkpt>
      <trkpt lat="52.163137" lon="5.725776">
        <ele>21.087288</ele>
        <time>2026-03-05T20:39:16.526Z</time>
      </trkpt>
      <trkpt lat="52.163228" lon="5.725500">
        <ele>21.060140</ele>
        <time>2026-03-05T20:39:20.773Z</time>
      </trkpt>
      <trkpt lat="52.163381" lon="5.725217">
        <ele>21.027457</ele>
        <time>2026-03-05T20:39:25.894Z</time>
      </trkpt>
      <trkpt lat="52.163530" lon="5.724476">
        <ele>20.981368</ele>
        <time>2026-03-05T20:39:36.545Z</time>
      </trkpt>
      <trkpt lat="52.163542" lon="5.724418">
        <ele>20.978144</ele>
        <time>2026-03-05T20:39:37.370Z</time>
      </trkpt>
      <trkpt lat="52.163631" lon="5.723743">
        <ele>20.941787</ele>
        <time>2026-03-05T20:39:46.782Z</time>
      </trkpt>
      <trkpt lat="52.163988" lon="5.722122">
        <ele>20.881777</ele>
        <time>2026-03-05T20:40:09.690Z</time>
      </trkpt>
      <trkpt lat="52.164069" lon="5.721868">
        <ele>20.917293</ele>
        <time>2026-03-05T20:40:13.524Z</time>
      </trkpt>
      <trkpt lat="52.164240" lon="5.721507">
        <ele>20.973880</ele>
        <time>2026-03-05T20:40:19.692Z</time>
      </trkpt>
      <trkpt lat="52.164300" lon="5.721559">
        <ele>20.987624</ele>
        <time>2026-03-05T20:40:20.494Z</time>
      </trkpt>
      <trkpt lat="52.165533" lon="5.722782">
        <ele>21.320192</ele>
        <time>2026-03-05T20:40:39.125Z</time>
      </trkpt>
      <trkpt lat="52.165829" lon="5.723156">
        <ele>21.451403</ele>
        <time>2026-03-05T20:40:44.211Z</time>
      </trkpt>
      <trkpt lat="52.166138" lon="5.723650">
        <ele>21.603037</ele>
        <time>2026-03-05T20:40:49.991Z</time>
      </trkpt>
      <trkpt lat="52.166365" lon="5.724074">
        <ele>21.723987</ele>
        <time>2026-03-05T20:40:54.517Z</time>
      </trkpt>
      <trkpt lat="52.166698" lon="5.724795">
        <ele>21.868361</ele>
        <time>2026-03-05T20:41:01.566Z</time>
      </trkpt>
      <trkpt lat="52.166998" lon="5.725659">
        <ele>21.915704</ele>
        <time>2026-03-05T20:41:08.960Z</time>
      </trkpt>
      <trkpt lat="52.167481" lon="5.727649">
        <ele>21.979638</ele>
        <time>2026-03-05T20:41:24.426Z</time>
      </trkpt>
      <trkpt lat="52.167588" lon="5.727980">
        <ele>21.968788</ele>
        <time>2026-03-05T20:41:27.119Z</time>
      </trkpt>
      <trkpt lat="52.167940" lon="5.728817">
        <ele>21.939362</ele>
        <time>2026-03-05T20:41:34.419Z</time>
      </trkpt>
      <trkpt lat="52.168605" lon="5.730238">
        <ele>21.988686</ele>
        <time>2026-03-05T20:41:47.430Z</time>
      </trkpt>
      <trkpt lat="52.169132" lon="5.731443">
        <ele>22.147795</ele>
        <time>2026-03-05T20:41:58.565Z</time>
      </trkpt>
      <trkpt lat="52.169388" lon="5.732167">
        <ele>22.272140</ele>
        <time>2026-03-05T20:42:05.239Z</time>
      </trkpt>
      <trkpt lat="52.169537" lon="5.732750">
        <ele>22.515595</ele>
        <time>2026-03-05T20:42:10.438Z</time>
      </trkpt>
      <trkpt lat="52.169587" lon="5.733117">
        <ele>22.660508</ele>
        <time>2026-03-05T20:42:13.589Z</time>
      </trkpt>
      <trkpt lat="52.169580" lon="5.733485">
        <ele>22.802426</ele>
        <time>2026-03-05T20:42:16.744Z</time>
      </trkpt>
      <trkpt lat="52.169521" lon="5.734039">
        <ele>23.019168</ele>
        <time>2026-03-05T20:42:21.618Z</time>
      </trkpt>
      <trkpt lat="52.169443" lon="5.734352">
        <ele>23.149397</ele>
        <time>2026-03-05T20:42:24.585Z</time>
      </trkpt>
      <trkpt lat="52.169092" lon="5.735129">
        <ele>23.513945</ele>
        <time>2026-03-05T20:42:33.163Z</time>
      </trkpt>
      <trkpt lat="52.169032" lon="5.735415">
        <ele>23.625267</ele>
        <time>2026-03-05T20:42:35.771Z</time>
      </trkpt>
      <trkpt lat="52.169027" lon="5.735639">
        <ele>23.707818</ele>
        <time>2026-03-05T20:42:37.723Z</time>
      </trkpt>
      <trkpt lat="52.169054" lon="5.735869">
        <ele>23.794062</ele>
        <time>2026-03-05T20:42:39.766Z</time>
      </trkpt>
      <trkpt lat="52.169201" lon="5.736287">
        <ele>23.971517</ele>
        <time>2026-03-05T20:42:43.975Z</time>
      </trkpt>
      <trkpt lat="52.169402" lon="5.736631">
        <ele>24.146496</ele>
        <time>2026-03-05T20:42:48.095Z</time>
      </trkpt>
      <trkpt lat="52.170269" lon="5.738016">
        <ele>24.380199</ele>
        <time>2026-03-05T20:43:03.288Z</time>
      </trkpt>
      <trkpt lat="52.170455" lon="5.738423">
        <ele>24.357063</ele>
        <time>2026-03-05T20:43:06.719Z</time>
      </trkpt>
      <trkpt lat="52.170980" lon="5.739940">
        <ele>24.459537</ele>
        <time>2026-03-05T20:43:18.371Z</time>
      </trkpt>
      <trkpt lat="52.171133" lon="5.740309">
        <ele>24.597102</ele>
        <time>2026-03-05T20:43:21.787Z</time>
      </trkpt>
      <trkpt lat="52.172036" lon="5.742061">
        <ele>25.282892</ele>
        <time>2026-03-05T20:43:42.396Z</time>
      </trkpt>
      <trkpt lat="52.172269" lon="5.742621">
        <ele>25.446665</ele>
        <time>2026-03-05T20:43:48.296Z</time>
      </trkpt>
      <trkpt lat="52.172581" lon="5.743587">
        <ele>25.710886</ele>
        <time>2026-03-05T20:43:56.734Z</time>
      </trkpt>
      <trkpt lat="52.172874" lon="5.744618">
        <ele>25.953940</ele>
        <time>2026-03-05T20:44:05.087Z</time>
      </trkpt>
      <trkpt lat="52.172987" lon="5.744887">
        <ele>25.996474</ele>
        <time>2026-03-05T20:44:07.539Z</time>
      </trkpt>
      <trkpt lat="52.173184" lon="5.745106">
        <ele>26.047190</ele>
        <time>2026-03-05T20:44:10.544Z</time>
      </trkpt>
      <trkpt lat="52.174200" lon="5.745945">
        <ele>26.289440</ele>
        <time>2026-03-05T20:44:25.056Z</time>
      </trkpt>
      <trkpt lat="52.174303" lon="5.746077">
        <ele>26.321023</ele>
        <time>2026-03-05T20:44:26.697Z</time>
      </trkpt>
      <trkpt lat="52.174458" lon="5.746276">
        <ele>26.371590</ele>
        <time>2026-03-05T20:44:29.144Z</time>
      </trkpt>
      <trkpt lat="52.175000" lon="5.747300">
        <ele>26.584219</ele>
        <time>2026-03-05T20:44:39.317Z</time>
      </trkpt>
      <trkpt lat="52.175971" lon="5.749906">
        <ele>27.233590</ele>
        <time>2026-03-05T20:45:03.974Z</time>
      </trkpt>
      <trkpt lat="52.177129" lon="5.752982">
        <ele>28.445391</ele>
        <time>2026-03-05T20:45:33.315Z</time>
      </trkpt>
      <trkpt lat="52.177455" lon="5.753706">
        <ele>28.918464</ele>
        <time>2026-03-05T20:45:41.957Z</time>
      </trkpt>
      <trkpt lat="52.177609" lon="5.753976">
        <ele>29.145630</ele>
        <time>2026-03-05T20:45:45.617Z</time>
      </trkpt>
      <trkpt lat="52.177810" lon="5.754231">
        <ele>29.401473</ele>
        <time>2026-03-05T20:45:49.728Z</time>
      </trkpt>
      <trkpt lat="52.178145" lon="5.754536">
        <ele>29.786925</ele>
        <time>2026-03-05T20:45:55.934Z</time>
      </trkpt>
      <trkpt lat="52.178210" lon="5.754660">
        <ele>29.887423</ele>
        <time>2026-03-05T20:45:57.538Z</time>
      </trkpt>
      <trkpt lat="52.179184" lon="5.758877">
        <ele>31.183954</ele>
        <time>2026-03-05T20:46:34.620Z</time>
      </trkpt>
      <trkpt lat="52.179527" lon="5.760307">
        <ele>31.083172</ele>
        <time>2026-03-05T20:46:45.049Z</time>
      </trkpt>
      <trkpt lat="52.179685" lon="5.761181">
        <ele>30.940036</ele>
        <time>2026-03-05T20:46:50.982Z</time>
      </trkpt>
      <trkpt lat="52.179915" lon="5.762448">
        <ele>30.483041</ele>
        <time>2026-03-05T20:46:59.613Z</time>
      </trkpt>
      <trkpt lat="52.180061" lon="5.763391">
        <ele>30.146668</ele>
        <time>2026-03-05T20:47:05.759Z</time>
      </trkpt>
      <trkpt lat="52.180092" lon="5.763725">
        <ele>30.029838</ele>
        <time>2026-03-05T20:47:07.888Z</time>
      </trkpt>
      <trkpt lat="52.180106" lon="5.764729">
        <ele>29.631553</ele>
        <time>2026-03-05T20:47:14.200Z</time>
      </trkpt>
      <trkpt lat="52.180177" lon="5.765417">
        <ele>29.354712</ele>
        <time>2026-03-05T20:47:18.539Z</time>
      </trkpt>
      <trkpt lat="52.180206" lon="5.765476">
        <ele>29.324707</ele>
        <time>2026-03-05T20:47:19.007Z</time>
      </trkpt>
      <trkpt lat="52.180636" lon="5.766169">
        <ele>28.933494</ele>
        <time>2026-03-05T20:47:25.204Z</time>
      </trkpt>
      <trkpt lat="52.180831" lon="5.766420">
        <ele>28.863015</ele>
        <time>2026-03-05T20:47:27.774Z</time>
      </trkpt>
      <trkpt lat="52.181846" lon="5.767442">
        <ele>28.850906</ele>
        <time>2026-03-05T20:47:41.411Z</time>
      </trkpt>
      <trkpt lat="52.182632" lon="5.768248">
        <ele>29.139683</ele>
        <time>2026-03-05T20:47:54.267Z</time>
      </trkpt>
      <trkpt lat="52.183110" lon="5.768730">
        <ele>29.494836</ele>
        <time>2026-03-05T20:48:02.369Z</time>
      </trkpt>
      <trkpt lat="52.184138" lon="5.769447">
        <ele>30.174477</ele>
        <time>2026-03-05T20:48:17.867Z</time>
      </trkpt>
      <trkpt lat="52.184430" lon="5.769696">
        <ele>30.357051</ele>
        <time>2026-03-05T20:48:22.315Z</time>
      </trkpt>
      <trkpt lat="52.184771" lon="5.770109">
        <ele>30.592394</ele>
        <time>2026-03-05T20:48:28.208Z</time>
      </trkpt>
      <trkpt lat="52.184921" lon="5.770256">
        <ele>30.689357</ele>
        <time>2026-03-05T20:48:30.610Z</time>
      </trkpt>
      <trkpt lat="52.185666" lon="5.770679">
        <ele>31.066391</ele>
        <time>2026-03-05T20:48:41.013Z</time>
      </trkpt>
      <trkpt lat="52.186354" lon="5.770901">
        <ele>31.296182</ele>
        <time>2026-03-05T20:48:49.848Z</time>
      </trkpt>
      <trkpt lat="52.186670" lon="5.771092">
        <ele>31.406600</ele>
        <time>2026-03-05T20:48:54.179Z</time>
      </trkpt>
      <trkpt lat="52.187020" lon="5.771400">
        <ele>31.536902</ele>
        <time>2026-03-05T20:48:59.323Z</time>
      </trkpt>
      <trkpt lat="52.187549" lon="5.772217">
        <ele>31.718110</ele>
        <time>2026-03-05T20:49:09.021Z</time>
      </trkpt>
      <trkpt lat="52.187637" lon="5.772445">
        <ele>31.757184</ele>
        <time>2026-03-05T20:49:11.122Z</time>
      </trkpt>
      <trkpt lat="52.187676" lon="5.772633">
        <ele>31.785968</ele>
        <time>2026-03-05T20:49:12.672Z</time>
      </trkpt>
      <trkpt lat="52.187710" lon="5.772901">
        <ele>31.825660</ele>
        <time>2026-03-05T20:49:14.793Z</time>
      </trkpt>
      <trkpt lat="52.187749" lon="5.773327">
        <ele>31.888128</ele>
        <time>2026-03-05T20:49:18.142Z</time>
      </trkpt>
      <trkpt lat="52.187762" lon="5.773577">
        <ele>31.924515</ele>
        <time>2026-03-05T20:49:20.040Z</time>
      </trkpt>
      <trkpt lat="52.187783" lon="5.773895">
        <ele>31.970901</ele>
        <time>2026-03-05T20:49:22.389Z</time>
      </trkpt>
      <trkpt lat="52.187860" lon="5.775070">
        <ele>32.052871</ele>
        <time>2026-03-05T20:49:30.705Z</time>
      </trkpt>
      <trkpt lat="52.188044" lon="5.776638">
        <ele>32.144515</ele>
        <time>2026-03-05T20:49:42.308Z</time>
      </trkpt>
      <trkpt lat="52.188262" lon="5.778273">
        <ele>32.711879</ele>
        <time>2026-03-05T20:49:56.283Z</time>
      </trkpt>
      <trkpt lat="52.188376" lon="5.778903">
        <ele>32.977856</ele>
        <time>2026-03-05T20:50:02.251Z</time>
      </trkpt>
      <trkpt lat="52.188538" lon="5.779613">
        <ele>33.284611</ele>
        <time>2026-03-05T20:50:09.046Z</time>
      </trkpt>
      <trkpt lat="52.188759" lon="5.780335">
        <ele>33.598085</ele>
        <time>2026-03-05T20:50:16.070Z</time>
      </trkpt>
      <trkpt lat="52.188843" lon="5.780544">
        <ele>33.694119</ele>
        <time>2026-03-05T20:50:18.218Z</time>
      </trkpt>
      <trkpt lat="52.188969" lon="5.780755">
        <ele>33.807309</ele>
        <time>2026-03-05T20:50:20.718Z</time>
      </trkpt>
      <trkpt lat="52.189026" lon="5.780833">
        <ele>33.853945</ele>
        <time>2026-03-05T20:50:21.738Z</time>
      </trkpt>
      <trkpt lat="52.188946" lon="5.780973">
        <ele>33.927490</ele>
        <time>2026-03-05T20:50:23.304Z</time>
      </trkpt>
      <trkpt lat="52.188927" lon="5.781065">
        <ele>33.964795</ele>
        <time>2026-03-05T20:50:24.091Z</time>
      </trkpt>
      <trkpt lat="52.188946" lon="5.781257">
        <ele>34.039531</ele>
        <time>2026-03-05T20:50:25.632Z</time>
      </trkpt>
      <trkpt lat="52.189054" lon="5.781828">
        <ele>34.269157</ele>
        <time>2026-03-05T20:50:30.440Z</time>
      </trkpt>
      <trkpt lat="52.190179" lon="5.788005">
        <ele>37.074903</ele>
        <time>2026-03-05T20:51:26.908Z</time>
      </trkpt>
      <trkpt lat="52.190691" lon="5.790822">
        <ele>37.575792</ele>
        <time>2026-03-05T20:51:49.492Z</time>
      </trkpt>
      <trkpt lat="52.190764" lon="5.791081">
        <ele>37.636882</ele>
        <time>2026-03-05T20:51:51.574Z</time>
      </trkpt>
      <trkpt lat="52.190937" lon="5.791470">
        <ele>37.739872</ele>
        <time>2026-03-05T20:51:55.203Z</time>
      </trkpt>
      <trkpt lat="52.191278" lon="5.791955">
        <ele>37.898026</ele>
        <time>2026-03-05T20:52:01.060Z</time>
      </trkpt>
      <trkpt lat="52.191379" lon="5.792174">
        <ele>37.956756</ele>
        <time>2026-03-05T20:52:03.297Z</time>
      </trkpt>
      <trkpt lat="52.191435" lon="5.792391">
        <ele>38.007211</ele>
        <time>2026-03-05T20:52:05.210Z</time>
      </trkpt>
      <trkpt lat="52.191629" lon="5.793742">
        <ele>38.330051</ele>
        <time>2026-03-05T20:52:16.776Z</time>
      </trkpt>
      <trkpt lat="52.191860" lon="5.795261">
        <ele>38.744703</ele>
        <time>2026-03-05T20:52:29.202Z</time>
      </trkpt>
      <trkpt lat="52.191973" lon="5.796189">
        <ele>39.008652</ele>
        <time>2026-03-05T20:52:36.855Z</time>
      </trkpt>
      <trkpt lat="52.192240" lon="5.798412">
        <ele>39.983432</ele>
        <time>2026-03-05T20:52:56.731Z</time>
      </trkpt>
      <trkpt lat="52.192489" lon="5.800033">
        <ele>40.637165</ele>
        <time>2026-03-05T20:53:11.038Z</time>
      </trkpt>
      <trkpt lat="52.192963" lon="5.801426">
        <ele>41.226537</ele>
        <time>2026-03-05T20:53:24.551Z</time>
      </trkpt>
      <trkpt lat="52.193042" lon="5.801643">
        <ele>41.319899</ele>
        <time>2026-03-05T20:53:27.388Z</time>
      </trkpt>
      <trkpt lat="52.193065" lon="5.801682">
        <ele>41.328027</ele>
        <time>2026-03-05T20:53:27.864Z</time>
      </trkpt>
      <trkpt lat="52.192955" lon="5.801813">
        <ele>41.355371</ele>
        <time>2026-03-05T20:53:29.752Z</time>
      </trkpt>
      <trkpt lat="52.190838" lon="5.804477">
        <ele>41.759840</ele>
        <time>2026-03-05T20:54:02.470Z</time>
      </trkpt>
      <trkpt lat="52.190722" lon="5.804628">
        <ele>41.770765</ele>
        <time>2026-03-05T20:54:04.289Z</time>
      </trkpt>
      <trkpt lat="52.187638" lon="5.808502">
        <ele>41.755837</ele>
        <time>2026-03-05T20:54:50.870Z</time>
      </trkpt>
      <trkpt lat="52.186451" lon="5.809988">
        <ele>41.199427</ele>
        <time>2026-03-05T20:55:06.907Z</time>
      </trkpt>
      <trkpt lat="52.186371" lon="5.810094">
        <ele>41.152869</ele>
        <time>2026-03-05T20:55:07.995Z</time>
      </trkpt>
      <trkpt lat="52.186327" lon="5.810152">
        <ele>41.127314</ele>
        <time>2026-03-05T20:55:08.592Z</time>
      </trkpt>
      <trkpt lat="52.186328" lon="5.810207">
        <ele>41.112075</ele>
        <time>2026-03-05T20:55:08.949Z</time>
      </trkpt>
      <trkpt lat="52.186238" lon="5.810331">
        <ele>41.058858</ele>
        <time>2026-03-05T20:55:10.187Z</time>
      </trkpt>
      <trkpt lat="52.184886" lon="5.812031">
        <ele>40.180573</ele>
        <time>2026-03-05T20:55:27.927Z</time>
      </trkpt>
      <trkpt lat="52.183794" lon="5.813387">
        <ele>39.948489</ele>
        <time>2026-03-05T20:55:42.927Z</time>
      </trkpt>
      <trkpt lat="52.183568" lon="5.813630">
        <ele>39.942257</ele>
        <time>2026-03-05T20:55:46.244Z</time>
      </trkpt>
      <trkpt lat="52.183181" lon="5.813972">
        <ele>39.932124</ele>
        <time>2026-03-05T20:55:52.040Z</time>
      </trkpt>
      <trkpt lat="52.182826" lon="5.814221">
        <ele>39.990986</ele>
        <time>2026-03-05T20:55:57.414Z</time>
      </trkpt>
      <trkpt lat="52.182452" lon="5.814418">
        <ele>40.079053</ele>
        <time>2026-03-05T20:56:02.942Z</time>
      </trkpt>
      <trkpt lat="52.182081" lon="5.814561">
        <ele>40.164476</ele>
        <time>2026-03-05T20:56:08.113Z</time>
      </trkpt>
      <trkpt lat="52.181664" lon="5.814661">
        <ele>40.258921</ele>
        <time>2026-03-05T20:56:13.336Z</time>
      </trkpt>
      <trkpt lat="52.181303" lon="5.814721">
        <ele>40.307833</ele>
        <time>2026-03-05T20:56:17.357Z</time>
      </trkpt>
      <trkpt lat="52.180413" lon="5.814875">
        <ele>39.659803</ele>
        <time>2026-03-05T20:56:26.276Z</time>
      </trkpt>
      <trkpt lat="52.179049" lon="5.815093">
        <ele>38.856061</ele>
        <time>2026-03-05T20:56:40.049Z</time>
      </trkpt>
      <trkpt lat="52.177849" lon="5.815287">
        <ele>38.436843</ele>
        <time>2026-03-05T20:56:53.694Z</time>
      </trkpt>
      <trkpt lat="52.174604" lon="5.815831">
        <ele>38.324051</ele>
        <time>2026-03-05T20:57:31.612Z</time>
      </trkpt>
      <trkpt lat="52.174354" lon="5.815954">
        <ele>38.342687</ele>
        <time>2026-03-05T20:57:34.911Z</time>
      </trkpt>
      <trkpt lat="52.174098" lon="5.816155">
        <ele>38.450681</ele>
        <time>2026-03-05T20:57:38.598Z</time>
      </trkpt>
      <trkpt lat="52.173803" lon="5.816465">
        <ele>38.735783</ele>
        <time>2026-03-05T20:57:43.475Z</time>
      </trkpt>
      <trkpt lat="52.173620" lon="5.816703">
        <ele>38.925941</ele>
        <time>2026-03-05T20:57:47.005Z</time>
      </trkpt>
      <trkpt lat="52.173355" lon="5.817127">
        <ele>39.227546</ele>
        <time>2026-03-05T20:57:52.694Z</time>
      </trkpt>
      <trkpt lat="52.173193" lon="5.817593">
        <ele>39.494415</ele>
        <time>2026-03-05T20:57:57.618Z</time>
      </trkpt>
      <trkpt lat="52.173165" lon="5.817717">
        <ele>39.560247</ele>
        <time>2026-03-05T20:57:58.817Z</time>
      </trkpt>
      <trkpt lat="52.173113" lon="5.818290">
        <ele>39.843053</ele>
        <time>2026-03-05T20:58:05.573Z</time>
      </trkpt>
      <trkpt lat="52.173121" lon="5.818765">
        <ele>40.038548</ele>
        <time>2026-03-05T20:58:11.141Z</time>
      </trkpt>
      <trkpt lat="52.173354" lon="5.820431">
        <ele>40.741561</ele>
        <time>2026-03-05T20:58:30.131Z</time>
      </trkpt>
      <trkpt lat="52.173594" lon="5.820352">
        <ele>40.905812</ele>
        <time>2026-03-05T20:58:34.433Z</time>
      </trkpt>
      <trkpt lat="52.173556" lon="5.820066">
        <ele>41.027646</ele>
        <time>2026-03-05T20:58:37.618Z</time>
      </trkpt>
      <trkpt lat="52.173594" lon="5.820352">
        <ele>41.192326</ele>
        <time>2026-03-05T20:58:40.857Z</time>
      </trkpt>
      <trkpt lat="52.173716" lon="5.821278">
        <ele>41.725317</ele>
        <time>2026-03-05T20:58:51.604Z</time>
      </trkpt>
      <trkpt lat="52.173919" lon="5.822785">
        <ele>42.593588</ele>
        <time>2026-03-05T20:59:10.029Z</time>
      </trkpt>
      <trkpt lat="52.174048" lon="5.823759">
        <ele>43.373154</ele>
        <time>2026-03-05T20:59:22.625Z</time>
      </trkpt>
      <trkpt lat="52.174122" lon="5.824338">
        <ele>43.857209</ele>
        <time>2026-03-05T20:59:30.223Z</time>
      </trkpt>
      <trkpt lat="52.174202" lon="5.824967">
        <ele>44.382957</ele>
        <time>2026-03-05T20:59:38.527Z</time>
      </trkpt>
      <trkpt lat="52.174279" lon="5.825581">
        <ele>44.895873</ele>
        <time>2026-03-05T20:59:46.607Z</time>
      </trkpt>
      <trkpt lat="52.174312" lon="5.825832">
        <ele>45.087596</ele>
        <time>2026-03-05T20:59:49.790Z</time>
      </trkpt>
      <trkpt lat="52.174321" lon="5.825898">
        <ele>45.111971</ele>
        <time>2026-03-05T20:59:50.612Z</time>
      </trkpt>
      <trkpt lat="52.174493" lon="5.827206">
        <ele>45.594251</ele>
        <time>2026-03-05T21:00:05.699Z</time>
      </trkpt>
      <trkpt lat="52.174510" lon="5.827349">
        <ele>45.646765</ele>
        <time>2026-03-05T21:00:07.261Z</time>
      </trkpt>
      <trkpt lat="52.174538" lon="5.827568">
        <ele>45.727416</ele>
        <time>2026-03-05T21:00:09.622Z</time>
      </trkpt>
      <trkpt lat="52.174714" lon="5.828661">
        <ele>46.140835</ele>
        <time>2026-03-05T21:00:21.295Z</time>
      </trkpt>
      <trkpt lat="52.174891" lon="5.829292">
        <ele>46.740016</ele>
        <time>2026-03-05T21:00:28.605Z</time>
      </trkpt>
      <trkpt lat="52.175077" lon="5.829766">
        <ele>47.225948</ele>
        <time>2026-03-05T21:00:35.059Z</time>
      </trkpt>
      <trkpt lat="52.175438" lon="5.830432">
        <ele>47.993501</ele>
        <time>2026-03-05T21:00:46.553Z</time>
      </trkpt>
      <trkpt lat="52.175708" lon="5.830866">
        <ele>48.527346</ele>
        <time>2026-03-05T21:00:55.428Z</time>
      </trkpt>
      <trkpt lat="52.176823" lon="5.832741">
        <ele>53.105146</ele>
        <time>2026-03-05T21:01:37.186Z</time>
      </trkpt>
      <trkpt lat="52.176883" lon="5.833016">
        <ele>53.633374</ele>
        <time>2026-03-05T21:01:41.871Z</time>
      </trkpt>
      <trkpt lat="52.177033" lon="5.833097">
        <ele>54.086520</ele>
        <time>2026-03-05T21:01:45.967Z</time>
      </trkpt>
      <trkpt lat="52.177194" lon="5.833352">
        <ele>54.681041</ele>
        <time>2026-03-05T21:01:51.720Z</time>
      </trkpt>
      <trkpt lat="52.177329" lon="5.833548">
        <ele>55.159834</ele>
        <time>2026-03-05T21:01:56.253Z</time>
      </trkpt>
      <trkpt lat="52.177601" lon="5.833830">
        <ele>56.013622</ele>
        <time>2026-03-05T21:02:04.224Z</time>
      </trkpt>
      <trkpt lat="52.177829" lon="5.834041">
        <ele>56.708047</ele>
        <time>2026-03-05T21:02:10.632Z</time>
      </trkpt>
      <trkpt lat="52.177986" lon="5.834236">
        <ele>57.230813</ele>
        <time>2026-03-05T21:02:15.377Z</time>
      </trkpt>
      <trkpt lat="52.178379" lon="5.834816">
        <ele>58.634845</ele>
        <time>2026-03-05T21:02:27.989Z</time>
      </trkpt>
      <trkpt lat="52.180580" lon="5.838227">
        <ele>66.274923</ele>
        <time>2026-03-05T21:03:41.418Z</time>
      </trkpt>
      <trkpt lat="52.180664" lon="5.838358">
        <ele>66.573098</ele>
        <time>2026-03-05T21:03:44.348Z</time>
      </trkpt>
      <trkpt lat="52.182613" lon="5.841412">
        <ele>73.507683</ele>
        <time>2026-03-05T21:04:51.428Z</time>
      </trkpt>
      <trkpt lat="52.183394" lon="5.843580">
        <ele>76.668754</ele>
        <time>2026-03-05T21:05:25.563Z</time>
      </trkpt>
      <trkpt lat="52.183676" lon="5.844407">
        <ele>77.467711</ele>
        <time>2026-03-05T21:05:39.158Z</time>
      </trkpt>
      <trkpt lat="52.183796" lon="5.844979">
        <ele>77.978138</ele>
        <time>2026-03-05T21:05:47.146Z</time>
      </trkpt>
      <trkpt lat="52.183830" lon="5.845374">
        <ele>78.314906</ele>
        <time>2026-03-05T21:05:51.184Z</time>
      </trkpt>
      <trkpt lat="52.185156" lon="5.845179">
        <ele>78.298330</ele>
        <time>2026-03-05T21:06:06.962Z</time>
      </trkpt>
      <trkpt lat="52.185906" lon="5.845069">
        <ele>77.774690</ele>
        <time>2026-03-05T21:06:14.009Z</time>
      </trkpt>
      <trkpt lat="52.189899" lon="5.844464">
        <ele>70.873612</ele>
        <time>2026-03-05T21:06:50.079Z</time>
      </trkpt>
      <trkpt lat="52.190144" lon="5.844432">
        <ele>70.389673</ele>
        <time>2026-03-05T21:06:52.143Z</time>
      </trkpt>
      <trkpt lat="52.191643" lon="5.844203">
        <ele>67.790688</ele>
        <time>2026-03-05T21:07:05.176Z</time>
      </trkpt>
      <trkpt lat="52.191729" lon="5.844191">
        <ele>67.769067</ele>
        <time>2026-03-05T21:07:06.049Z</time>
      </trkpt>
      <trkpt lat="52.193999" lon="5.843819">
        <ele>67.267945</ele>
        <time>2026-03-05T21:07:44.628Z</time>
      </trkpt>
      <trkpt lat="52.194203" lon="5.843750">
        <ele>67.234510</ele>
        <time>2026-03-05T21:07:47.989Z</time>
      </trkpt>
      <trkpt lat="52.194407" lon="5.843624">
        <ele>67.199504</ele>
        <time>2026-03-05T21:07:51.452Z</time>
      </trkpt>
      <trkpt lat="52.194920" lon="5.843239">
        <ele>67.108882</ele>
        <time>2026-03-05T21:07:59.908Z</time>
      </trkpt>
      <trkpt lat="52.195616" lon="5.842880">
        <ele>65.937804</ele>
        <time>2026-03-05T21:08:09.892Z</time>
      </trkpt>
      <trkpt lat="52.198138" lon="5.841995">
        <ele>60.560173</ele>
        <time>2026-03-05T21:08:42.029Z</time>
      </trkpt>
      <trkpt lat="52.198514" lon="5.841520">
        <ele>59.316719</ele>
        <time>2026-03-05T21:08:47.564Z</time>
      </trkpt>
      <trkpt lat="52.199315" lon="5.839466">
        <ele>54.794244</ele>
        <time>2026-03-05T21:09:04.978Z</time>
      </trkpt>
      <trkpt lat="52.199584" lon="5.838757">
        <ele>53.456936</ele>
        <time>2026-03-05T21:09:11.189Z</time>
      </trkpt>
      <trkpt lat="52.199625" lon="5.838648">
        <ele>53.264610</ele>
        <time>2026-03-05T21:09:12.143Z</time>
      </trkpt>
      <trkpt lat="52.199723" lon="5.838394">
        <ele>52.813252</ele>
        <time>2026-03-05T21:09:14.417Z</time>
      </trkpt>
      <trkpt lat="52.200297" lon="5.836859">
        <ele>50.109159</ele>
        <time>2026-03-05T21:09:27.934Z</time>
      </trkpt>
      <trkpt lat="52.200321" lon="5.836792">
        <ele>49.992456</ele>
        <time>2026-03-05T21:09:28.338Z</time>
      </trkpt>
      <trkpt lat="52.200426" lon="5.836601">
        <ele>49.689007</ele>
        <time>2026-03-05T21:09:29.664Z</time>
      </trkpt>
      <trkpt lat="52.200538" lon="5.836541">
        <ele>49.470494</ele>
        <time>2026-03-05T21:09:30.663Z</time>
      </trkpt>
      <trkpt lat="52.200701" lon="5.836581">
        <ele>49.164951</ele>
        <time>2026-03-05T21:09:32.079Z</time>
      </trkpt>
      <trkpt lat="52.200792" lon="5.836584">
        <ele>48.996235</ele>
        <time>2026-03-05T21:09:32.864Z</time>
      </trkpt>
      <trkpt lat="52.200849" lon="5.836563">
        <ele>48.887917</ele>
        <time>2026-03-05T21:09:33.367Z</time>
      </trkpt>
      <trkpt lat="52.201003" lon="5.836486">
        <ele>48.589353</ele>
        <time>2026-03-05T21:09:34.772Z</time>
      </trkpt>
      <trkpt lat="52.201069" lon="5.836438">
        <ele>48.455409</ele>
        <time>2026-03-05T21:09:35.411Z</time>
      </trkpt>
      <trkpt lat="52.201639" lon="5.834977">
        <ele>46.534768</ele>
        <time>2026-03-05T21:09:45.091Z</time>
      </trkpt>
      <trkpt lat="52.203004" lon="5.831474">
        <ele>44.009092</ele>
        <time>2026-03-05T21:10:09.706Z</time>
      </trkpt>
      <trkpt lat="52.203252" lon="5.830783">
        <ele>43.674954</ele>
        <time>2026-03-05T21:10:14.691Z</time>
      </trkpt>
      <trkpt lat="52.206040" lon="5.823494">
        <ele>43.350459</ele>
        <time>2026-03-05T21:11:17.051Z</time>
      </trkpt>
      <trkpt lat="52.207372" lon="5.820026">
        <ele>43.479719</ele>
        <time>2026-03-05T21:11:47.797Z</time>
      </trkpt>
      <trkpt lat="52.208412" lon="5.818486">
        <ele>43.326771</ele>
        <time>2026-03-05T21:12:02.918Z</time>
      </trkpt>
      <trkpt lat="52.210285" lon="5.815962">
        <ele>44.636067</ele>
        <time>2026-03-05T21:12:36.351Z</time>
      </trkpt>
      <trkpt lat="52.211028" lon="5.814905">
        <ele>45.668311</ele>
        <time>2026-03-05T21:12:50.114Z</time>
      </trkpt>
      <trkpt lat="52.211027" lon="5.814860">
        <ele>45.697207</ele>
        <time>2026-03-05T21:12:50.507Z</time>
      </trkpt>
      <trkpt lat="52.211090" lon="5.814832">
        <ele>45.765587</ele>
        <time>2026-03-05T21:12:54.891Z</time>
      </trkpt>
      <trkpt lat="52.213581" lon="5.813742">
        <ele>50.933743</ele>
        <time>2026-03-05T21:15:57.035Z</time>
      </trkpt>
      <trkpt lat="52.215448" lon="5.812927">
        <ele>54.759685</ele>
        <time>2026-03-05T21:18:14.187Z</time>
      </trkpt>
      <trkpt lat="52.215821" lon="5.812912">
        <ele>55.192448</ele>
        <time>2026-03-05T21:18:39.476Z</time>
      </trkpt>
      <trkpt lat="52.216326" lon="5.812693">
        <ele>55.798506</ele>
        <time>2026-03-05T21:19:13.960Z</time>
      </trkpt>
      <trkpt lat="52.216803" lon="5.812731">
        <ele>56.234785</ele>
        <time>2026-03-05T21:19:44.594Z</time>
      </trkpt>
      <trkpt lat="52.219188" lon="5.813712">
        <ele>55.854499</ele>
        <time>2026-03-05T21:22:18.903Z</time>
      </trkpt>
      <trkpt lat="52.222127" lon="5.814920">
        <ele>56.746955</ele>
        <time>2026-03-05T21:25:32.154Z</time>
      </trkpt>
      <trkpt lat="52.222161" lon="5.814925">
        <ele>56.842463</ele>
        <time>2026-03-05T21:25:34.503Z</time>
      </trkpt>
      <trkpt lat="52.222267" lon="5.814957">
        <ele>57.144052</ele>
        <time>2026-03-05T21:25:41.874Z</time>
      </trkpt>
      <trkpt lat="52.222328" lon="5.814966">
        <ele>57.315409</ele>
        <time>2026-03-05T21:25:43.213Z</time>
      </trkpt>
      <trkpt lat="52.222683" lon="5.824851">
        <ele>74.809260</ele>
        <time>2026-03-05T21:27:53.660Z</time>
      </trkpt>
      <trkpt lat="52.222706" lon="5.825522">
        <ele>76.165188</ele>
        <time>2026-03-05T21:28:03.016Z</time>
      </trkpt>
      <trkpt lat="52.222764" lon="5.827186">
        <ele>80.237527</ele>
        <time>2026-03-05T21:28:27.737Z</time>
      </trkpt>
      <trkpt lat="52.222891" lon="5.828682">
        <ele>84.237646</ele>
        <time>2026-03-05T21:28:52.723Z</time>
      </trkpt>
      <trkpt lat="52.223048" lon="5.829772">
        <ele>86.865118</ele>
        <time>2026-03-05T21:29:11.092Z</time>
      </trkpt>
      <trkpt lat="52.223260" lon="5.830894">
        <ele>89.489835</ele>
        <time>2026-03-05T21:29:28.691Z</time>
      </trkpt>
      <trkpt lat="52.223675" lon="5.832502">
        <ele>92.351816</ele>
        <time>2026-03-05T21:29:49.747Z</time>
      </trkpt>
      <trkpt lat="52.225358" lon="5.837676">
        <ele>95.520512</ele>
        <time>2026-03-05T21:30:45.198Z</time>
      </trkpt>
      <trkpt lat="52.225423" lon="5.837619">
        <ele>95.410127</ele>
        <time>2026-03-05T21:30:45.912Z</time>
      </trkpt>
      <trkpt lat="52.225475" lon="5.837574">
        <ele>95.322078</ele>
        <time>2026-03-05T21:30:46.483Z</time>
      </trkpt>
      <trkpt lat="52.225549" lon="5.837514">
        <ele>95.198468</ele>
        <time>2026-03-05T21:30:47.253Z</time>
      </trkpt>
      <trkpt lat="52.225852" lon="5.837433">
        <ele>94.739128</ele>
        <time>2026-03-05T21:30:50.001Z</time>
      </trkpt>
      <trkpt lat="52.226256" lon="5.836997">
        <ele>94.014597</ele>
        <time>2026-03-05T21:30:54.047Z</time>
      </trkpt>
      <trkpt lat="52.226658" lon="5.836361">
        <ele>92.696685</ele>
        <time>2026-03-05T21:30:58.489Z</time>
      </trkpt>
      <trkpt lat="52.227155" lon="5.835753">
        <ele>90.574002</ele>
        <time>2026-03-05T21:31:03.359Z</time>
      </trkpt>
      <trkpt lat="52.227435" lon="5.835358">
        <ele>89.309205</ele>
        <time>2026-03-05T21:31:06.283Z</time>
      </trkpt>
      <trkpt lat="52.227618" lon="5.835030">
        <ele>88.380363</ele>
        <time>2026-03-05T21:31:08.469Z</time>
      </trkpt>
      <trkpt lat="52.227822" lon="5.834721">
        <ele>87.429240</ele>
        <time>2026-03-05T21:31:10.750Z</time>
      </trkpt>
      <trkpt lat="52.228039" lon="5.834595">
        <ele>87.104148</ele>
        <time>2026-03-05T21:31:12.676Z</time>
      </trkpt>
      <trkpt lat="52.228337" lon="5.834514">
        <ele>86.698168</ele>
        <time>2026-03-05T21:31:15.264Z</time>
      </trkpt>
      <trkpt lat="52.233464" lon="5.832017">
        <ele>79.583414</ele>
        <time>2026-03-05T21:32:07.087Z</time>
      </trkpt>
      <trkpt lat="52.233757" lon="5.831702">
        <ele>78.857760</ele>
        <time>2026-03-05T21:32:10.173Z</time>
      </trkpt>
      <trkpt lat="52.233838" lon="5.831249">
        <ele>78.259921</ele>
        <time>2026-03-05T21:32:15.328Z</time>
      </trkpt>
      <trkpt lat="52.233920" lon="5.830794">
        <ele>77.659070</ele>
        <time>2026-03-05T21:32:20.416Z</time>
      </trkpt>
      <trkpt lat="52.234099" lon="5.829713">
        <ele>76.055470</ele>
        <time>2026-03-05T21:32:32.196Z</time>
      </trkpt>
      <trkpt lat="52.234426" lon="5.827340">
        <ele>72.045390</ele>
        <time>2026-03-05T21:32:57.892Z</time>
      </trkpt>
      <trkpt lat="52.234911" lon="5.824269">
        <ele>68.260825</ele>
        <time>2026-03-05T21:33:33.756Z</time>
      </trkpt>
      <trkpt lat="52.235090" lon="5.823136">
        <ele>66.555303</ele>
        <time>2026-03-05T21:33:46.706Z</time>
      </trkpt>
      <trkpt lat="52.235166" lon="5.822494">
        <ele>65.602208</ele>
        <time>2026-03-05T21:33:53.756Z</time>
      </trkpt>
      <trkpt lat="52.235177" lon="5.821641">
        <ele>64.358609</ele>
        <time>2026-03-05T21:34:02.791Z</time>
      </trkpt>
      <trkpt lat="52.234946" lon="5.814639">
        <ele>51.813198</ele>
        <time>2026-03-05T21:35:16.477Z</time>
      </trkpt>
      <trkpt lat="52.234910" lon="5.813496">
        <ele>49.771418</ele>
        <time>2026-03-05T21:35:28.459Z</time>
      </trkpt>
      <trkpt lat="52.234939" lon="5.812631">
        <ele>48.310832</ele>
        <time>2026-03-05T21:35:37.608Z</time>
      </trkpt>
      <trkpt lat="52.234995" lon="5.812174">
        <ele>47.716398</ele>
        <time>2026-03-05T21:35:42.549Z</time>
      </trkpt>
      <trkpt lat="52.235101" lon="5.811769">
        <ele>47.154646</ele>
        <time>2026-03-05T21:35:47.243Z</time>
      </trkpt>
      <trkpt lat="52.235275" lon="5.811360">
        <ele>46.519475</ele>
        <time>2026-03-05T21:35:52.640Z</time>
      </trkpt>
      <trkpt lat="52.235829" lon="5.810441">
        <ele>44.874767</ele>
        <time>2026-03-05T21:36:07.321Z</time>
      </trkpt>
      <trkpt lat="52.236599" lon="5.809162">
        <ele>43.931278</ele>
        <time>2026-03-05T21:36:29.490Z</time>
      </trkpt>
      <trkpt lat="52.236751" lon="5.808845">
        <ele>43.732843</ele>
        <time>2026-03-05T21:36:34.721Z</time>
      </trkpt>
      <trkpt lat="52.236810" lon="5.808680">
        <ele>43.638672</ele>
        <time>2026-03-05T21:36:37.187Z</time>
      </trkpt>
      <trkpt lat="52.238059" lon="5.804936">
        <ele>41.749852</ele>
        <time>2026-03-05T21:37:30.354Z</time>
      </trkpt>
      <trkpt lat="52.242982" lon="5.790177">
        <ele>33.682464</ele>
        <time>2026-03-05T21:40:57.980Z</time>
      </trkpt>
      <trkpt lat="52.243407" lon="5.788982">
        <ele>33.337163</ele>
        <time>2026-03-05T21:41:15.687Z</time>
      </trkpt>
      <trkpt lat="52.244792" lon="5.784850">
        <ele>32.419255</ele>
        <time>2026-03-05T21:42:17.540Z</time>
      </trkpt>
      <trkpt lat="52.244996" lon="5.784179">
        <ele>32.202691</ele>
        <time>2026-03-05T21:42:27.138Z</time>
      </trkpt>
      <trkpt lat="52.245140" lon="5.783703">
        <ele>32.049213</ele>
        <time>2026-03-05T21:42:33.856Z</time>
      </trkpt>
      <trkpt lat="52.246040" lon="5.780964">
        <ele>31.522428</ele>
        <time>2026-03-05T21:43:13.525Z</time>
      </trkpt>
      <trkpt lat="52.246762" lon="5.778873">
        <ele>31.602091</ele>
        <time>2026-03-05T21:43:48.181Z</time>
      </trkpt>
      <trkpt lat="52.246766" lon="5.778862">
        <ele>31.603960</ele>
        <time>2026-03-05T21:43:48.363Z</time>
      </trkpt>
      <trkpt lat="52.246791" lon="5.778782">
        <ele>31.617081</ele>
        <time>2026-03-05T21:43:49.698Z</time>
      </trkpt>
      <trkpt lat="52.247371" lon="5.777018">
        <ele>31.834691</ele>
        <time>2026-03-05T21:44:17.662Z</time>
      </trkpt>
      <trkpt lat="52.247491" lon="5.776620">
        <ele>31.717060</ele>
        <time>2026-03-05T21:44:23.530Z</time>
      </trkpt>
      <trkpt lat="52.247719" lon="5.774903">
        <ele>31.251217</ele>
        <time>2026-03-05T21:44:45.883Z</time>
      </trkpt>
      <trkpt lat="52.247740" lon="5.774743">
        <ele>31.207830</ele>
        <time>2026-03-05T21:44:47.942Z</time>
      </trkpt>
      <trkpt lat="52.247664" lon="5.774188">
        <ele>31.045306</ele>
        <time>2026-03-05T21:44:54.959Z</time>
      </trkpt>
      <trkpt lat="52.247481" lon="5.773517">
        <ele>30.801927</ele>
        <time>2026-03-05T21:45:04.056Z</time>
      </trkpt>
      <trkpt lat="52.246629" lon="5.770663">
        <ele>29.922125</ele>
        <time>2026-03-05T21:45:44.831Z</time>
      </trkpt>
      <trkpt lat="52.246609" lon="5.770598">
        <ele>29.908923</ele>
        <time>2026-03-05T21:45:45.847Z</time>
      </trkpt>
      <trkpt lat="52.246553" lon="5.770404">
        <ele>29.870000</ele>
        <time>2026-03-05T21:45:48.749Z</time>
      </trkpt>
      <trkpt lat="52.246522" lon="5.770016">
        <ele>29.798991</ele>
        <time>2026-03-05T21:45:54.008Z</time>
      </trkpt>
      <trkpt lat="52.246533" lon="5.769657">
        <ele>29.733759</ele>
        <time>2026-03-05T21:45:58.805Z</time>
      </trkpt>
      <trkpt lat="52.246627" lon="5.769117">
        <ele>29.631879</ele>
        <time>2026-03-05T21:46:06.198Z</time>
      </trkpt>
      <trkpt lat="52.246977" lon="5.767854">
        <ele>29.305964</ele>
        <time>2026-03-05T21:46:15.308Z</time>
      </trkpt>
      <trkpt lat="52.247038" lon="5.767629">
        <ele>29.246032</ele>
        <time>2026-03-05T21:46:16.867Z</time>
      </trkpt>
      <trkpt lat="52.248348" lon="5.762922">
        <ele>28.207605</ele>
        <time>2026-03-05T21:46:51.368Z</time>
      </trkpt>
      <trkpt lat="52.248410" lon="5.762630">
        <ele>28.187014</ele>
        <time>2026-03-05T21:46:53.546Z</time>
      </trkpt>
      <trkpt lat="52.248434" lon="5.762358">
        <ele>28.168705</ele>
        <time>2026-03-05T21:46:55.449Z</time>
      </trkpt>
      <trkpt lat="52.248439" lon="5.762048">
        <ele>28.148044</ele>
        <time>2026-03-05T21:46:57.641Z</time>
      </trkpt>
      <trkpt lat="52.248519" lon="5.761807">
        <ele>28.129779</ele>
        <time>2026-03-05T21:46:59.633Z</time>
      </trkpt>
      <trkpt lat="52.248574" lon="5.761707">
        <ele>28.120823</ele>
        <time>2026-03-05T21:47:00.637Z</time>
      </trkpt>
      <trkpt lat="52.248669" lon="5.761579">
        <ele>28.107422</ele>
        <time>2026-03-05T21:47:02.666Z</time>
      </trkpt>
      <trkpt lat="52.249120" lon="5.761608">
        <ele>28.058239</ele>
        <time>2026-03-05T21:47:10.271Z</time>
      </trkpt>
      <trkpt lat="52.249125" lon="5.761263">
        <ele>28.034698</ele>
        <time>2026-03-05T21:47:13.800Z</time>
      </trkpt>
      <trkpt lat="52.249064" lon="5.760752">
        <ele>27.999183</ele>
        <time>2026-03-05T21:47:18.925Z</time>
      </trkpt>
      <trkpt lat="52.248997" lon="5.760375">
        <ele>27.972404</ele>
        <time>2026-03-05T21:47:22.626Z</time>
      </trkpt>
      <trkpt lat="52.248940" lon="5.760302">
        <ele>27.964333</ele>
        <time>2026-03-05T21:47:23.763Z</time>
      </trkpt>
      <trkpt lat="52.248561" lon="5.760072">
        <ele>27.919283</ele>
        <time>2026-03-05T21:47:30.208Z</time>
      </trkpt>
      <trkpt lat="52.248499" lon="5.759959">
        <ele>27.908932</ele>
        <time>2026-03-05T21:47:31.698Z</time>
      </trkpt>
      <trkpt lat="52.248005" lon="5.757949">
        <ele>27.543553</ele>
        <time>2026-03-05T21:47:51.861Z</time>
      </trkpt>
      <trkpt lat="52.247941" lon="5.757881">
        <ele>27.516435</ele>
        <time>2026-03-05T21:47:53.020Z</time>
      </trkpt>
      <trkpt lat="52.247590" lon="5.758078">
        <ele>27.384612</ele>
        <time>2026-03-05T21:47:58.622Z</time>
      </trkpt>
      <trkpt lat="52.247536" lon="5.757990">
        <ele>27.357519</ele>
        <time>2026-03-05T21:47:59.775Z</time>
      </trkpt>
      <trkpt lat="52.246460" lon="5.753318">
        <ele>26.212518</ele>
        <time>2026-03-05T21:48:32.713Z</time>
      </trkpt>
      <trkpt lat="52.246408" lon="5.753147">
        <ele>26.177826</ele>
        <time>2026-03-05T21:48:33.942Z</time>
      </trkpt>
      <trkpt lat="52.246359" lon="5.752688">
        <ele>26.093168</ele>
        <time>2026-03-05T21:48:37.032Z</time>
      </trkpt>
      <trkpt lat="52.246322" lon="5.751755">
        <ele>25.955330</ele>
        <time>2026-03-05T21:48:43.610Z</time>
      </trkpt>
      <trkpt lat="52.246206" lon="5.751960">
        <ele>26.011123</ele>
        <time>2026-03-05T21:48:45.654Z</time>
      </trkpt>
      <trkpt lat="52.246172" lon="5.752030">
        <ele>26.028982</ele>
        <time>2026-03-05T21:48:46.329Z</time>
      </trkpt>
      <trkpt lat="52.246097" lon="5.752173">
        <ele>26.066617</ele>
        <time>2026-03-05T21:48:47.744Z</time>
      </trkpt>
      <trkpt lat="52.246049" lon="5.752209">
        <ele>26.083860</ele>
        <time>2026-03-05T21:48:48.416Z</time>
      </trkpt>
      <trkpt lat="52.245898" lon="5.752380">
        <ele>26.143844</ele>
        <time>2026-03-05T21:48:50.785Z</time>
      </trkpt>
      <trkpt lat="52.245803" lon="5.752542">
        <ele>26.188680</ele>
        <time>2026-03-05T21:48:52.617Z</time>
      </trkpt>
      <trkpt lat="52.245332" lon="5.753515">
        <ele>26.436601</ele>
        <time>2026-03-05T21:49:03.087Z</time>
      </trkpt>
      <trkpt lat="52.245138" lon="5.753917">
        <ele>26.527705</ele>
        <time>2026-03-05T21:49:07.254Z</time>
      </trkpt>
      <trkpt lat="52.244539" lon="5.755223">
        <ele>26.576959</ele>
        <time>2026-03-05T21:49:19.505Z</time>
      </trkpt>
      <trkpt lat="52.243101" lon="5.758535">
        <ele>26.260640</ele>
        <time>2026-03-05T21:49:47.344Z</time>
      </trkpt>
      <trkpt lat="52.242221" lon="5.760488">
        <ele>26.209851</ele>
        <time>2026-03-05T21:50:04.997Z</time>
      </trkpt>
      <trkpt lat="52.241929" lon="5.761053">
        <ele>26.201456</ele>
        <time>2026-03-05T21:50:10.391Z</time>
      </trkpt>
      <trkpt lat="52.240904" lon="5.762658">
        <ele>26.232276</ele>
        <time>2026-03-05T21:50:27.222Z</time>
      </trkpt>
      <trkpt lat="52.240628" lon="5.762946">
        <ele>26.241149</ele>
        <time>2026-03-05T21:50:31.182Z</time>
      </trkpt>
      <trkpt lat="52.240239" lon="5.763426">
        <ele>26.305306</ele>
        <time>2026-03-05T21:50:37.138Z</time>
      </trkpt>
      <trkpt lat="52.240164" lon="5.763518">
        <ele>26.317649</ele>
        <time>2026-03-05T21:50:38.283Z</time>
      </trkpt>
      <trkpt lat="52.236674" lon="5.767798">
        <ele>27.077297</ele>
        <time>2026-03-05T21:51:32.156Z</time>
      </trkpt>
      <trkpt lat="52.236285" lon="5.768276">
        <ele>27.221851</ele>
        <time>2026-03-05T21:51:38.658Z</time>
      </trkpt>
      <trkpt lat="52.234811" lon="5.770042">
        <ele>28.164099</ele>
        <time>2026-03-05T21:52:04.005Z</time>
      </trkpt>
      <trkpt lat="52.234789" lon="5.770066">
        <ele>28.164430</ele>
        <time>2026-03-05T21:52:04.342Z</time>
      </trkpt>
      <trkpt lat="52.234201" lon="5.770695">
        <ele>28.173236</ele>
        <time>2026-03-05T21:52:12.857Z</time>
      </trkpt>
      <trkpt lat="52.234159" lon="5.770775">
        <ele>28.174044</ele>
        <time>2026-03-05T21:52:13.584Z</time>
      </trkpt>
      <trkpt lat="52.234039" lon="5.770888">
        <ele>28.175780</ele>
        <time>2026-03-05T21:52:15.155Z</time>
      </trkpt>
      <trkpt lat="52.232872" lon="5.771664">
        <ele>28.215966</ele>
        <time>2026-03-05T21:52:29.448Z</time>
      </trkpt>
      <trkpt lat="52.232468" lon="5.771959">
        <ele>28.244179</ele>
        <time>2026-03-05T21:52:34.665Z</time>
      </trkpt>
      <trkpt lat="52.232395" lon="5.772086">
        <ele>28.250980</ele>
        <time>2026-03-05T21:52:35.946Z</time>
      </trkpt>
      <trkpt lat="52.232021" lon="5.772325">
        <ele>28.276583</ele>
        <time>2026-03-05T21:52:40.903Z</time>
      </trkpt>
      <trkpt lat="52.231620" lon="5.772605">
        <ele>28.309240</ele>
        <time>2026-03-05T21:52:46.593Z</time>
      </trkpt>
      <trkpt lat="52.231481" lon="5.772680">
        <ele>28.329551</ele>
        <time>2026-03-05T21:52:48.497Z</time>
      </trkpt>
      <trkpt lat="52.230768" lon="5.773052">
        <ele>28.433402</ele>
        <time>2026-03-05T21:52:57.824Z</time>
      </trkpt>
      <trkpt lat="52.230457" lon="5.773257">
        <ele>28.479934</ele>
        <time>2026-03-05T21:53:01.977Z</time>
      </trkpt>
      <trkpt lat="52.229777" lon="5.773728">
        <ele>28.535189</ele>
        <time>2026-03-05T21:53:10.791Z</time>
      </trkpt>
      <trkpt lat="52.229170" lon="5.774135">
        <ele>28.494378</ele>
        <time>2026-03-05T21:53:18.082Z</time>
      </trkpt>
      <trkpt lat="52.226972" lon="5.775673">
        <ele>28.848540</ele>
        <time>2026-03-05T21:53:46.673Z</time>
      </trkpt>
      <trkpt lat="52.224732" lon="5.777182">
        <ele>30.836628</ele>
        <time>2026-03-05T21:54:23.684Z</time>
      </trkpt>
      <trkpt lat="52.223255" lon="5.778220">
        <ele>31.548342</ele>
        <time>2026-03-05T21:54:44.512Z</time>
      </trkpt>
      <trkpt lat="52.223033" lon="5.778337">
        <ele>31.599244</ele>
        <time>2026-03-05T21:54:47.392Z</time>
      </trkpt>
      <trkpt lat="52.222364" lon="5.778630">
        <ele>31.750382</ele>
        <time>2026-03-05T21:54:55.907Z</time>
      </trkpt>
      <trkpt lat="52.221389" lon="5.778892">
        <ele>31.997482</ele>
        <time>2026-03-05T21:55:08.454Z</time>
      </trkpt>
      <trkpt lat="52.221276" lon="5.778945">
        <ele>32.038910</ele>
        <time>2026-03-05T21:55:09.908Z</time>
      </trkpt>
      <trkpt lat="52.221209" lon="5.779121">
        <ele>32.083639</ele>
        <time>2026-03-05T21:55:11.495Z</time>
      </trkpt>
      <trkpt lat="52.221161" lon="5.779148">
        <ele>32.101529</ele>
        <time>2026-03-05T21:55:12.144Z</time>
      </trkpt>
      <trkpt lat="52.221129" lon="5.779150">
        <ele>32.112812</ele>
        <time>2026-03-05T21:55:12.562Z</time>
      </trkpt>
      <trkpt lat="52.221046" lon="5.779153">
        <ele>32.142066</ele>
        <time>2026-03-05T21:55:13.576Z</time>
      </trkpt>
      <trkpt lat="52.221003" lon="5.779153">
        <ele>32.157217</ele>
        <time>2026-03-05T21:55:14.136Z</time>
      </trkpt>
      <trkpt lat="52.220975" lon="5.779153">
        <ele>32.167083</ele>
        <time>2026-03-05T21:55:14.500Z</time>
      </trkpt>
      <trkpt lat="52.220963" lon="5.779014">
        <ele>32.197385</ele>
        <time>2026-03-05T21:55:15.561Z</time>
      </trkpt>
      <trkpt lat="52.220924" lon="5.778937">
        <ele>32.218951</ele>
        <time>2026-03-05T21:55:16.368Z</time>
      </trkpt>
      <trkpt lat="52.220852" lon="5.778865">
        <ele>32.248704</ele>
        <time>2026-03-05T21:55:17.422Z</time>
      </trkpt>
      <trkpt lat="52.220791" lon="5.778858">
        <ele>32.270251</ele>
        <time>2026-03-05T21:55:18.224Z</time>
      </trkpt>
      <trkpt lat="52.220216" lon="5.778933">
        <ele>32.473504</ele>
        <time>2026-03-05T21:55:25.819Z</time>
      </trkpt>
      <trkpt lat="52.219850" lon="5.779022">
        <ele>32.633570</ele>
        <time>2026-03-05T21:55:30.640Z</time>
      </trkpt>
      <trkpt lat="52.218056" lon="5.779838">
        <ele>33.496211</ele>
        <time>2026-03-05T21:55:56.453Z</time>
      </trkpt>
      <trkpt lat="52.217908" lon="5.779991">
        <ele>33.475642</ele>
        <time>2026-03-05T21:55:58.648Z</time>
      </trkpt>
      <trkpt lat="52.217848" lon="5.780016">
        <ele>33.468371</ele>
        <time>2026-03-05T21:55:59.400Z</time>
      </trkpt>
      <trkpt lat="52.217599" lon="5.780005">
        <ele>33.439125</ele>
        <time>2026-03-05T21:56:02.320Z</time>
      </trkpt>
      <trkpt lat="52.216310" lon="5.780378">
        <ele>33.269524</ele>
        <time>2026-03-05T21:56:16.416Z</time>
      </trkpt>
      <trkpt lat="52.215509" lon="5.780559">
        <ele>33.115463</ele>
        <time>2026-03-05T21:56:25.305Z</time>
      </trkpt>
      <trkpt lat="52.214565" lon="5.780685">
        <ele>32.977092</ele>
        <time>2026-03-05T21:56:36.685Z</time>
      </trkpt>
      <trkpt lat="52.213788" lon="5.780965">
        <ele>33.017256</ele>
        <time>2026-03-05T21:56:46.213Z</time>
      </trkpt>
      <trkpt lat="52.213722" lon="5.780953">
        <ele>33.020608</ele>
        <time>2026-03-05T21:56:46.997Z</time>
      </trkpt>
      <trkpt lat="52.213425" lon="5.780762">
        <ele>33.036722</ele>
        <time>2026-03-05T21:56:50.809Z</time>
      </trkpt>
      <trkpt lat="52.213302" lon="5.780735">
        <ele>33.042986</ele>
        <time>2026-03-05T21:56:52.303Z</time>
      </trkpt>
      <trkpt lat="52.213130" lon="5.780794">
        <ele>33.051857</ele>
        <time>2026-03-05T21:56:54.421Z</time>
      </trkpt>
      <trkpt lat="52.212653" lon="5.781088">
        <ele>33.104705</ele>
        <time>2026-03-05T21:57:00.695Z</time>
      </trkpt>
      <trkpt lat="52.212143" lon="5.781194">
        <ele>33.168627</ele>
        <time>2026-03-05T21:57:07.000Z</time>
      </trkpt>
      <trkpt lat="52.211883" lon="5.781081">
        <ele>33.202081</ele>
        <time>2026-03-05T21:57:10.254Z</time>
      </trkpt>
      <trkpt lat="52.211644" lon="5.780845">
        <ele>33.236813</ele>
        <time>2026-03-05T21:57:13.588Z</time>
      </trkpt>
      <trkpt lat="52.211051" lon="5.780605">
        <ele>33.350980</ele>
        <time>2026-03-05T21:57:21.099Z</time>
      </trkpt>
      <trkpt lat="52.210652" lon="5.780309">
        <ele>33.474692</ele>
        <time>2026-03-05T21:57:26.564Z</time>
      </trkpt>
      <trkpt lat="52.209010" lon="5.779823">
        <ele>33.926057</ele>
        <time>2026-03-05T21:57:48.274Z</time>
      </trkpt>
      <trkpt lat="52.208775" lon="5.779649">
        <ele>33.989673</ele>
        <time>2026-03-05T21:57:51.526Z</time>
      </trkpt>
      <trkpt lat="52.208252" lon="5.779483">
        <ele>34.121019</ele>
        <time>2026-03-05T21:57:58.165Z</time>
      </trkpt>
      <trkpt lat="52.207612" lon="5.779369">
        <ele>34.205951</ele>
        <time>2026-03-05T21:58:06.254Z</time>
      </trkpt>
      <trkpt lat="52.207257" lon="5.779617">
        <ele>34.148264</ele>
        <time>2026-03-05T21:58:11.154Z</time>
      </trkpt>
      <trkpt lat="52.206975" lon="5.779711">
        <ele>34.105267</ele>
        <time>2026-03-05T21:58:14.738Z</time>
      </trkpt>
      <trkpt lat="52.206844" lon="5.779681">
        <ele>34.085505</ele>
        <time>2026-03-05T21:58:16.313Z</time>
      </trkpt>
      <trkpt lat="52.206647" lon="5.779533">
        <ele>34.053107</ele>
        <time>2026-03-05T21:58:18.705Z</time>
      </trkpt>
      <trkpt lat="52.206540" lon="5.779514">
        <ele>34.037029</ele>
        <time>2026-03-05T21:58:19.870Z</time>
      </trkpt>
      <trkpt lat="52.206221" lon="5.779704">
        <ele>33.986299</ele>
        <time>2026-03-05T21:58:23.513Z</time>
      </trkpt>
      <trkpt lat="52.206143" lon="5.779642">
        <ele>33.973338</ele>
        <time>2026-03-05T21:58:24.409Z</time>
      </trkpt>
      <trkpt lat="52.206089" lon="5.779481">
        <ele>33.909671</ele>
        <time>2026-03-05T21:58:25.551Z</time>
      </trkpt>
      <trkpt lat="52.206128" lon="5.779068">
        <ele>33.661990</ele>
        <time>2026-03-05T21:58:28.109Z</time>
      </trkpt>
      <trkpt lat="52.206147" lon="5.778963">
        <ele>33.597098</ele>
        <time>2026-03-05T21:58:28.749Z</time>
      </trkpt>
      <trkpt lat="52.206223" lon="5.778871">
        <ele>33.505574</ele>
        <time>2026-03-05T21:58:29.672Z</time>
      </trkpt>
      <trkpt lat="52.206232" lon="5.778788">
        <ele>33.455615</ele>
        <time>2026-03-05T21:58:30.157Z</time>
      </trkpt>
      <trkpt lat="52.206281" lon="5.778245">
        <ele>33.130300</ele>
        <time>2026-03-05T21:58:33.365Z</time>
      </trkpt>
      <trkpt lat="52.206229" lon="5.778200">
        <ele>33.073372</ele>
        <time>2026-03-05T21:58:33.926Z</time>
      </trkpt>
      <trkpt lat="52.206026" lon="5.778140">
        <ele>32.873837</ele>
        <time>2026-03-05T21:58:35.865Z</time>
      </trkpt>
      <trkpt lat="52.205813" lon="5.778086">
        <ele>32.665354</ele>
        <time>2026-03-05T21:58:37.933Z</time>
      </trkpt>
      <trkpt lat="52.205796" lon="5.778235">
        <ele>32.575521</ele>
        <time>2026-03-05T21:58:38.826Z</time>
      </trkpt>
      <trkpt lat="52.205766" lon="5.778269">
        <ele>32.540194</ele>
        <time>2026-03-05T21:58:39.186Z</time>
      </trkpt>
      <trkpt lat="52.205360" lon="5.778303">
        <ele>32.171075</ele>
        <time>2026-03-05T21:58:43.277Z</time>
      </trkpt>
      <trkpt lat="52.203387" lon="5.777778">
        <ele>30.918278</ele>
        <time>2026-03-05T21:59:03.885Z</time>
      </trkpt>
      <trkpt lat="52.202736" lon="5.777684">
        <ele>30.683044</ele>
        <time>2026-03-05T21:59:11.008Z</time>
      </trkpt>
      <trkpt lat="52.201674" lon="5.777659">
        <ele>30.443621</ele>
        <time>2026-03-05T21:59:22.706Z</time>
      </trkpt>
      <trkpt lat="52.200786" lon="5.777734">
        <ele>30.763360</ele>
        <time>2026-03-05T21:59:34.015Z</time>
      </trkpt>
      <trkpt lat="52.200174" lon="5.777728">
        <ele>30.983431</ele>
        <time>2026-03-05T21:59:42.505Z</time>
      </trkpt>
      <trkpt lat="52.200094" lon="5.777760">
        <ele>31.013049</ele>
        <time>2026-03-05T21:59:43.736Z</time>
      </trkpt>
      <trkpt lat="52.199775" lon="5.778047">
        <ele>31.239123</ele>
        <time>2026-03-05T21:59:49.151Z</time>
      </trkpt>
      <trkpt lat="52.199577" lon="5.778131">
        <ele>31.368622</ele>
        <time>2026-03-05T21:59:52.308Z</time>
      </trkpt>
      <trkpt lat="52.198549" lon="5.778466">
        <ele>32.032188</ele>
        <time>2026-03-05T22:00:06.668Z</time>
      </trkpt>
      <trkpt lat="52.198428" lon="5.778475">
        <ele>32.108860</ele>
        <time>2026-03-05T22:00:08.228Z</time>
      </trkpt>
      <trkpt lat="52.197472" lon="5.778792">
        <ele>32.687139</ele>
        <time>2026-03-05T22:00:21.356Z</time>
      </trkpt>
      <trkpt lat="52.196977" lon="5.778992">
        <ele>32.987674</ele>
        <time>2026-03-05T22:00:28.580Z</time>
      </trkpt>
      <trkpt lat="52.196334" lon="5.779378">
        <ele>33.413134</ele>
        <time>2026-03-05T22:00:37.882Z</time>
      </trkpt>
      <trkpt lat="52.195709" lon="5.779594">
        <ele>33.836565</ele>
        <time>2026-03-05T22:00:46.906Z</time>
      </trkpt>
      <trkpt lat="52.195325" lon="5.779792">
        <ele>34.103482</ele>
        <time>2026-03-05T22:00:52.570Z</time>
      </trkpt>
      <trkpt lat="52.195085" lon="5.779871">
        <ele>34.265755</ele>
        <time>2026-03-05T22:00:55.861Z</time>
      </trkpt>
      <trkpt lat="52.194961" lon="5.779914">
        <ele>34.349776</ele>
        <time>2026-03-05T22:00:57.615Z</time>
      </trkpt>
      <trkpt lat="52.194889" lon="5.779987">
        <ele>34.405962</ele>
        <time>2026-03-05T22:00:59.180Z</time>
      </trkpt>
      <trkpt lat="52.194849" lon="5.780034">
        <ele>34.426761</ele>
        <time>2026-03-05T22:01:00.081Z</time>
      </trkpt>
      <trkpt lat="52.194814" lon="5.780043">
        <ele>34.440635</ele>
        <time>2026-03-05T22:01:00.585Z</time>
      </trkpt>
      <trkpt lat="52.194614" lon="5.780093">
        <ele>34.519860</ele>
        <time>2026-03-05T22:01:03.517Z</time>
      </trkpt>
      <trkpt lat="52.193915" lon="5.780329">
        <ele>34.799356</ele>
        <time>2026-03-05T22:01:14.067Z</time>
      </trkpt>
      <trkpt lat="52.193067" lon="5.780609">
        <ele>35.108211</ele>
        <time>2026-03-05T22:01:24.043Z</time>
      </trkpt>
      <trkpt lat="52.192818" lon="5.780694">
        <ele>35.084885</ele>
        <time>2026-03-05T22:01:26.901Z</time>
      </trkpt>
      <trkpt lat="52.192127" lon="5.780945">
        <ele>35.019974</ele>
        <time>2026-03-05T22:01:35.061Z</time>
      </trkpt>
      <trkpt lat="52.192100" lon="5.780955">
        <ele>35.017435</ele>
        <time>2026-03-05T22:01:35.373Z</time>
      </trkpt>
      <trkpt lat="52.191997" lon="5.780999">
        <ele>35.007673</ele>
        <time>2026-03-05T22:01:36.563Z</time>
      </trkpt>
      <trkpt lat="52.191590" lon="5.781174">
        <ele>34.969079</ele>
        <time>2026-03-05T22:01:41.371Z</time>
      </trkpt>
      <trkpt lat="52.191492" lon="5.781212">
        <ele>34.959843</ele>
        <time>2026-03-05T22:01:42.575Z</time>
      </trkpt>
      <trkpt lat="52.190900" lon="5.781426">
        <ele>34.810337</ele>
        <time>2026-03-05T22:01:49.949Z</time>
      </trkpt>
      <trkpt lat="52.190094" lon="5.781338">
        <ele>34.580734</ele>
        <time>2026-03-05T22:01:58.802Z</time>
      </trkpt>
      <trkpt lat="52.189732" lon="5.781361">
        <ele>34.477764</ele>
        <time>2026-03-05T22:02:02.642Z</time>
      </trkpt>
      <trkpt lat="52.189507" lon="5.781306">
        <ele>34.373298</ele>
        <time>2026-03-05T22:02:05.074Z</time>
      </trkpt>
      <trkpt lat="52.189295" lon="5.781170">
        <ele>34.203950</ele>
        <time>2026-03-05T22:02:07.503Z</time>
      </trkpt>
      <trkpt lat="52.189118" lon="5.780953">
        <ele>34.039349</ele>
        <time>2026-03-05T22:02:09.859Z</time>
      </trkpt>
      <trkpt lat="52.189026" lon="5.780833">
        <ele>33.951781</ele>
        <time>2026-03-05T22:02:11.080Z</time>
      </trkpt>
      <trkpt lat="52.188969" lon="5.780755">
        <ele>33.896471</ele>
        <time>2026-03-05T22:02:11.841Z</time>
      </trkpt>
      <trkpt lat="52.188843" lon="5.780544">
        <ele>33.762231</ele>
        <time>2026-03-05T22:02:13.648Z</time>
      </trkpt>
      <trkpt lat="52.188759" lon="5.780335">
        <ele>33.648337</ele>
        <time>2026-03-05T22:02:15.169Z</time>
      </trkpt>
      <trkpt lat="52.188538" lon="5.779613">
        <ele>33.280556</ele>
        <time>2026-03-05T22:02:20.040Z</time>
      </trkpt>
      <trkpt lat="52.188376" lon="5.778903">
        <ele>32.973999</ele>
        <time>2026-03-05T22:02:24.644Z</time>
      </trkpt>
      <trkpt lat="52.188262" lon="5.778273">
        <ele>32.744709</ele>
        <time>2026-03-05T22:02:28.625Z</time>
      </trkpt>
      <trkpt lat="52.188044" lon="5.776638">
        <ele>32.160644</ele>
        <time>2026-03-05T22:02:39.396Z</time>
      </trkpt>
      <trkpt lat="52.187860" lon="5.775070">
        <ele>32.025451</ele>
        <time>2026-03-05T22:02:51.016Z</time>
      </trkpt>
      <trkpt lat="52.187783" lon="5.773895">
        <ele>31.980908</ele>
        <time>2026-03-05T22:02:59.900Z</time>
      </trkpt>
      <trkpt lat="52.187762" lon="5.773577">
        <ele>31.968852</ele>
        <time>2026-03-05T22:03:02.204Z</time>
      </trkpt>
      <trkpt lat="52.187749" lon="5.773327">
        <ele>31.935397</ele>
        <time>2026-03-05T22:03:03.960Z</time>
      </trkpt>
      <trkpt lat="52.187710" lon="5.772901">
        <ele>31.859810</ele>
        <time>2026-03-05T22:03:06.907Z</time>
      </trkpt>
      <trkpt lat="52.187676" lon="5.772633">
        <ele>31.811783</ele>
        <time>2026-03-05T22:03:08.779Z</time>
      </trkpt>
      <trkpt lat="52.187637" lon="5.772445">
        <ele>31.776953</ele>
        <time>2026-03-05T22:03:10.126Z</time>
      </trkpt>
      <trkpt lat="52.187549" lon="5.772217">
        <ele>31.729673</ele>
        <time>2026-03-05T22:03:11.962Z</time>
      </trkpt>
      <trkpt lat="52.187020" lon="5.771400">
        <ele>31.521142</ele>
        <time>2026-03-05T22:03:19.758Z</time>
      </trkpt>
      <trkpt lat="52.186670" lon="5.771092">
        <ele>31.398160</ele>
        <time>2026-03-05T22:03:24.105Z</time>
      </trkpt>
      <trkpt lat="52.186354" lon="5.770901">
        <ele>31.281555</ele>
        <time>2026-03-05T22:03:27.834Z</time>
      </trkpt>
      <trkpt lat="52.185666" lon="5.770679">
        <ele>31.038887</ele>
        <time>2026-03-05T22:03:35.677Z</time>
      </trkpt>
      <trkpt lat="52.184921" lon="5.770256">
        <ele>30.721261</ele>
        <time>2026-03-05T22:03:44.181Z</time>
      </trkpt>
      <trkpt lat="52.184771" lon="5.770109">
        <ele>30.617655</ele>
        <time>2026-03-05T22:03:46.004Z</time>
      </trkpt>
      <trkpt lat="52.184430" lon="5.769696">
        <ele>30.366190</ele>
        <time>2026-03-05T22:03:50.417Z</time>
      </trkpt>
      <trkpt lat="52.184138" lon="5.769447">
        <ele>30.171109</ele>
        <time>2026-03-05T22:03:53.891Z</time>
      </trkpt>
      <trkpt lat="52.183110" lon="5.768730">
        <ele>29.513164</ele>
        <time>2026-03-05T22:04:05.482Z</time>
      </trkpt>
      <trkpt lat="52.182632" lon="5.768248">
        <ele>29.185666</ele>
        <time>2026-03-05T22:04:11.137Z</time>
      </trkpt>
      <trkpt lat="52.181846" lon="5.767442">
        <ele>28.737637</ele>
        <time>2026-03-05T22:04:20.776Z</time>
      </trkpt>
      <trkpt lat="52.180831" lon="5.766420">
        <ele>28.951984</ele>
        <time>2026-03-05T22:04:35.468Z</time>
      </trkpt>
      <trkpt lat="52.180636" lon="5.766169">
        <ele>28.996623</ele>
        <time>2026-03-05T22:04:38.914Z</time>
      </trkpt>
      <trkpt lat="52.180206" lon="5.765476">
        <ele>29.289302</ele>
        <time>2026-03-05T22:04:47.437Z</time>
      </trkpt>
      <trkpt lat="52.180177" lon="5.765417">
        <ele>29.320748</ele>
        <time>2026-03-05T22:04:48.103Z</time>
      </trkpt>
      <trkpt lat="52.180106" lon="5.764729">
        <ele>29.610885</ele>
        <time>2026-03-05T22:04:54.209Z</time>
      </trkpt>
      <trkpt lat="52.180092" lon="5.763725">
        <ele>30.028520</ele>
        <time>2026-03-05T22:05:02.882Z</time>
      </trkpt>
      <trkpt lat="52.180061" lon="5.763391">
        <ele>30.169000</ele>
        <time>2026-03-05T22:05:05.784Z</time>
      </trkpt>
      <trkpt lat="52.179915" lon="5.762448">
        <ele>30.494938</ele>
        <time>2026-03-05T22:05:14.109Z</time>
      </trkpt>
      <trkpt lat="52.179685" lon="5.761181">
        <ele>30.907324</ele>
        <time>2026-03-05T22:05:24.949Z</time>
      </trkpt>
      <trkpt lat="52.179527" lon="5.760307">
        <ele>31.173022</ele>
        <time>2026-03-05T22:05:32.453Z</time>
      </trkpt>
      <trkpt lat="52.179184" lon="5.758877">
        <ele>31.140268</ele>
        <time>2026-03-05T22:05:44.483Z</time>
      </trkpt>
      <trkpt lat="52.178210" lon="5.754660">
        <ele>29.963879</ele>
        <time>2026-03-05T22:06:13.843Z</time>
      </trkpt>
      <trkpt lat="52.178145" lon="5.754536">
        <ele>29.861455</ele>
        <time>2026-03-05T22:06:14.782Z</time>
      </trkpt>
      <trkpt lat="52.177810" lon="5.754231">
        <ele>29.468613</ele>
        <time>2026-03-05T22:06:18.384Z</time>
      </trkpt>
      <trkpt lat="52.177609" lon="5.753976">
        <ele>29.207867</ele>
        <time>2026-03-05T22:06:20.763Z</time>
      </trkpt>
      <trkpt lat="52.177455" lon="5.753706">
        <ele>28.976346</ele>
        <time>2026-03-05T22:06:22.882Z</time>
      </trkpt>
      <trkpt lat="52.177129" lon="5.752982">
        <ele>28.412379</ele>
        <time>2026-03-05T22:06:28.130Z</time>
      </trkpt>
      <trkpt lat="52.175971" lon="5.749906">
        <ele>27.225158</ele>
        <time>2026-03-05T22:06:51.894Z</time>
      </trkpt>
      <trkpt lat="52.175037" lon="5.747400">
        <ele>26.574662</ele>
        <time>2026-03-05T22:07:11.223Z</time>
      </trkpt>
      <trkpt lat="52.175000" lon="5.747300">
        <ele>26.557941</ele>
        <time>2026-03-05T22:07:12.049Z</time>
      </trkpt>
      <trkpt lat="52.174458" lon="5.746276">
        <ele>26.364282</ele>
        <time>2026-03-05T22:07:21.570Z</time>
      </trkpt>
      <trkpt lat="52.174303" lon="5.746077">
        <ele>26.318226</ele>
        <time>2026-03-05T22:07:23.811Z</time>
      </trkpt>
      <trkpt lat="52.174200" lon="5.745945">
        <ele>26.287642</ele>
        <time>2026-03-05T22:07:25.290Z</time>
      </trkpt>
      <trkpt lat="52.173184" lon="5.745106">
        <ele>26.050774</ele>
        <time>2026-03-05T22:07:37.920Z</time>
      </trkpt>
      <trkpt lat="52.172987" lon="5.744887">
        <ele>26.003320</ele>
        <time>2026-03-05T22:07:40.597Z</time>
      </trkpt>
      <trkpt lat="52.172874" lon="5.744618">
        <ele>25.963521</ele>
        <time>2026-03-05T22:07:42.904Z</time>
      </trkpt>
      <trkpt lat="52.172581" lon="5.743587">
        <ele>25.768567</ele>
        <time>2026-03-05T22:07:51.076Z</time>
      </trkpt>
      <trkpt lat="52.172269" lon="5.742621">
        <ele>25.425152</ele>
        <time>2026-03-05T22:07:58.572Z</time>
      </trkpt>
      <trkpt lat="52.172036" lon="5.742061">
        <ele>25.212292</ele>
        <time>2026-03-05T22:08:02.796Z</time>
      </trkpt>
      <trkpt lat="52.171133" lon="5.740309">
        <ele>24.654134</ele>
        <time>2026-03-05T22:08:16.763Z</time>
      </trkpt>
      <trkpt lat="52.170980" lon="5.739940">
        <ele>24.564875</ele>
        <time>2026-03-05T22:08:19.850Z</time>
      </trkpt>
      <trkpt lat="52.170455" lon="5.738423">
        <ele>24.339900</ele>
        <time>2026-03-05T22:08:33.713Z</time>
      </trkpt>
      <trkpt lat="52.170269" lon="5.738016">
        <ele>24.332042</ele>
        <time>2026-03-05T22:08:37.720Z</time>
      </trkpt>
      <trkpt lat="52.169402" lon="5.736631">
        <ele>24.213122</ele>
        <time>2026-03-05T22:08:51.406Z</time>
      </trkpt>
      <trkpt lat="52.169201" lon="5.736287">
        <ele>24.019337</ele>
        <time>2026-03-05T22:08:54.367Z</time>
      </trkpt>
      <trkpt lat="52.169054" lon="5.735869">
        <ele>23.822810</ele>
        <time>2026-03-05T22:08:57.372Z</time>
      </trkpt>
      <trkpt lat="52.169027" lon="5.735639">
        <ele>23.727297</ele>
        <time>2026-03-05T22:08:58.834Z</time>
      </trkpt>
      <trkpt lat="52.169032" lon="5.735415">
        <ele>23.635873</ele>
        <time>2026-03-05T22:09:00.242Z</time>
      </trkpt>
      <trkpt lat="52.169092" lon="5.735129">
        <ele>23.512587</ele>
        <time>2026-03-05T22:09:02.141Z</time>
      </trkpt>
      <trkpt lat="52.169443" lon="5.734352">
        <ele>23.118991</ele>
        <time>2026-03-05T22:09:08.088Z</time>
      </trkpt>
      <trkpt lat="52.169521" lon="5.734039">
        <ele>23.000775</ele>
        <time>2026-03-05T22:09:10.178Z</time>
      </trkpt>
      <trkpt lat="52.169580" lon="5.733485">
        <ele>22.806634</ele>
        <time>2026-03-05T22:09:13.707Z</time>
      </trkpt>
      <trkpt lat="52.169587" lon="5.733117">
        <ele>22.679515</ele>
        <time>2026-03-05T22:09:16.033Z</time>
      </trkpt>
      <trkpt lat="52.169537" lon="5.732750">
        <ele>22.549713</ele>
        <time>2026-03-05T22:09:18.448Z</time>
      </trkpt>
      <trkpt lat="52.169388" lon="5.732167">
        <ele>22.331644</ele>
        <time>2026-03-05T22:09:22.567Z</time>
      </trkpt>
      <trkpt lat="52.169132" lon="5.731443">
        <ele>22.086804</ele>
        <time>2026-03-05T22:09:28.151Z</time>
      </trkpt>
      <trkpt lat="52.168605" lon="5.730238">
        <ele>21.996030</ele>
        <time>2026-03-05T22:09:38.562Z</time>
      </trkpt>
      <trkpt lat="52.167940" lon="5.728817">
        <ele>21.930309</ele>
        <time>2026-03-05T22:09:51.560Z</time>
      </trkpt>
      <trkpt lat="52.167588" lon="5.727980">
        <ele>21.959241</ele>
        <time>2026-03-05T22:09:59.032Z</time>
      </trkpt>
      <trkpt lat="52.167481" lon="5.727649">
        <ele>21.969907</ele>
        <time>2026-03-05T22:10:01.785Z</time>
      </trkpt>
      <trkpt lat="52.166998" lon="5.725659">
        <ele>21.941741</ele>
        <time>2026-03-05T22:10:17.452Z</time>
      </trkpt>
      <trkpt lat="52.166698" lon="5.724795">
        <ele>21.888473</ele>
        <time>2026-03-05T22:10:24.595Z</time>
      </trkpt>
      <trkpt lat="52.166365" lon="5.724074">
        <ele>21.830596</ele>
        <time>2026-03-05T22:10:30.863Z</time>
      </trkpt>
      <trkpt lat="52.166408" lon="5.723851">
        <ele>21.772367</ele>
        <time>2026-03-05T22:10:34.993Z</time>
      </trkpt>
      <trkpt lat="52.166365" lon="5.724074">
        <ele>21.714138</ele>
        <time>2026-03-05T22:10:39.111Z</time>
      </trkpt>
      <trkpt lat="52.166138" lon="5.723650">
        <ele>21.573947</ele>
        <time>2026-03-05T22:10:42.853Z</time>
      </trkpt>
      <trkpt lat="52.165829" lon="5.723156">
        <ele>21.398191</ele>
        <time>2026-03-05T22:10:47.489Z</time>
      </trkpt>
      <trkpt lat="52.165533" lon="5.722782">
        <ele>21.246107</ele>
        <time>2026-03-05T22:10:51.444Z</time>
      </trkpt>
      <trkpt lat="52.164300" lon="5.721559">
        <ele>20.596341</ele>
        <time>2026-03-05T22:11:06.729Z</time>
      </trkpt>
      <trkpt lat="52.164240" lon="5.721507">
        <ele>20.564861</ele>
        <time>2026-03-05T22:11:07.454Z</time>
      </trkpt>
      <trkpt lat="52.163567" lon="5.720854">
        <ele>20.231630</ele>
        <time>2026-03-05T22:11:15.997Z</time>
      </trkpt>
      <trkpt lat="52.163250" lon="5.720547">
        <ele>20.126519</ele>
        <time>2026-03-05T22:11:20.052Z</time>
      </trkpt>
      <trkpt lat="52.161657" lon="5.719003">
        <ele>19.841087</ele>
        <time>2026-03-05T22:11:40.665Z</time>
      </trkpt>
      <trkpt lat="52.161319" lon="5.718665">
        <ele>19.891459</ele>
        <time>2026-03-05T22:11:45.394Z</time>
      </trkpt>
      <trkpt lat="52.160526" lon="5.717872">
        <ele>20.053849</ele>
        <time>2026-03-05T22:11:57.569Z</time>
      </trkpt>
      <trkpt lat="52.159396" lon="5.716817">
        <ele>20.708833</ele>
        <time>2026-03-05T22:12:15.942Z</time>
      </trkpt>
      <trkpt lat="52.159329" lon="5.716843">
        <ele>20.743474</ele>
        <time>2026-03-05T22:12:16.818Z</time>
      </trkpt>
      <trkpt lat="52.158950" lon="5.716730">
        <ele>20.887774</ele>
        <time>2026-03-05T22:12:21.737Z</time>
      </trkpt>
      <trkpt lat="52.158526" lon="5.716554">
        <ele>20.820380</ele>
        <time>2026-03-05T22:12:26.942Z</time>
      </trkpt>
      <trkpt lat="52.158482" lon="5.716527">
        <ele>20.813138</ele>
        <time>2026-03-05T22:12:27.470Z</time>
      </trkpt>
      <trkpt lat="52.158363" lon="5.716430">
        <ele>20.792644</ele>
        <time>2026-03-05T22:12:28.970Z</time>
      </trkpt>
      <trkpt lat="52.158302" lon="5.716339">
        <ele>20.779908</ele>
        <time>2026-03-05T22:12:29.875Z</time>
      </trkpt>
      <trkpt lat="52.158255" lon="5.716268">
        <ele>20.770037</ele>
        <time>2026-03-05T22:12:30.588Z</time>
      </trkpt>
      <trkpt lat="52.158205" lon="5.716196">
        <ele>20.759761</ele>
        <time>2026-03-05T22:12:31.314Z</time>
      </trkpt>
      <trkpt lat="52.158081" lon="5.716017">
        <ele>20.734248</ele>
        <time>2026-03-05T22:12:33.117Z</time>
      </trkpt>
      <trkpt lat="52.158211" lon="5.715731">
        <ele>20.700612</ele>
        <time>2026-03-05T22:12:36.392Z</time>
      </trkpt>
      <trkpt lat="52.157589" lon="5.715240">
        <ele>20.593057</ele>
        <time>2026-03-05T22:12:43.855Z</time>
      </trkpt>
      <trkpt lat="52.156010" lon="5.713971">
        <ele>20.325126</ele>
        <time>2026-03-05T22:13:04.077Z</time>
      </trkpt>
      <trkpt lat="52.155193" lon="5.713330">
        <ele>20.266878</ele>
        <time>2026-03-05T22:13:14.810Z</time>
      </trkpt>
      <trkpt lat="52.153519" lon="5.712016">
        <ele>20.164289</ele>
        <time>2026-03-05T22:13:36.446Z</time>
      </trkpt>
      <trkpt lat="52.153258" lon="5.712308">
        <ele>20.148732</ele>
        <time>2026-03-05T22:13:40.260Z</time>
      </trkpt>
      <trkpt lat="52.153118" lon="5.712400">
        <ele>20.141314</ele>
        <time>2026-03-05T22:13:42.052Z</time>
      </trkpt>
      <trkpt lat="52.152690" lon="5.712470">
        <ele>20.119765</ele>
        <time>2026-03-05T22:13:47.069Z</time>
      </trkpt>
      <trkpt lat="52.152490" lon="5.712460">
        <ele>20.109540</ele>
        <time>2026-03-05T22:13:49.376Z</time>
      </trkpt>
      <trkpt lat="52.152348" lon="5.712396">
        <ele>20.102012</ele>
        <time>2026-03-05T22:13:51.058Z</time>
      </trkpt>
      <trkpt lat="52.152116" lon="5.712207">
        <ele>20.088758</ele>
        <time>2026-03-05T22:13:54.151Z</time>
      </trkpt>
      <trkpt lat="52.151889" lon="5.711888">
        <ele>20.073442</ele>
        <time>2026-03-05T22:13:57.801Z</time>
      </trkpt>
      <trkpt lat="52.151761" lon="5.711585">
        <ele>20.061908</ele>
        <time>2026-03-05T22:14:00.471Z</time>
      </trkpt>
      <trkpt lat="52.151680" lon="5.711179">
        <ele>20.048522</ele>
        <time>2026-03-05T22:14:03.436Z</time>
      </trkpt>
      <trkpt lat="52.151605" lon="5.709418">
        <ele>19.844595</ele>
        <time>2026-03-05T22:14:15.769Z</time>
      </trkpt>
      <trkpt lat="52.151593" lon="5.709099">
        <ele>19.801782</ele>
        <time>2026-03-05T22:14:17.991Z</time>
      </trkpt>
      <trkpt lat="52.151552" lon="5.708782">
        <ele>19.758384</ele>
        <time>2026-03-05T22:14:20.210Z</time>
      </trkpt>
      <trkpt lat="52.151167" lon="5.707380">
        <ele>19.531380</ele>
        <time>2026-03-05T22:14:30.654Z</time>
      </trkpt>
      <trkpt lat="52.151010" lon="5.706620">
        <ele>19.399490</ele>
        <time>2026-03-05T22:14:36.167Z</time>
      </trkpt>
      <trkpt lat="52.150757" lon="5.704784">
        <ele>19.107247</ele>
        <time>2026-03-05T22:14:48.951Z</time>
      </trkpt>
      <trkpt lat="52.150609" lon="5.703831">
        <ele>18.983360</ele>
        <time>2026-03-05T22:14:55.648Z</time>
      </trkpt>
      <trkpt lat="52.150523" lon="5.703485">
        <ele>18.936315</ele>
        <time>2026-03-05T22:14:58.208Z</time>
      </trkpt>
      <trkpt lat="52.150432" lon="5.703335">
        <ele>18.909731</ele>
        <time>2026-03-05T22:14:59.662Z</time>
      </trkpt>
      <trkpt lat="52.150185" lon="5.703157">
        <ele>18.854263</ele>
        <time>2026-03-05T22:15:02.673Z</time>
      </trkpt>
      <trkpt lat="52.149930" lon="5.703050">
        <ele>18.800181</ele>
        <time>2026-03-05T22:15:05.688Z</time>
      </trkpt>
      <trkpt lat="52.149720" lon="5.702920">
        <ele>18.788754</ele>
        <time>2026-03-05T22:15:08.352Z</time>
      </trkpt>
      <trkpt lat="52.149411" lon="5.702533">
        <ele>18.777643</ele>
        <time>2026-03-05T22:15:13.136Z</time>
      </trkpt>
      <trkpt lat="52.147801" lon="5.700260">
        <ele>18.516271</ele>
        <time>2026-03-05T22:15:37.956Z</time>
      </trkpt>
      <trkpt lat="52.147440" lon="5.699750">
        <ele>18.398163</ele>
        <time>2026-03-05T22:15:43.178Z</time>
      </trkpt>
      <trkpt lat="52.146329" lon="5.698270">
        <ele>17.901033</ele>
        <time>2026-03-05T22:15:58.394Z</time>
      </trkpt>
      <trkpt lat="52.145136" lon="5.696626">
        <ele>17.502077</ele>
        <time>2026-03-05T22:16:15.900Z</time>
      </trkpt>
      <trkpt lat="52.144483" lon="5.695685">
        <ele>17.388715</ele>
        <time>2026-03-05T22:16:26.112Z</time>
      </trkpt>
      <trkpt lat="52.144305" lon="5.695347">
        <ele>17.350599</ele>
        <time>2026-03-05T22:16:29.306Z</time>
      </trkpt>
      <trkpt lat="52.142411" lon="5.690804">
        <ele>16.845692</ele>
        <time>2026-03-05T22:17:07.563Z</time>
      </trkpt>
      <trkpt lat="52.141460" lon="5.688480">
        <ele>16.803092</ele>
        <time>2026-03-05T22:17:27.926Z</time>
      </trkpt>
      <trkpt lat="52.140071" lon="5.685112">
        <ele>16.692110</ele>
        <time>2026-03-05T22:17:57.400Z</time>
      </trkpt>
      <trkpt lat="52.139800" lon="5.684762">
        <ele>16.628225</ele>
        <time>2026-03-05T22:18:01.355Z</time>
      </trkpt>
      <trkpt lat="52.137628" lon="5.682223">
        <ele>15.960642</ele>
        <time>2026-03-05T22:18:30.971Z</time>
      </trkpt>
      <trkpt lat="52.137076" lon="5.681536">
        <ele>15.734921</ele>
        <time>2026-03-05T22:18:38.513Z</time>
      </trkpt>
      <trkpt lat="52.135285" lon="5.679068">
        <ele>15.055409</ele>
        <time>2026-03-05T22:19:04.390Z</time>
      </trkpt>
      <trkpt lat="52.135202" lon="5.679036">
        <ele>15.033943</ele>
        <time>2026-03-05T22:19:05.325Z</time>
      </trkpt>
      <trkpt lat="52.135120" lon="5.679049">
        <ele>15.013207</ele>
        <time>2026-03-05T22:19:06.251Z</time>
      </trkpt>
      <trkpt lat="52.134753" lon="5.679298">
        <ele>14.913152</ele>
        <time>2026-03-05T22:19:10.741Z</time>
      </trkpt>
      <trkpt lat="52.134599" lon="5.679411">
        <ele>14.922136</ele>
        <time>2026-03-05T22:19:12.674Z</time>
      </trkpt>
      <trkpt lat="52.134299" lon="5.679510">
        <ele>14.975324</ele>
        <time>2026-03-05T22:19:16.237Z</time>
      </trkpt>
      <trkpt lat="52.132699" lon="5.679343">
        <ele>15.212763</ele>
        <time>2026-03-05T22:19:36.874Z</time>
      </trkpt>
      <trkpt lat="52.132250" lon="5.679270">
        <ele>15.211048</ele>
        <time>2026-03-05T22:19:42.389Z</time>
      </trkpt>
      <trkpt lat="52.132060" lon="5.679170">
        <ele>15.210289</ele>
        <time>2026-03-05T22:19:44.733Z</time>
      </trkpt>
      <trkpt lat="52.131610" lon="5.678730">
        <ele>15.208293</ele>
        <time>2026-03-05T22:19:50.798Z</time>
      </trkpt>
      <trkpt lat="52.131220" lon="5.678530">
        <ele>15.204282</ele>
        <time>2026-03-05T22:19:55.341Z</time>
      </trkpt>
      <trkpt lat="52.129860" lon="5.678030">
        <ele>15.005694</ele>
        <time>2026-03-05T22:20:11.100Z</time>
      </trkpt>
      <trkpt lat="52.128744" lon="5.676889">
        <ele>15.016397</ele>
        <time>2026-03-05T22:20:26.813Z</time>
      </trkpt>
      <trkpt lat="52.128420" lon="5.677844">
        <ele>15.063736</ele>
        <time>2026-03-05T22:20:34.965Z</time>
      </trkpt>
      <trkpt lat="52.127908" lon="5.678964">
        <ele>15.210688</ele>
        <time>2026-03-05T22:20:45.638Z</time>
      </trkpt>
      <trkpt lat="52.126745" lon="5.681379">
        <ele>15.461129</ele>
        <time>2026-03-05T22:21:09.267Z</time>
      </trkpt>
      <trkpt lat="52.126545" lon="5.681801">
        <ele>15.470216</ele>
        <time>2026-03-05T22:21:13.191Z</time>
      </trkpt>
      <trkpt lat="52.125320" lon="5.684398">
        <ele>15.392887</ele>
        <time>2026-03-05T22:21:36.149Z</time>
      </trkpt>
      <trkpt lat="52.125285" lon="5.684464">
        <ele>15.388822</ele>
        <time>2026-03-05T22:21:36.781Z</time>
      </trkpt>
      <trkpt lat="52.125222" lon="5.684396">
        <ele>15.383085</ele>
        <time>2026-03-05T22:21:38.004Z</time>
      </trkpt>
      <trkpt lat="52.125168" lon="5.684342">
        <ele>15.378275</ele>
        <time>2026-03-05T22:21:39.034Z</time>
      </trkpt>
      <trkpt lat="52.125054" lon="5.684378">
        <ele>15.369459</ele>
        <time>2026-03-05T22:21:40.950Z</time>
      </trkpt>
      <trkpt lat="52.124897" lon="5.684374">
        <ele>15.357539</ele>
        <time>2026-03-05T22:21:43.571Z</time>
      </trkpt>
      <trkpt lat="52.124720" lon="5.684317">
        <ele>15.354545</ele>
        <time>2026-03-05T22:21:45.831Z</time>
      </trkpt>
      <trkpt lat="52.124622" lon="5.684282">
        <ele>15.355082</ele>
        <time>2026-03-05T22:21:47.072Z</time>
      </trkpt>
      <trkpt lat="52.123734" lon="5.683983">
        <ele>15.359936</ele>
        <time>2026-03-05T22:21:57.770Z</time>
      </trkpt>
      <trkpt lat="52.123682" lon="5.683949">
        <ele>15.360236</ele>
        <time>2026-03-05T22:21:58.424Z</time>
      </trkpt>
      <trkpt lat="52.123430" lon="5.683770">
        <ele>15.361708</ele>
        <time>2026-03-05T22:22:01.662Z</time>
      </trkpt>
      <trkpt lat="52.123330" lon="5.683650">
        <ele>15.362373</ele>
        <time>2026-03-05T22:22:03.117Z</time>
      </trkpt>
      <trkpt lat="52.122779" lon="5.682644">
        <ele>15.369699</ele>
        <time>2026-03-05T22:22:12.636Z</time>
      </trkpt>
      <trkpt lat="52.122016" lon="5.681235">
        <ele>15.381234</ele>
        <time>2026-03-05T22:22:26.638Z</time>
      </trkpt>
      <trkpt lat="52.121480" lon="5.680310">
        <ele>15.389278</ele>
        <time>2026-03-05T22:22:35.886Z</time>
      </trkpt>
      <trkpt lat="52.119815" lon="5.677684">
        <ele>15.620229</ele>
        <time>2026-03-05T22:23:03.399Z</time>
      </trkpt>
      <trkpt lat="52.120089" lon="5.675071">
        <ele>16.033514</ele>
        <time>2026-03-05T22:23:25.700Z</time>
      </trkpt>
      <trkpt lat="52.120266" lon="5.674027">
        <ele>16.227895</ele>
        <time>2026-03-05T22:23:33.697Z</time>
      </trkpt>
      <trkpt lat="52.120442" lon="5.673240">
        <ele>16.103481</ele>
        <time>2026-03-05T22:23:39.381Z</time>
      </trkpt>
      <trkpt lat="52.120607" lon="5.672148">
        <ele>15.916215</ele>
        <time>2026-03-05T22:23:46.764Z</time>
      </trkpt>
      <trkpt lat="52.120752" lon="5.671118">
        <ele>15.743284</ele>
        <time>2026-03-05T22:23:53.899Z</time>
      </trkpt>
      <trkpt lat="52.120947" lon="5.669997">
        <ele>15.626223</ele>
        <time>2026-03-05T22:24:02.259Z</time>
      </trkpt>
      <trkpt lat="52.121047" lon="5.669601">
        <ele>15.583203</ele>
        <time>2026-03-05T22:24:05.332Z</time>
      </trkpt>
      <trkpt lat="52.120732" lon="5.669380">
        <ele>15.527079</ele>
        <time>2026-03-05T22:24:10.726Z</time>
      </trkpt>
      <trkpt lat="52.120650" lon="5.669269">
        <ele>15.509631</ele>
        <time>2026-03-05T22:24:12.407Z</time>
      </trkpt>
      <trkpt lat="52.120194" lon="5.668416">
        <ele>15.400392</ele>
        <time>2026-03-05T22:24:23.365Z</time>
      </trkpt>
      <trkpt lat="52.119974" lon="5.668062">
        <ele>15.353647</ele>
        <time>2026-03-05T22:24:28.028Z</time>
      </trkpt>
      <trkpt lat="52.118949" lon="5.667356">
        <ele>15.185435</ele>
        <time>2026-03-05T22:24:45.417Z</time>
      </trkpt>
      <trkpt lat="52.118843" lon="5.667330">
        <ele>15.190764</ele>
        <time>2026-03-05T22:24:47.195Z</time>
      </trkpt>
      <trkpt lat="52.118847" lon="5.667275">
        <ele>15.194485</ele>
        <time>2026-03-05T22:24:47.626Z</time>
      </trkpt>
      <trkpt lat="52.119007" lon="5.665380">
        <ele>15.322991</ele>
        <time>2026-03-05T22:25:02.245Z</time>
      </trkpt>
      <trkpt lat="52.118954" lon="5.665008">
        <ele>15.348647</ele>
        <time>2026-03-05T22:25:05.081Z</time>
      </trkpt>
      <trkpt lat="52.118704" lon="5.664282">
        <ele>15.363371</ele>
        <time>2026-03-05T22:25:11.144Z</time>
      </trkpt>
      <trkpt lat="52.117044" lon="5.659365">
        <ele>15.148828</ele>
        <time>2026-03-05T22:25:51.145Z</time>
      </trkpt>
      <trkpt lat="52.116730" lon="5.658006">
        <ele>15.197457</ele>
        <time>2026-03-05T22:26:02.172Z</time>
      </trkpt>
      <trkpt lat="52.116508" lon="5.657104">
        <ele>15.230001</ele>
        <time>2026-03-05T22:26:09.524Z</time>
      </trkpt>
      <trkpt lat="52.116191" lon="5.655682">
        <ele>15.201143</ele>
        <time>2026-03-05T22:26:20.128Z</time>
      </trkpt>
      <trkpt lat="52.116130" lon="5.655408">
        <ele>15.190715</ele>
        <time>2026-03-05T22:26:22.194Z</time>
      </trkpt>
      <trkpt lat="52.116060" lon="5.655179">
        <ele>15.181562</ele>
        <time>2026-03-05T22:26:24.023Z</time>
      </trkpt>
      <trkpt lat="52.115251" lon="5.654057">
        <ele>15.160209</ele>
        <time>2026-03-05T22:26:36.408Z</time>
      </trkpt>
      <trkpt lat="52.114728" lon="5.653373">
        <ele>15.210341</ele>
        <time>2026-03-05T22:26:44.576Z</time>
      </trkpt>
      <trkpt lat="52.114359" lon="5.652818">
        <ele>15.247882</ele>
        <time>2026-03-05T22:26:50.831Z</time>
      </trkpt>
      <trkpt lat="52.114141" lon="5.652363">
        <ele>15.273053</ele>
        <time>2026-03-05T22:26:55.268Z</time>
      </trkpt>
      <trkpt lat="52.114052" lon="5.652167">
        <ele>15.278418</ele>
        <time>2026-03-05T22:26:57.153Z</time>
      </trkpt>
      <trkpt lat="52.113923" lon="5.651767">
        <ele>15.288362</ele>
        <time>2026-03-05T22:27:00.660Z</time>
      </trkpt>
      <trkpt lat="52.113576" lon="5.650286">
        <ele>15.323251</ele>
        <time>2026-03-05T22:27:12.261Z</time>
      </trkpt>
      <trkpt lat="52.113090" lon="5.648159">
        <ele>15.323672</ele>
        <time>2026-03-05T22:27:28.174Z</time>
      </trkpt>
      <trkpt lat="52.112937" lon="5.647423">
        <ele>15.317816</ele>
        <time>2026-03-05T22:27:33.840Z</time>
      </trkpt>
      <trkpt lat="52.111411" lon="5.646071">
        <ele>15.685830</ele>
        <time>2026-03-05T22:27:56.052Z</time>
      </trkpt>
      <trkpt lat="52.110287" lon="5.645002">
        <ele>15.978657</ele>
        <time>2026-03-05T22:28:12.366Z</time>
      </trkpt>
      <trkpt lat="52.108172" lon="5.642373">
        <ele>16.601259</ele>
        <time>2026-03-05T22:28:45.516Z</time>
      </trkpt>
      <trkpt lat="52.108117" lon="5.642305">
        <ele>16.635831</ele>
        <time>2026-03-05T22:28:46.470Z</time>
      </trkpt>
      <trkpt lat="52.106959" lon="5.640813">
        <ele>17.375072</ele>
        <time>2026-03-05T22:29:07.361Z</time>
      </trkpt>
      <trkpt lat="52.106631" lon="5.640373">
        <ele>17.444654</ele>
        <time>2026-03-05T22:29:12.706Z</time>
      </trkpt>
      <trkpt lat="52.105328" lon="5.638542">
        <ele>16.964002</ele>
        <time>2026-03-05T22:29:31.154Z</time>
      </trkpt>
      <trkpt lat="52.105157" lon="5.638293">
        <ele>16.894366</ele>
        <time>2026-03-05T22:29:33.664Z</time>
      </trkpt>
      <trkpt lat="52.104584" lon="5.637456">
        <ele>16.660698</ele>
        <time>2026-03-05T22:29:42.159Z</time>
      </trkpt>
      <trkpt lat="52.104370" lon="5.637115">
        <ele>16.569807</ele>
        <time>2026-03-05T22:29:45.530Z</time>
      </trkpt>
      <trkpt lat="52.104347" lon="5.637062">
        <ele>16.557708</ele>
        <time>2026-03-05T22:29:45.974Z</time>
      </trkpt>
      <trkpt lat="52.104225" lon="5.636687">
        <ele>16.478592</ele>
        <time>2026-03-05T22:29:48.853Z</time>
      </trkpt>
      <trkpt lat="52.104158" lon="5.636148">
        <ele>16.376383</ele>
        <time>2026-03-05T22:29:52.561Z</time>
      </trkpt>
      <trkpt lat="52.104047" lon="5.632552">
        <ele>15.639147</ele>
        <time>2026-03-05T22:30:16.953Z</time>
      </trkpt>
      <trkpt lat="52.103988" lon="5.630943">
        <ele>15.236316</ele>
        <time>2026-03-05T22:30:27.736Z</time>
      </trkpt>
      <trkpt lat="52.104006" lon="5.629586">
        <ele>14.824023</ele>
        <time>2026-03-05T22:30:36.284Z</time>
      </trkpt>
      <trkpt lat="52.103942" lon="5.629246">
        <ele>14.711776</ele>
        <time>2026-03-05T22:30:38.563Z</time>
      </trkpt>
      <trkpt lat="52.103764" lon="5.628686">
        <ele>14.512747</ele>
        <time>2026-03-05T22:30:42.623Z</time>
      </trkpt>
      <trkpt lat="52.103720" lon="5.628216">
        <ele>14.362678</ele>
        <time>2026-03-05T22:30:45.758Z</time>
      </trkpt>
      <trkpt lat="52.103736" lon="5.627873">
        <ele>14.254098</ele>
        <time>2026-03-05T22:30:48.048Z</time>
      </trkpt>
      <trkpt lat="52.103756" lon="5.627538">
        <ele>14.235021</ele>
        <time>2026-03-05T22:30:50.324Z</time>
      </trkpt>
      <trkpt lat="52.103864" lon="5.627006">
        <ele>14.208148</ele>
        <time>2026-03-05T22:30:54.242Z</time>
      </trkpt>
      <trkpt lat="52.103885" lon="5.626768">
        <ele>14.196615</ele>
        <time>2026-03-05T22:30:56.006Z</time>
      </trkpt>
      <trkpt lat="52.103865" lon="5.626417">
        <ele>14.179708</ele>
        <time>2026-03-05T22:30:58.707Z</time>
      </trkpt>
      <trkpt lat="52.103791" lon="5.626129">
        <ele>14.164735</ele>
        <time>2026-03-05T22:31:01.044Z</time>
      </trkpt>
      <trkpt lat="52.103696" lon="5.625890">
        <ele>14.151081</ele>
        <time>2026-03-05T22:31:03.121Z</time>
      </trkpt>
      <trkpt lat="52.103397" lon="5.625310">
        <ele>14.114763</ele>
        <time>2026-03-05T22:31:08.463Z</time>
      </trkpt>
      <trkpt lat="52.103302" lon="5.625124">
        <ele>14.117122</ele>
        <time>2026-03-05T22:31:10.139Z</time>
      </trkpt>
      <trkpt lat="52.102768" lon="5.624094">
        <ele>14.180865</ele>
        <time>2026-03-05T22:31:19.965Z</time>
      </trkpt>
      <trkpt lat="52.102586" lon="5.623624">
        <ele>14.207140</ele>
        <time>2026-03-05T22:31:24.267Z</time>
      </trkpt>
      <trkpt lat="52.102378" lon="5.623045">
        <ele>14.238862</ele>
        <time>2026-03-05T22:31:29.455Z</time>
      </trkpt>
      <trkpt lat="52.102033" lon="5.621884">
        <ele>14.250185</ele>
        <time>2026-03-05T22:31:39.462Z</time>
      </trkpt>
      <trkpt lat="52.101978" lon="5.621731">
        <ele>14.250433</ele>
        <time>2026-03-05T22:31:40.844Z</time>
      </trkpt>
      <trkpt lat="52.101754" lon="5.620988">
        <ele>14.251590</ele>
        <time>2026-03-05T22:31:46.922Z</time>
      </trkpt>
      <trkpt lat="52.101503" lon="5.620388">
        <ele>14.252605</ele>
        <time>2026-03-05T22:31:51.749Z</time>
      </trkpt>
      <trkpt lat="52.101471" lon="5.620328">
        <ele>14.252716</ele>
        <time>2026-03-05T22:31:52.257Z</time>
      </trkpt>
      <trkpt lat="52.100777" lon="5.619615">
        <ele>14.025505</ele>
        <time>2026-03-05T22:32:00.992Z</time>
      </trkpt>
      <trkpt lat="52.100355" lon="5.618987">
        <ele>13.862843</ele>
        <time>2026-03-05T22:32:07.337Z</time>
      </trkpt>
      <trkpt lat="52.100116" lon="5.618679">
        <ele>13.776121</ele>
        <time>2026-03-05T22:32:10.900Z</time>
      </trkpt>
      <trkpt lat="52.100072" lon="5.618656">
        <ele>13.762974</ele>
        <time>2026-03-05T22:32:11.451Z</time>
      </trkpt>
      <trkpt lat="52.099880" lon="5.618610">
        <ele>13.738014</ele>
        <time>2026-03-05T22:32:13.805Z</time>
      </trkpt>
      <trkpt lat="52.099741" lon="5.618658">
        <ele>13.734323</ele>
        <time>2026-03-05T22:32:15.555Z</time>
      </trkpt>
      <trkpt lat="52.099193" lon="5.618969">
        <ele>13.719246</ele>
        <time>2026-03-05T22:32:22.654Z</time>
      </trkpt>
      <trkpt lat="52.098853" lon="5.619052">
        <ele>13.710315</ele>
        <time>2026-03-05T22:32:26.711Z</time>
      </trkpt>
      <trkpt lat="52.098440" lon="5.618960">
        <ele>13.699485</ele>
        <time>2026-03-05T22:32:31.395Z</time>
      </trkpt>
      <trkpt lat="52.097470" lon="5.618520">
        <ele>13.719139</ele>
        <time>2026-03-05T22:32:42.876Z</time>
      </trkpt>
      <trkpt lat="52.096917" lon="5.618216">
        <ele>13.737053</ele>
        <time>2026-03-05T22:32:49.912Z</time>
      </trkpt>
      <trkpt lat="52.095748" lon="5.617413">
        <ele>13.995369</ele>
        <time>2026-03-05T22:33:06.342Z</time>
      </trkpt>
      <trkpt lat="52.095579" lon="5.617300">
        <ele>14.047457</ele>
        <time>2026-03-05T22:33:08.638Z</time>
      </trkpt>
      <trkpt lat="52.095337" lon="5.617077">
        <ele>14.126740</ele>
        <time>2026-03-05T22:33:12.167Z</time>
      </trkpt>
      <trkpt lat="52.095317" lon="5.616945">
        <ele>14.150552</ele>
        <time>2026-03-05T22:33:13.595Z</time>
      </trkpt>
      <trkpt lat="52.095215" lon="5.616766">
        <ele>14.193315</ele>
        <time>2026-03-05T22:33:16.162Z</time>
      </trkpt>
      <trkpt lat="52.095209" lon="5.616637">
        <ele>14.215974</ele>
        <time>2026-03-05T22:33:17.511Z</time>
      </trkpt>
      <trkpt lat="52.095427" lon="5.616157">
        <ele>14.308994</ele>
        <time>2026-03-05T22:33:23.817Z</time>
      </trkpt>
      <trkpt lat="52.096390" lon="5.614830">
        <ele>14.597444</ele>
        <time>2026-03-05T22:33:45.427Z</time>
      </trkpt>
      <trkpt lat="52.096615" lon="5.614556">
        <ele>14.661684</ele>
        <time>2026-03-05T22:33:50.119Z</time>
      </trkpt>
      <trkpt lat="52.096568" lon="5.614521">
        <ele>14.673500</ele>
        <time>2026-03-05T22:33:50.968Z</time>
      </trkpt>
      <trkpt lat="52.096513" lon="5.614495">
        <ele>14.659342</ele>
        <time>2026-03-05T22:33:51.659Z</time>
      </trkpt>
      <trkpt lat="52.094884" lon="5.613867">
        <ele>14.244405</ele>
        <time>2026-03-05T22:34:10.150Z</time>
      </trkpt>
      <trkpt lat="52.094120" lon="5.613573">
        <ele>13.992460</ele>
        <time>2026-03-05T22:34:18.494Z</time>
      </trkpt>
      <trkpt lat="52.093252" lon="5.613284">
        <ele>13.702051</ele>
        <time>2026-03-05T22:34:28.388Z</time>
      </trkpt>
      <trkpt lat="52.092606" lon="5.613068">
        <ele>13.558816</ele>
        <time>2026-03-05T22:34:35.679Z</time>
      </trkpt>
      <trkpt lat="52.092541" lon="5.613048">
        <ele>13.547520</ele>
        <time>2026-03-05T22:34:36.435Z</time>
      </trkpt>
      <trkpt lat="52.092078" lon="5.612886">
        <ele>13.466650</ele>
        <time>2026-03-05T22:34:41.975Z</time>
      </trkpt>
      <trkpt lat="52.091620" lon="5.612679">
        <ele>13.385481</ele>
        <time>2026-03-05T22:34:47.509Z</time>
      </trkpt>
      <trkpt lat="52.090929" lon="5.612375">
        <ele>13.234352</ele>
        <time>2026-03-05T22:34:55.604Z</time>
      </trkpt>
      <trkpt lat="52.090620" lon="5.612239">
        <ele>13.156374</ele>
        <time>2026-03-05T22:34:59.273Z</time>
      </trkpt>
      <trkpt lat="52.089657" lon="5.611773">
        <ele>12.911634</ele>
        <time>2026-03-05T22:35:10.365Z</time>
      </trkpt>
      <trkpt lat="52.089622" lon="5.611756">
        <ele>12.902736</ele>
        <time>2026-03-05T22:35:10.769Z</time>
      </trkpt>
      <trkpt lat="52.088869" lon="5.611389">
        <ele>12.770449</ele>
        <time>2026-03-05T22:35:19.442Z</time>
      </trkpt>
      <trkpt lat="52.088612" lon="5.611264">
        <ele>12.726409</ele>
        <time>2026-03-05T22:35:22.470Z</time>
      </trkpt>
      <trkpt lat="52.087820" lon="5.610910">
        <ele>12.596328</ele>
        <time>2026-03-05T22:35:31.998Z</time>
      </trkpt>
      <trkpt lat="52.087640" lon="5.610800">
        <ele>12.590028</ele>
        <time>2026-03-05T22:35:34.274Z</time>
      </trkpt>
      <trkpt lat="52.087550" lon="5.610750">
        <ele>12.586912</ele>
        <time>2026-03-05T22:35:35.397Z</time>
      </trkpt>
      <trkpt lat="52.085386" lon="5.609055">
        <ele>12.394596</ele>
        <time>2026-03-05T22:36:03.581Z</time>
      </trkpt>
      <trkpt lat="52.085499" lon="5.608111">
        <ele>12.302765</ele>
        <time>2026-03-05T22:36:12.827Z</time>
      </trkpt>
      <trkpt lat="52.085488" lon="5.607916">
        <ele>12.284068</ele>
        <time>2026-03-05T22:36:14.706Z</time>
      </trkpt>
      <trkpt lat="52.085429" lon="5.607765">
        <ele>12.266982</ele>
        <time>2026-03-05T22:36:16.393Z</time>
      </trkpt>
      <trkpt lat="52.085379" lon="5.607704">
        <ele>12.254959</ele>
        <time>2026-03-05T22:36:17.372Z</time>
      </trkpt>
      <trkpt lat="52.085315" lon="5.607670">
        <ele>12.231237</ele>
        <time>2026-03-05T22:36:18.398Z</time>
      </trkpt>
      <trkpt lat="52.085443" lon="5.607004">
        <ele>12.080153</ele>
        <time>2026-03-05T22:36:23.025Z</time>
      </trkpt>
      <trkpt lat="52.085502" lon="5.606556">
        <ele>11.980954</ele>
        <time>2026-03-05T22:36:25.996Z</time>
      </trkpt>
      <trkpt lat="52.085608" lon="5.606185">
        <ele>11.892370</ele>
        <time>2026-03-05T22:36:28.691Z</time>
      </trkpt>
      <trkpt lat="52.085704" lon="5.605970">
        <ele>11.834829</ele>
        <time>2026-03-05T22:36:30.550Z</time>
      </trkpt>
      <trkpt lat="52.086051" lon="5.605515">
        <ele>11.677817</ele>
        <time>2026-03-05T22:36:35.549Z</time>
      </trkpt>
      <trkpt lat="52.086076" lon="5.605404">
        <ele>11.652221</ele>
        <time>2026-03-05T22:36:36.345Z</time>
      </trkpt>
      <trkpt lat="52.086131" lon="5.605340">
        <ele>11.628398</ele>
        <time>2026-03-05T22:36:37.077Z</time>
      </trkpt>
      <trkpt lat="52.086179" lon="5.605286">
        <ele>11.623057</ele>
        <time>2026-03-05T22:36:37.709Z</time>
      </trkpt>
      <trkpt lat="52.086249" lon="5.605276">
        <ele>11.619810</ele>
        <time>2026-03-05T22:36:38.467Z</time>
      </trkpt>
      <trkpt lat="52.086950" lon="5.604401">
        <ele>11.578979</ele>
        <time>2026-03-05T22:36:48.195Z</time>
      </trkpt>
      <trkpt lat="52.087108" lon="5.604103">
        <ele>11.567801</ele>
        <time>2026-03-05T22:36:51.203Z</time>
      </trkpt>
      <trkpt lat="52.087256" lon="5.603671">
        <ele>11.553755</ele>
        <time>2026-03-05T22:36:55.090Z</time>
      </trkpt>
      <trkpt lat="52.087294" lon="5.603499">
        <ele>11.548564</ele>
        <time>2026-03-05T22:36:56.560Z</time>
      </trkpt>
      <trkpt lat="52.087304" lon="5.603294">
        <ele>11.542724</ele>
        <time>2026-03-05T22:36:58.209Z</time>
      </trkpt>
      <trkpt lat="52.087418" lon="5.601942">
        <ele>11.526414</ele>
        <time>2026-03-05T22:37:08.539Z</time>
      </trkpt>
      <trkpt lat="52.087468" lon="5.601695">
        <ele>11.523362</ele>
        <time>2026-03-05T22:37:10.434Z</time>
      </trkpt>
      <trkpt lat="52.087512" lon="5.601578">
        <ele>11.521752</ele>
        <time>2026-03-05T22:37:11.426Z</time>
      </trkpt>
      <trkpt lat="52.087562" lon="5.600600">
        <ele>11.510233</ele>
        <time>2026-03-05T22:37:18.321Z</time>
      </trkpt>
      <trkpt lat="52.087565" lon="5.600125">
        <ele>11.464402</ele>
        <time>2026-03-05T22:37:21.495Z</time>
      </trkpt>
      <trkpt lat="52.087665" lon="5.600143">
        <ele>11.438389</ele>
        <time>2026-03-05T22:37:22.565Z</time>
      </trkpt>
      <trkpt lat="52.087741" lon="5.600157">
        <ele>11.418613</ele>
        <time>2026-03-05T22:37:23.383Z</time>
      </trkpt>
      <trkpt lat="52.087756" lon="5.600112">
        <ele>11.410479</ele>
        <time>2026-03-05T22:37:23.714Z</time>
      </trkpt>
      <trkpt lat="52.087820" lon="5.598953">
        <ele>11.225602</ele>
        <time>2026-03-05T22:37:31.450Z</time>
      </trkpt>
      <trkpt lat="52.087785" lon="5.598175">
        <ele>11.101668</ele>
        <time>2026-03-05T22:37:37.038Z</time>
      </trkpt>
      <trkpt lat="52.087784" lon="5.598133">
        <ele>11.094990</ele>
        <time>2026-03-05T22:37:37.360Z</time>
      </trkpt>
      <trkpt lat="52.087787" lon="5.597755">
        <ele>11.031052</ele>
        <time>2026-03-05T22:37:40.088Z</time>
      </trkpt>
      <trkpt lat="52.087755" lon="5.597375">
        <ele>10.940111</ele>
        <time>2026-03-05T22:37:42.840Z</time>
      </trkpt>
      <trkpt lat="52.087772" lon="5.597124">
        <ele>10.880238</ele>
        <time>2026-03-05T22:37:44.598Z</time>
      </trkpt>
      <trkpt lat="52.087752" lon="5.596998">
        <ele>10.849383</ele>
        <time>2026-03-05T22:37:45.475Z</time>
      </trkpt>
      <trkpt lat="52.087694" lon="5.596637">
        <ele>10.760912</ele>
        <time>2026-03-05T22:37:48.034Z</time>
      </trkpt>
      <trkpt lat="52.087597" lon="5.595356">
        <ele>10.454887</ele>
        <time>2026-03-05T22:37:56.408Z</time>
      </trkpt>
      <trkpt lat="52.087517" lon="5.594642">
        <ele>10.319751</ele>
        <time>2026-03-05T22:38:01.021Z</time>
      </trkpt>
      <trkpt lat="52.087455" lon="5.593658">
        <ele>10.216593</ele>
        <time>2026-03-05T22:38:07.610Z</time>
      </trkpt>
      <trkpt lat="52.087499" lon="5.593552">
        <ele>10.203253</ele>
        <time>2026-03-05T22:38:08.499Z</time>
      </trkpt>
      <trkpt lat="52.087705" lon="5.593337">
        <ele>10.161717</ele>
        <time>2026-03-05T22:38:11.356Z</time>
      </trkpt>
      <trkpt lat="52.087932" lon="5.593299">
        <ele>10.122987</ele>
        <time>2026-03-05T22:38:14.094Z</time>
      </trkpt>
      <trkpt lat="52.088140" lon="5.593203">
        <ele>10.086292</ele>
        <time>2026-03-05T22:38:16.739Z</time>
      </trkpt>
      <trkpt lat="52.088346" lon="5.593066">
        <ele>10.048522</ele>
        <time>2026-03-05T22:38:19.445Z</time>
      </trkpt>
      <trkpt lat="52.088586" lon="5.592791">
        <ele>9.998435</ele>
        <time>2026-03-05T22:38:23.101Z</time>
      </trkpt>
      <trkpt lat="52.088750" lon="5.592500">
        <ele>9.957006</ele>
        <time>2026-03-05T22:38:26.099Z</time>
      </trkpt>
      <trkpt lat="52.088844" lon="5.592246">
        <ele>9.925897</ele>
        <time>2026-03-05T22:38:28.245Z</time>
      </trkpt>
      <trkpt lat="52.088965" lon="5.591687">
        <ele>9.863716</ele>
        <time>2026-03-05T22:38:32.380Z</time>
      </trkpt>
      <trkpt lat="52.089141" lon="5.590783">
        <ele>9.764225</ele>
        <time>2026-03-05T22:38:38.673Z</time>
      </trkpt>
      <trkpt lat="52.089340" lon="5.590150">
        <ele>9.670066</ele>
        <time>2026-03-05T22:38:43.260Z</time>
      </trkpt>
      <trkpt lat="52.089398" lon="5.589819">
        <ele>9.618843</ele>
        <time>2026-03-05T22:38:45.522Z</time>
      </trkpt>
      <trkpt lat="52.089491" lon="5.588801">
        <ele>9.465680</ele>
        <time>2026-03-05T22:38:52.463Z</time>
      </trkpt>
      <trkpt lat="52.089629" lon="5.587921">
        <ele>9.330523</ele>
        <time>2026-03-05T22:38:58.826Z</time>
      </trkpt>
      <trkpt lat="52.090050" lon="5.583860">
        <ele>9.601057</ele>
        <time>2026-03-05T22:39:30.738Z</time>
      </trkpt>
      <trkpt lat="52.090150" lon="5.583310">
        <ele>9.572676</ele>
        <time>2026-03-05T22:39:34.877Z</time>
      </trkpt>
      <trkpt lat="52.090371" lon="5.582365">
        <ele>9.522645</ele>
        <time>2026-03-05T22:39:41.781Z</time>
      </trkpt>
      <trkpt lat="52.090427" lon="5.582097">
        <ele>9.508639</ele>
        <time>2026-03-05T22:39:43.626Z</time>
      </trkpt>
      <trkpt lat="52.090467" lon="5.581658">
        <ele>9.465098</ele>
        <time>2026-03-05T22:39:46.476Z</time>
      </trkpt>
      <trkpt lat="52.090465" lon="5.579884">
        <ele>9.275235</ele>
        <time>2026-03-05T22:39:58.665Z</time>
      </trkpt>
      <trkpt lat="52.090424" lon="5.579336">
        <ele>9.216153</ele>
        <time>2026-03-05T22:40:02.754Z</time>
      </trkpt>
      <trkpt lat="52.089980" lon="5.577614">
        <ele>9.230070</ele>
        <time>2026-03-05T22:40:17.373Z</time>
      </trkpt>
      <trkpt lat="52.089934" lon="5.577309">
        <ele>9.237368</ele>
        <time>2026-03-05T22:40:19.660Z</time>
      </trkpt>
      <trkpt lat="52.089939" lon="5.577015">
        <ele>9.244203</ele>
        <time>2026-03-05T22:40:21.745Z</time>
      </trkpt>
      <trkpt lat="52.090001" lon="5.576765">
        <ele>9.250468</ele>
        <time>2026-03-05T22:40:23.614Z</time>
      </trkpt>
      <trkpt lat="52.089685" lon="5.575527">
        <ele>9.104426</ele>
        <time>2026-03-05T22:40:36.112Z</time>
      </trkpt>
      <trkpt lat="52.089528" lon="5.574981">
        <ele>9.003840</ele>
        <time>2026-03-05T22:40:41.670Z</time>
      </trkpt>
      <trkpt lat="52.089127" lon="5.574023">
        <ele>8.810421</ele>
        <time>2026-03-05T22:40:52.707Z</time>
      </trkpt>
      <trkpt lat="52.089028" lon="5.573649">
        <ele>8.763961</ele>
        <time>2026-03-05T22:40:56.669Z</time>
      </trkpt>
      <trkpt lat="52.088833" lon="5.572719">
        <ele>8.721326</ele>
        <time>2026-03-05T22:41:06.382Z</time>
      </trkpt>
      <trkpt lat="52.088740" lon="5.572130">
        <ele>8.694941</ele>
        <time>2026-03-05T22:41:12.377Z</time>
      </trkpt>
      <trkpt lat="52.088730" lon="5.571860">
        <ele>8.683206</ele>
        <time>2026-03-05T22:41:15.028Z</time>
      </trkpt>
      <trkpt lat="52.088923" lon="5.570041">
        <ele>8.570647</ele>
        <time>2026-03-05T22:41:32.998Z</time>
      </trkpt>
      <trkpt lat="52.088526" lon="5.569838">
        <ele>8.518211</ele>
        <time>2026-03-05T22:41:37.768Z</time>
      </trkpt>
      <trkpt lat="52.088206" lon="5.569442">
        <ele>8.467556</ele>
        <time>2026-03-05T22:41:42.354Z</time>
      </trkpt>
      <trkpt lat="52.088075" lon="5.569322">
        <ele>8.448614</ele>
        <time>2026-03-05T22:41:44.073Z</time>
      </trkpt>
      <trkpt lat="52.087510" lon="5.568810">
        <ele>8.391479</ele>
        <time>2026-03-05T22:41:51.498Z</time>
      </trkpt>
      <trkpt lat="52.087102" lon="5.568500">
        <ele>8.361972</ele>
        <time>2026-03-05T22:41:56.721Z</time>
      </trkpt>
      <trkpt lat="52.085347" lon="5.567001">
        <ele>8.195048</ele>
        <time>2026-03-05T22:42:20.330Z</time>
      </trkpt>
      <trkpt lat="52.085229" lon="5.566939">
        <ele>8.182490</ele>
        <time>2026-03-05T22:42:21.718Z</time>
      </trkpt>
      <trkpt lat="52.084496" lon="5.567048">
        <ele>8.109875</ele>
        <time>2026-03-05T22:42:29.739Z</time>
      </trkpt>
      <trkpt lat="52.084376" lon="5.567068">
        <ele>8.100039</ele>
        <time>2026-03-05T22:42:31.074Z</time>
      </trkpt>
      <trkpt lat="52.084146" lon="5.567093">
        <ele>8.081243</ele>
        <time>2026-03-05T22:42:33.624Z</time>
      </trkpt>
      <trkpt lat="52.083641" lon="5.566904">
        <ele>8.038991</ele>
        <time>2026-03-05T22:42:39.535Z</time>
      </trkpt>
      <trkpt lat="52.083194" lon="5.566716">
        <ele>8.001346</ele>
        <time>2026-03-05T22:42:45.019Z</time>
      </trkpt>
      <trkpt lat="52.082851" lon="5.566626">
        <ele>7.973017</ele>
        <time>2026-03-05T22:42:49.355Z</time>
      </trkpt>
      <trkpt lat="52.081877" lon="5.566987">
        <ele>8.116529</ele>
        <time>2026-03-05T22:43:02.007Z</time>
      </trkpt>
      <trkpt lat="52.081669" lon="5.567017">
        <ele>8.147611</ele>
        <time>2026-03-05T22:43:04.555Z</time>
      </trkpt>
      <trkpt lat="52.081626" lon="5.567895">
        <ele>8.228179</ele>
        <time>2026-03-05T22:43:16.705Z</time>
      </trkpt>
      <trkpt lat="52.081679" lon="5.568391">
        <ele>8.223626</ele>
        <time>2026-03-05T22:43:23.598Z</time>
      </trkpt>
      <trkpt lat="52.081674" lon="5.568810">
        <ele>8.207039</ele>
        <time>2026-03-05T22:43:29.290Z</time>
      </trkpt>
      <trkpt lat="52.081507" lon="5.570045">
        <ele>8.156987</ele>
        <time>2026-03-05T22:43:46.325Z</time>
      </trkpt>
      <trkpt lat="52.081403" lon="5.570519">
        <ele>8.137066</ele>
        <time>2026-03-05T22:43:53.087Z</time>
      </trkpt>
      <trkpt lat="52.081285" lon="5.570891">
        <ele>8.121408</ele>
        <time>2026-03-05T22:43:58.714Z</time>
      </trkpt>
      <trkpt lat="52.081199" lon="5.571105">
        <ele>8.114880</ele>
        <time>2026-03-05T22:44:02.169Z</time>
      </trkpt>
      <trkpt lat="52.081089" lon="5.571286">
        <ele>8.108382</ele>
        <time>2026-03-05T22:44:05.582Z</time>
      </trkpt>
      <trkpt lat="52.080117" lon="5.572752">
        <ele>8.053327</ele>
        <time>2026-03-05T22:44:34.976Z</time>
      </trkpt>
      <trkpt lat="52.079697" lon="5.573778">
        <ele>8.116123</ele>
        <time>2026-03-05T22:44:51.962Z</time>
      </trkpt>
      <trkpt lat="52.079586" lon="5.574049">
        <ele>8.137394</ele>
        <time>2026-03-05T22:44:56.434Z</time>
      </trkpt>
      <trkpt lat="52.078997" lon="5.574260">
        <ele>8.201491</ele>
        <time>2026-03-05T22:45:10.033Z</time>
      </trkpt>
      <trkpt lat="52.078900" lon="5.574329">
        <ele>8.212742</ele>
        <time>2026-03-05T22:45:12.457Z</time>
      </trkpt>
      <trkpt lat="52.078862" lon="5.574411">
        <ele>8.219450</ele>
        <time>2026-03-05T22:45:13.876Z</time>
      </trkpt>
      <trkpt lat="52.078756" lon="5.576618">
        <ele>8.477271</ele>
        <time>2026-03-05T22:45:45.171Z</time>
      </trkpt>
      <trkpt lat="52.078498" lon="5.581432">
        <ele>8.819340</ele>
        <time>2026-03-05T22:46:52.926Z</time>
      </trkpt>
      <trkpt lat="52.078328" lon="5.581427">
        <ele>8.795426</ele>
        <time>2026-03-05T22:46:54.819Z</time>
      </trkpt>
      <trkpt lat="52.078335" lon="5.581209">
        <ele>8.776557</ele>
        <time>2026-03-05T22:46:56.297Z</time>
      </trkpt>
      <trkpt lat="52.078306" lon="5.580914">
        <ele>8.750733</ele>
        <time>2026-03-05T22:46:58.314Z</time>
      </trkpt>
      <trkpt lat="52.078190" lon="5.580440">
        <ele>8.706632</ele>
        <time>2026-03-05T22:47:01.739Z</time>
      </trkpt>
      <trkpt lat="52.078010" lon="5.579970">
        <ele>8.658764</ele>
        <time>2026-03-05T22:47:05.444Z</time>
      </trkpt>
      <trkpt lat="52.077780" lon="5.579660">
        <ele>8.614539</ele>
        <time>2026-03-05T22:47:08.638Z</time>
      </trkpt>
      <trkpt lat="52.075433" lon="5.578508">
        <ele>8.231525</ele>
        <time>2026-03-05T22:47:36.984Z</time>
      </trkpt>
      <trkpt lat="52.075390" lon="5.578487">
        <ele>8.224194</ele>
        <time>2026-03-05T22:47:37.502Z</time>
      </trkpt>
      <trkpt lat="52.073852" lon="5.577720">
        <ele>7.984901</ele>
        <time>2026-03-05T22:47:55.585Z</time>
      </trkpt>
      <trkpt lat="52.072041" lon="5.576844">
        <ele>7.834816</ele>
        <time>2026-03-05T22:48:17.715Z</time>
      </trkpt>
      <trkpt lat="52.071685" lon="5.576669">
        <ele>7.831546</ele>
        <time>2026-03-05T22:48:22.148Z</time>
      </trkpt>
      <trkpt lat="52.069243" lon="5.575470">
        <ele>7.885257</ele>
        <time>2026-03-05T22:48:52.607Z</time>
      </trkpt>
      <trkpt lat="52.068827" lon="5.575256">
        <ele>7.870799</ele>
        <time>2026-03-05T22:48:57.689Z</time>
      </trkpt>
      <trkpt lat="52.068523" lon="5.575178">
        <ele>7.860601</ele>
        <time>2026-03-05T22:49:01.293Z</time>
      </trkpt>
      <trkpt lat="52.068238" lon="5.575215">
        <ele>7.851126</ele>
        <time>2026-03-05T22:49:04.670Z</time>
      </trkpt>
      <trkpt lat="52.068110" lon="5.575270">
        <ele>7.846739</ele>
        <time>2026-03-05T22:49:06.233Z</time>
      </trkpt>
      <trkpt lat="52.067990" lon="5.575363">
        <ele>7.842334</ele>
        <time>2026-03-05T22:49:07.798Z</time>
      </trkpt>
      <trkpt lat="52.067930" lon="5.575410">
        <ele>7.840128</ele>
        <time>2026-03-05T22:49:08.559Z</time>
      </trkpt>
      <trkpt lat="52.067313" lon="5.576025">
        <ele>7.792969</ele>
        <time>2026-03-05T22:49:16.942Z</time>
      </trkpt>
      <trkpt lat="52.067082" lon="5.576251">
        <ele>7.768287</ele>
        <time>2026-03-05T22:49:20.108Z</time>
      </trkpt>
      <trkpt lat="52.067061" lon="5.576182">
        <ele>7.763954</ele>
        <time>2026-03-05T22:49:20.647Z</time>
      </trkpt>
      <trkpt lat="52.067004" lon="5.575974">
        <ele>7.751135</ele>
        <time>2026-03-05T22:49:22.289Z</time>
      </trkpt>
      <trkpt lat="52.067004" lon="5.575835">
        <ele>7.743312</ele>
        <time>2026-03-05T22:49:23.289Z</time>
      </trkpt>
      <trkpt lat="52.068488" lon="5.564398">
        <ele>7.389876</ele>
        <time>2026-03-05T22:50:47.445Z</time>
      </trkpt>
      <trkpt lat="52.068806" lon="5.561969">
        <ele>7.305992</ele>
        <time>2026-03-05T22:51:05.333Z</time>
      </trkpt>
      <trkpt lat="52.068878" lon="5.561409">
        <ele>7.285595</ele>
        <time>2026-03-05T22:51:09.412Z</time>
      </trkpt>
      <trkpt lat="52.068889" lon="5.561214">
        <ele>7.278614</ele>
        <time>2026-03-05T22:51:10.810Z</time>
      </trkpt>
      <trkpt lat="52.068854" lon="5.561012">
        <ele>7.271132</ele>
        <time>2026-03-05T22:51:12.296Z</time>
      </trkpt>
      <trkpt lat="52.068778" lon="5.560913">
        <ele>7.265485</ele>
        <time>2026-03-05T22:51:13.405Z</time>
      </trkpt>
      <trkpt lat="52.068493" lon="5.560851">
        <ele>7.248808</ele>
        <time>2026-03-05T22:51:16.712Z</time>
      </trkpt>
      <trkpt lat="52.067767" lon="5.560806">
        <ele>7.294431</ele>
        <time>2026-03-05T22:51:25.211Z</time>
      </trkpt>
      <trkpt lat="52.067304" lon="5.560778">
        <ele>7.338654</ele>
        <time>2026-03-05T22:51:30.952Z</time>
      </trkpt>
      <trkpt lat="52.067059" lon="5.560673">
        <ele>7.362836</ele>
        <time>2026-03-05T22:51:34.238Z</time>
      </trkpt>
      <trkpt lat="52.066745" lon="5.560574">
        <ele>7.393365</ele>
        <time>2026-03-05T22:51:38.302Z</time>
      </trkpt>
      <trkpt lat="52.066083" lon="5.560497">
        <ele>7.209943</ele>
        <time>2026-03-05T22:51:46.282Z</time>
      </trkpt>
      <trkpt lat="52.066052" lon="5.560495">
        <ele>7.196735</ele>
        <time>2026-03-05T22:51:46.639Z</time>
      </trkpt>
      <trkpt lat="52.065768" lon="5.560477">
        <ele>7.075739</ele>
        <time>2026-03-05T22:51:49.836Z</time>
      </trkpt>
      <trkpt lat="52.065725" lon="5.560474">
        <ele>7.057417</ele>
        <time>2026-03-05T22:51:50.306Z</time>
      </trkpt>
      <trkpt lat="52.064977" lon="5.560465">
        <ele>6.738970</ele>
        <time>2026-03-05T22:51:57.930Z</time>
      </trkpt>
      <trkpt lat="52.064851" lon="5.560463">
        <ele>6.685327</ele>
        <time>2026-03-05T22:51:59.146Z</time>
      </trkpt>
      <trkpt lat="52.064262" lon="5.560458">
        <ele>6.419389</ele>
        <time>2026-03-05T22:52:05.020Z</time>
      </trkpt>
      <trkpt lat="52.063795" lon="5.560410">
        <ele>6.205859</ele>
        <time>2026-03-05T22:52:09.909Z</time>
      </trkpt>
      <trkpt lat="52.063818" lon="5.559982">
        <ele>6.085329</ele>
        <time>2026-03-05T22:52:13.905Z</time>
      </trkpt>
      <trkpt lat="52.062767" lon="5.559777">
        <ele>5.919185</ele>
        <time>2026-03-05T22:52:37.336Z</time>
      </trkpt>
      <trkpt lat="52.059598" lon="5.559600">
        <ele>6.744319</ele>
        <time>2026-03-05T22:53:50.758Z</time>
      </trkpt>
      <trkpt lat="52.059297" lon="5.559541">
        <ele>6.814426</ele>
        <time>2026-03-05T22:53:57.964Z</time>
      </trkpt>
      <trkpt lat="52.059166" lon="5.559483">
        <ele>6.845821</ele>
        <time>2026-03-05T22:54:01.178Z</time>
      </trkpt>
      <trkpt lat="52.059088" lon="5.559414">
        <ele>6.866354</ele>
        <time>2026-03-05T22:54:03.295Z</time>
      </trkpt>
      <trkpt lat="52.059020" lon="5.559276">
        <ele>6.891498</ele>
        <time>2026-03-05T22:54:05.845Z</time>
      </trkpt>
      <trkpt lat="52.058898" lon="5.559425">
        <ele>6.926778</ele>
        <time>2026-03-05T22:54:07.842Z</time>
      </trkpt>
      <trkpt lat="52.058858" lon="5.559330">
        <ele>6.943148</ele>
        <time>2026-03-05T22:54:08.756Z</time>
      </trkpt>
      <trkpt lat="52.058814" lon="5.559242">
        <ele>6.959275</ele>
        <time>2026-03-05T22:54:09.661Z</time>
      </trkpt>
      <trkpt lat="52.058504" lon="5.559182">
        <ele>7.031466</ele>
        <time>2026-03-05T22:54:16.903Z</time>
      </trkpt>
      <trkpt lat="52.057865" lon="5.558978">
        <ele>7.120826</ele>
        <time>2026-03-05T22:54:31.298Z</time>
      </trkpt>
      <trkpt lat="52.056352" lon="5.558643">
        <ele>6.874687</ele>
        <time>2026-03-05T22:55:04.216Z</time>
      </trkpt>
      <trkpt lat="52.055796" lon="5.558597">
        <ele>6.926167</ele>
        <time>2026-03-05T22:55:16.404Z</time>
      </trkpt>
      <trkpt lat="52.054766" lon="5.558512">
        <ele>7.090149</ele>
        <time>2026-03-05T22:55:40.134Z</time>
      </trkpt>
      <trkpt lat="52.054023" lon="5.558381">
        <ele>7.262920</ele>
        <time>2026-03-05T22:55:57.658Z</time>
      </trkpt>
      <trkpt lat="52.052595" lon="5.558055">
        <ele>7.667636</ele>
        <time>2026-03-05T22:56:31.143Z</time>
      </trkpt>
      <trkpt lat="52.050697" lon="5.557447">
        <ele>7.905603</ele>
        <time>2026-03-05T22:57:15.044Z</time>
      </trkpt>
      <trkpt lat="52.050512" lon="5.557399">
        <ele>7.896325</ele>
        <time>2026-03-05T22:57:17.113Z</time>
      </trkpt>
      <trkpt lat="52.050436" lon="5.557443">
        <ele>7.892329</ele>
        <time>2026-03-05T22:57:18.003Z</time>
      </trkpt>
      <trkpt lat="52.050380" lon="5.557579">
        <ele>7.887344</ele>
        <time>2026-03-05T22:57:19.118Z</time>
      </trkpt>
      <trkpt lat="52.050242" lon="5.558350">
        <ele>7.862886</ele>
        <time>2026-03-05T22:57:24.623Z</time>
      </trkpt>
      <trkpt lat="52.050195" lon="5.558483">
        <ele>7.858214</ele>
        <time>2026-03-05T22:57:25.667Z</time>
      </trkpt>
      <trkpt lat="52.050096" lon="5.558639">
        <ele>7.851386</ele>
        <time>2026-03-05T22:57:27.219Z</time>
      </trkpt>
      <trkpt lat="52.050002" lon="5.558677">
        <ele>7.846589</ele>
        <time>2026-03-05T22:57:28.337Z</time>
      </trkpt>
      <trkpt lat="52.049942" lon="5.558664">
        <ele>7.843591</ele>
        <time>2026-03-05T22:57:29.024Z</time>
      </trkpt>
      <trkpt lat="52.049423" lon="5.558301">
        <ele>7.906497</ele>
        <time>2026-03-05T22:57:35.909Z</time>
      </trkpt>
      <trkpt lat="52.049341" lon="5.558316">
        <ele>7.936709</ele>
        <time>2026-03-05T22:57:36.981Z</time>
      </trkpt>
      <trkpt lat="52.049256" lon="5.558398">
        <ele>7.972895</ele>
        <time>2026-03-05T22:57:38.303Z</time>
      </trkpt>
      <trkpt lat="52.049233" lon="5.558421">
        <ele>7.982781</ele>
        <time>2026-03-05T22:57:38.669Z</time>
      </trkpt>
      <trkpt lat="52.049060" lon="5.558546">
        <ele>8.052093</ele>
        <time>2026-03-05T22:57:41.317Z</time>
      </trkpt>
      <trkpt lat="52.048852" lon="5.558567">
        <ele>8.128395</ele>
        <time>2026-03-05T22:57:44.333Z</time>
      </trkpt>
      <trkpt lat="52.048868" lon="5.558178">
        <ele>8.216180</ele>
        <time>2026-03-05T22:57:47.745Z</time>
      </trkpt>
      <trkpt lat="52.048877" lon="5.558052">
        <ele>8.244742</ele>
        <time>2026-03-05T22:57:48.831Z</time>
      </trkpt>
      <trkpt lat="52.048878" lon="5.558038">
        <ele>8.247915</ele>
        <time>2026-03-05T22:57:48.951Z</time>
      </trkpt>
      <trkpt lat="52.048881" lon="5.557973">
        <ele>8.262592</ele>
        <time>2026-03-05T22:57:49.482Z</time>
      </trkpt>
      <trkpt lat="52.048907" lon="5.557648">
        <ele>8.336387</ele>
        <time>2026-03-05T22:57:53.021Z</time>
      </trkpt>
      <trkpt lat="52.049051" lon="5.556789">
        <ele>8.457175</ele>
        <time>2026-03-05T22:58:02.151Z</time>
      </trkpt>
      <trkpt lat="52.049088" lon="5.556575">
        <ele>8.430356</ele>
        <time>2026-03-05T22:58:04.333Z</time>
      </trkpt>
      <trkpt lat="52.049256" lon="5.555550">
        <ele>8.302383</ele>
        <time>2026-03-05T22:58:45.245Z</time>
      </trkpt>
      <trkpt lat="52.049396" lon="5.554446">
        <ele>8.166393</ele>
        <time>2026-03-05T22:59:28.456Z</time>
      </trkpt>
      <trkpt lat="52.049546" lon="5.552785">
        <ele>7.967803</ele>
        <time>2026-03-05T23:00:33.711Z</time>
      </trkpt>
      <trkpt lat="52.049582" lon="5.552630">
        <ele>7.948283</ele>
        <time>2026-03-05T23:00:40.169Z</time>
      </trkpt>
      <trkpt lat="52.049720" lon="5.552486">
        <ele>7.916870</ele>
        <time>2026-03-05T23:00:50.587Z</time>
      </trkpt>
      <trkpt lat="52.049802" lon="5.552297">
        <ele>7.889620</ele>
        <time>2026-03-05T23:00:59.542Z</time>
      </trkpt>
      <trkpt lat="52.049809" lon="5.552209">
        <ele>7.879166</ele>
        <time>2026-03-05T23:01:02.986Z</time>
      </trkpt>
      <trkpt lat="52.049875" lon="5.550574">
        <ele>7.557288</ele>
        <time>2026-03-05T23:02:05.994Z</time>
      </trkpt>
      <trkpt lat="52.049903" lon="5.549894">
        <ele>7.375014</ele>
        <time>2026-03-05T23:02:14.668Z</time>
      </trkpt>
      <trkpt lat="52.050485" lon="5.548175">
        <ele>6.922442</ele>
        <time>2026-03-05T23:02:39.706Z</time>
      </trkpt>
      <trkpt lat="52.051493" lon="5.545494">
        <ele>6.615309</ele>
        <time>2026-03-05T23:03:22.034Z</time>
      </trkpt>
      <trkpt lat="52.051533" lon="5.545306">
        <ele>6.622276</ele>
        <time>2026-03-05T23:03:24.758Z</time>
      </trkpt>
      <trkpt lat="52.051499" lon="5.545123">
        <ele>6.628970</ele>
        <time>2026-03-05T23:03:27.379Z</time>
      </trkpt>
      <trkpt lat="52.051346" lon="5.544920">
        <ele>6.640214</ele>
        <time>2026-03-05T23:03:31.791Z</time>
      </trkpt>
      <trkpt lat="52.050902" lon="5.543490">
        <ele>6.692520</ele>
        <time>2026-03-05T23:03:54.180Z</time>
      </trkpt>
      <trkpt lat="52.050259" lon="5.542450">
        <ele>6.714101</ele>
        <time>2026-03-05T23:04:14.778Z</time>
      </trkpt>
      <trkpt lat="52.050232" lon="5.542370">
        <ele>6.715436</ele>
        <time>2026-03-05T23:04:16.049Z</time>
      </trkpt>
      <trkpt lat="52.049627" lon="5.541439">
        <ele>6.746819</ele>
        <time>2026-03-05T23:05:08.612Z</time>
      </trkpt>
      <trkpt lat="52.048997" lon="5.540483">
        <ele>6.856515</ele>
        <time>2026-03-05T23:06:03.368Z</time>
      </trkpt>
      <trkpt lat="52.048661" lon="5.539992">
        <ele>6.914022</ele>
        <time>2026-03-05T23:06:32.706Z</time>
      </trkpt>
      <trkpt lat="52.048057" lon="5.539281">
        <ele>6.959941</ele>
        <time>2026-03-05T23:07:20.547Z</time>
      </trkpt>
      <trkpt lat="52.047984" lon="5.539481">
        <ele>6.959317</ele>
        <time>2026-03-05T23:07:22.260Z</time>
      </trkpt>
      <trkpt lat="52.047576" lon="5.540593">
        <ele>6.955841</ele>
        <time>2026-03-05T23:07:31.395Z</time>
      </trkpt>
      <trkpt lat="52.047518" lon="5.540675">
        <ele>6.955506</ele>
        <time>2026-03-05T23:07:32.232Z</time>
      </trkpt>
      <trkpt lat="52.047417" lon="5.540699">
        <ele>6.955061</ele>
        <time>2026-03-05T23:07:33.324Z</time>
      </trkpt>
      <trkpt lat="52.045834" lon="5.539364">
        <ele>7.048723</ele>
        <time>2026-03-05T23:07:54.748Z</time>
      </trkpt>
      <trkpt lat="52.044840" lon="5.538525">
        <ele>7.270181</ele>
        <time>2026-03-05T23:08:08.881Z</time>
      </trkpt>
      <trkpt lat="52.043822" lon="5.537648">
        <ele>7.558799</ele>
        <time>2026-03-05T23:08:23.636Z</time>
      </trkpt>
      <trkpt lat="52.043643" lon="5.537475">
        <ele>7.609045</ele>
        <time>2026-03-05T23:08:26.242Z</time>
      </trkpt>
      <trkpt lat="52.043527" lon="5.537250">
        <ele>7.652616</ele>
        <time>2026-03-05T23:08:28.475Z</time>
      </trkpt>
      <trkpt lat="52.043478" lon="5.537013">
        <ele>7.689722</ele>
        <time>2026-03-05T23:08:30.378Z</time>
      </trkpt>
      <trkpt lat="52.043486" lon="5.536506">
        <ele>7.764990</ele>
        <time>2026-03-05T23:08:34.369Z</time>
      </trkpt>
      <trkpt lat="52.043513" lon="5.535608">
        <ele>7.898420</ele>
        <time>2026-03-05T23:08:41.761Z</time>
      </trkpt>
      <trkpt lat="52.043557" lon="5.535609">
        <ele>7.909038</ele>
        <time>2026-03-05T23:08:42.539Z</time>
      </trkpt>
      <trkpt lat="52.043555" lon="5.535406">
        <ele>7.939169</ele>
        <time>2026-03-05T23:08:44.117Z</time>
      </trkpt>
      <trkpt lat="52.043494" lon="5.535154">
        <ele>7.907508</ele>
        <time>2026-03-05T23:08:46.159Z</time>
      </trkpt>
      <trkpt lat="52.043409" lon="5.535000">
        <ele>7.841129</ele>
        <time>2026-03-05T23:08:47.643Z</time>
      </trkpt>
      <trkpt lat="52.043305" lon="5.534901">
        <ele>7.778272</ele>
        <time>2026-03-05T23:08:48.977Z</time>
      </trkpt>
      <trkpt lat="52.043166" lon="5.534882">
        <ele>7.705518</ele>
        <time>2026-03-05T23:08:50.429Z</time>
      </trkpt>
      <trkpt lat="52.042844" lon="5.534851">
        <ele>7.537277</ele>
        <time>2026-03-05T23:08:55.105Z</time>
      </trkpt>
      <trkpt lat="52.042427" lon="5.534788">
        <ele>7.318844</ele>
        <time>2026-03-05T23:08:59.453Z</time>
      </trkpt>
      <trkpt lat="52.042272" lon="5.534679">
        <ele>7.230762</ele>
        <time>2026-03-05T23:09:01.150Z</time>
      </trkpt>
      <trkpt lat="52.042221" lon="5.534706">
        <ele>7.202787</ele>
        <time>2026-03-05T23:09:01.670Z</time>
      </trkpt>
      <trkpt lat="52.042138" lon="5.534562">
        <ele>7.139477</ele>
        <time>2026-03-05T23:09:02.860Z</time>
      </trkpt>
      <trkpt lat="52.041372" lon="5.532495">
        <ele>6.409622</ele>
        <time>2026-03-05T23:09:17.799Z</time>
      </trkpt>
      <trkpt lat="52.040959" lon="5.531373">
        <ele>6.152309</ele>
        <time>2026-03-05T23:09:27.933Z</time>
      </trkpt>
      <trkpt lat="52.040775" lon="5.530826">
        <ele>6.164600</ele>
        <time>2026-03-05T23:09:32.662Z</time>
      </trkpt>
      <trkpt lat="52.040675" lon="5.530383">
        <ele>6.173903</ele>
        <time>2026-03-05T23:09:36.127Z</time>
      </trkpt>
      <trkpt lat="52.040655" lon="5.530239">
        <ele>6.176813</ele>
        <time>2026-03-05T23:09:37.223Z</time>
      </trkpt>
      <trkpt lat="52.040474" lon="5.528942">
        <ele>6.189724</ele>
        <time>2026-03-05T23:09:47.091Z</time>
      </trkpt>
      <trkpt lat="52.040463" lon="5.528884">
        <ele>6.179087</ele>
        <time>2026-03-05T23:09:47.502Z</time>
      </trkpt>
      <trkpt lat="52.040401" lon="5.528719">
        <ele>6.145199</ele>
        <time>2026-03-05T23:09:48.852Z</time>
      </trkpt>
      <trkpt lat="52.040263" lon="5.528569">
        <ele>6.097899</ele>
        <time>2026-03-05T23:09:50.656Z</time>
      </trkpt>
      <trkpt lat="52.040153" lon="5.528486">
        <ele>6.063345</ele>
        <time>2026-03-05T23:09:51.959Z</time>
      </trkpt>
      <trkpt lat="52.039915" lon="5.528437">
        <ele>5.994988</ele>
        <time>2026-03-05T23:09:54.539Z</time>
      </trkpt>
      <trkpt lat="52.039434" lon="5.528215">
        <ele>5.852518</ele>
        <time>2026-03-05T23:09:59.985Z</time>
      </trkpt>
      <trkpt lat="52.038664" lon="5.527659">
        <ele>5.706422</ele>
        <time>2026-03-05T23:10:09.187Z</time>
      </trkpt>
      <trkpt lat="52.038245" lon="5.527340">
        <ele>5.736024</ele>
        <time>2026-03-05T23:10:14.329Z</time>
      </trkpt>
      <trkpt lat="52.036105" lon="5.525667">
        <ele>6.339040</ele>
        <time>2026-03-05T23:10:45.325Z</time>
      </trkpt>
      <trkpt lat="52.035568" lon="5.525264">
        <ele>6.582017</ele>
        <time>2026-03-05T23:10:53.151Z</time>
      </trkpt>
      <trkpt lat="52.034704" lon="5.524627">
        <ele>6.980744</ele>
        <time>2026-03-05T23:11:05.617Z</time>
      </trkpt>
      <trkpt lat="52.031931" lon="5.522604">
        <ele>7.974668</ele>
        <time>2026-03-05T23:11:45.496Z</time>
      </trkpt>
      <trkpt lat="52.031875" lon="5.522564">
        <ele>7.974011</ele>
        <time>2026-03-05T23:11:46.212Z</time>
      </trkpt>
      <trkpt lat="52.031078" lon="5.522010">
        <ele>7.964712</ele>
        <time>2026-03-05T23:11:56.096Z</time>
      </trkpt>
      <trkpt lat="52.030615" lon="5.521639">
        <ele>7.954192</ele>
        <time>2026-03-05T23:12:01.984Z</time>
      </trkpt>
      <trkpt lat="52.030738" lon="5.521240">
        <ele>7.941278</ele>
        <time>2026-03-05T23:12:06.333Z</time>
      </trkpt>
      <trkpt lat="52.030798" lon="5.521132">
        <ele>7.937067</ele>
        <time>2026-03-05T23:12:07.766Z</time>
      </trkpt>
      <trkpt lat="52.031167" lon="5.520844">
        <ele>7.917815</ele>
        <time>2026-03-05T23:12:14.365Z</time>
      </trkpt>
      <trkpt lat="52.031241" lon="5.520724">
        <ele>7.912899</ele>
        <time>2026-03-05T23:12:16.071Z</time>
      </trkpt>
      <trkpt lat="52.031328" lon="5.520490">
        <ele>7.904988</ele>
        <time>2026-03-05T23:12:18.845Z</time>
      </trkpt>
      <trkpt lat="52.031490" lon="5.520025">
        <ele>7.889525</ele>
        <time>2026-03-05T23:12:24.261Z</time>
      </trkpt>
      <trkpt lat="52.031592" lon="5.519719">
        <ele>7.879454</ele>
        <time>2026-03-05T23:12:26.764Z</time>
      </trkpt>
      <trkpt lat="52.031835" lon="5.518937">
        <ele>7.856320</ele>
        <time>2026-03-05T23:12:32.818Z</time>
      </trkpt>
      <trkpt lat="52.031897" lon="5.518549">
        <ele>7.845892</ele>
        <time>2026-03-05T23:12:35.659Z</time>
      </trkpt>
      <trkpt lat="52.031884" lon="5.518117">
        <ele>7.834641</ele>
        <time>2026-03-05T23:12:38.763Z</time>
      </trkpt>
      <trkpt lat="52.031820" lon="5.517455">
        <ele>7.817208</ele>
        <time>2026-03-05T23:12:43.565Z</time>
      </trkpt>
      <trkpt lat="52.031742" lon="5.516581">
        <ele>7.807659</ele>
        <time>2026-03-05T23:12:49.996Z</time>
      </trkpt>
      <trkpt lat="52.031489" lon="5.514801">
        <ele>7.870807</ele>
        <time>2026-03-05T23:13:03.578Z</time>
      </trkpt>
      <trkpt lat="52.031246" lon="5.513667">
        <ele>7.955574</ele>
        <time>2026-03-05T23:13:12.575Z</time>
      </trkpt>
      <trkpt lat="52.030549" lon="5.509583">
        <ele>8.583371</ele>
        <time>2026-03-05T23:13:46.084Z</time>
      </trkpt>
      <trkpt lat="52.030361" lon="5.508673">
        <ele>8.696322</ele>
        <time>2026-03-05T23:13:53.275Z</time>
      </trkpt>
      <trkpt lat="52.029988" lon="5.507353">
        <ele>8.659036</ele>
        <time>2026-03-05T23:14:03.580Z</time>
      </trkpt>
      <trkpt lat="52.029918" lon="5.507054">
        <ele>8.637708</ele>
        <time>2026-03-05T23:14:05.786Z</time>
      </trkpt>
      <trkpt lat="52.029852" lon="5.506768">
        <ele>8.617344</ele>
        <time>2026-03-05T23:14:07.903Z</time>
      </trkpt>
      <trkpt lat="52.029509" lon="5.505271">
        <ele>8.591413</ele>
        <time>2026-03-05T23:14:19.316Z</time>
      </trkpt>
      <trkpt lat="52.029382" lon="5.504562">
        <ele>8.680905</ele>
        <time>2026-03-05T23:14:24.788Z</time>
      </trkpt>
      <trkpt lat="52.029347" lon="5.503855">
        <ele>8.766865</ele>
        <time>2026-03-05T23:14:30.225Z</time>
      </trkpt>
      <trkpt lat="52.029401" lon="5.502983">
        <ele>8.873078</ele>
        <time>2026-03-05T23:14:37.291Z</time>
      </trkpt>
      <trkpt lat="52.029443" lon="5.502192">
        <ele>9.021909</ele>
        <time>2026-03-05T23:14:43.835Z</time>
      </trkpt>
      <trkpt lat="52.029381" lon="5.501383">
        <ele>9.189499</ele>
        <time>2026-03-05T23:14:50.709Z</time>
      </trkpt>
      <trkpt lat="52.029344" lon="5.500707">
        <ele>9.329012</ele>
        <time>2026-03-05T23:14:56.371Z</time>
      </trkpt>
      <trkpt lat="52.029349" lon="5.500523">
        <ele>9.366873</ele>
        <time>2026-03-05T23:14:57.859Z</time>
      </trkpt>
      <trkpt lat="52.029362" lon="5.500371">
        <ele>9.398420</ele>
        <time>2026-03-05T23:14:59.051Z</time>
      </trkpt>
      <trkpt lat="52.029573" lon="5.499217">
        <ele>9.362610</ele>
        <time>2026-03-05T23:15:07.517Z</time>
      </trkpt>
      <trkpt lat="52.029575" lon="5.499204">
        <ele>9.360203</ele>
        <time>2026-03-05T23:15:07.604Z</time>
      </trkpt>
      <trkpt lat="52.029761" lon="5.498301">
        <ele>9.189218</ele>
        <time>2026-03-05T23:15:13.702Z</time>
      </trkpt>
      <trkpt lat="52.030140" lon="5.497102">
        <ele>8.977081</ele>
        <time>2026-03-05T23:15:22.705Z</time>
      </trkpt>
      <trkpt lat="52.030302" lon="5.496687">
        <ele>9.005657</ele>
        <time>2026-03-05T23:15:26.240Z</time>
      </trkpt>
      <trkpt lat="52.030386" lon="5.496498">
        <ele>9.019213</ele>
        <time>2026-03-05T23:15:27.941Z</time>
      </trkpt>
      <trkpt lat="52.030605" lon="5.495984">
        <ele>9.055564</ele>
        <time>2026-03-05T23:15:32.760Z</time>
      </trkpt>
      <trkpt lat="52.030712" lon="5.495597">
        <ele>9.080232</ele>
        <time>2026-03-05T23:15:36.114Z</time>
      </trkpt>
      <trkpt lat="52.030770" lon="5.495255">
        <ele>9.100857</ele>
        <time>2026-03-05T23:15:38.971Z</time>
      </trkpt>
      <trkpt lat="52.030786" lon="5.494931">
        <ele>9.119755</ele>
        <time>2026-03-05T23:15:41.485Z</time>
      </trkpt>
      <trkpt lat="52.030784" lon="5.494764">
        <ele>9.129466</ele>
        <time>2026-03-05T23:15:42.789Z</time>
      </trkpt>
      <trkpt lat="52.030757" lon="5.493703">
        <ele>9.376651</ele>
        <time>2026-03-05T23:15:50.654Z</time>
      </trkpt>
      <trkpt lat="52.030880" lon="5.492540">
        <ele>9.692474</ele>
        <time>2026-03-05T23:16:00.043Z</time>
      </trkpt>
      <trkpt lat="52.030895" lon="5.492338">
        <ele>9.746928</ele>
        <time>2026-03-05T23:16:02.304Z</time>
      </trkpt>
      <trkpt lat="52.030976" lon="5.489658">
        <ele>11.031509</ele>
        <time>2026-03-05T23:16:34.081Z</time>
      </trkpt>
      <trkpt lat="52.031010" lon="5.488615">
        <ele>11.633064</ele>
        <time>2026-03-05T23:16:46.109Z</time>
      </trkpt>
      <trkpt lat="52.031024" lon="5.488206">
        <ele>11.940287</ele>
        <time>2026-03-05T23:16:50.676Z</time>
      </trkpt>
      <trkpt lat="52.030977" lon="5.488170">
        <ele>12.003625</ele>
        <time>2026-03-05T23:16:51.374Z</time>
      </trkpt>
      <trkpt lat="52.030302" lon="5.487575">
        <ele>12.939698</ele>
        <time>2026-03-05T23:17:02.691Z</time>
      </trkpt>
      <trkpt lat="52.029950" lon="5.487168">
        <ele>13.466300</ele>
        <time>2026-03-05T23:17:09.887Z</time>
      </trkpt>
      <trkpt lat="52.029545" lon="5.486541">
        <ele>14.860586</ele>
        <time>2026-03-05T23:17:20.280Z</time>
      </trkpt>
      <trkpt lat="52.029305" lon="5.486285">
        <ele>15.784320</ele>
        <time>2026-03-05T23:17:26.145Z</time>
      </trkpt>
      <trkpt lat="52.028199" lon="5.485531">
        <ele>19.724634</ele>
        <time>2026-03-05T23:17:54.119Z</time>
      </trkpt>
      <trkpt lat="52.027543" lon="5.485040">
        <ele>23.371626</ele>
        <time>2026-03-05T23:18:13.961Z</time>
      </trkpt>
      <trkpt lat="52.026738" lon="5.484334">
        <ele>27.990714</ele>
        <time>2026-03-05T23:18:41.294Z</time>
      </trkpt>
      <trkpt lat="52.026040" lon="5.483914">
        <ele>31.707496</ele>
        <time>2026-03-05T23:19:03.031Z</time>
      </trkpt>
      <trkpt lat="52.025466" lon="5.483478">
        <ele>34.864801</ele>
        <time>2026-03-05T23:19:20.060Z</time>
      </trkpt>
      <trkpt lat="52.025114" lon="5.483080">
        <ele>37.001614</ele>
        <time>2026-03-05T23:19:31.166Z</time>
      </trkpt>
      <trkpt lat="52.024404" lon="5.481955">
        <ele>42.510393</ele>
        <time>2026-03-05T23:19:59.094Z</time>
      </trkpt>
      <trkpt lat="52.023539" lon="5.480253">
        <ele>49.828308</ele>
        <time>2026-03-05T23:20:42.536Z</time>
      </trkpt>
      <trkpt lat="52.023356" lon="5.479958">
        <ele>51.089263</ele>
        <time>2026-03-05T23:20:50.442Z</time>
      </trkpt>
      <trkpt lat="52.023126" lon="5.479745">
        <ele>52.384284</ele>
        <time>2026-03-05T23:20:58.143Z</time>
      </trkpt>
      <trkpt lat="52.022273" lon="5.479165">
        <ele>56.643964</ele>
        <time>2026-03-05T23:21:21.087Z</time>
      </trkpt>
      <trkpt lat="52.021948" lon="5.478865">
        <ele>57.381885</ele>
        <time>2026-03-05T23:21:28.696Z</time>
      </trkpt>
      <trkpt lat="52.021698" lon="5.478533">
        <ele>58.019294</ele>
        <time>2026-03-05T23:21:34.769Z</time>
      </trkpt>
      <trkpt lat="52.020450" lon="5.476565">
        <ele>60.542315</ele>
        <time>2026-03-05T23:22:01.940Z</time>
      </trkpt>
      <trkpt lat="52.020179" lon="5.476227">
        <ele>60.789262</ele>
        <time>2026-03-05T23:22:06.738Z</time>
      </trkpt>
      <trkpt lat="52.019479" lon="5.475632">
        <ele>61.298942</ele>
        <time>2026-03-05T23:22:17.207Z</time>
      </trkpt>
      <trkpt lat="52.019245" lon="5.475434">
        <ele>61.221296</ele>
        <time>2026-03-05T23:22:20.548Z</time>
      </trkpt>
      <trkpt lat="52.018216" lon="5.474557">
        <ele>60.879321</ele>
        <time>2026-03-05T23:22:33.519Z</time>
      </trkpt>
      <trkpt lat="52.017537" lon="5.474054">
        <ele>60.105553</ele>
        <time>2026-03-05T23:22:40.866Z</time>
      </trkpt>
      <trkpt lat="52.015770" lon="5.472914">
        <ele>56.558171</ele>
        <time>2026-03-05T23:22:57.816Z</time>
      </trkpt>
      <trkpt lat="52.015616" lon="5.472817">
        <ele>56.126452</ele>
        <time>2026-03-05T23:22:59.196Z</time>
      </trkpt>
      <trkpt lat="52.015210" lon="5.472558">
        <ele>54.986371</ele>
        <time>2026-03-05T23:23:02.795Z</time>
      </trkpt>
      <trkpt lat="52.014386" lon="5.472079">
        <ele>52.718371</ele>
        <time>2026-03-05T23:23:09.901Z</time>
      </trkpt>
      <trkpt lat="52.012985" lon="5.471435">
        <ele>49.045277</ele>
        <time>2026-03-05T23:23:22.099Z</time>
      </trkpt>
      <trkpt lat="52.012954" lon="5.471418">
        <ele>48.962737</ele>
        <time>2026-03-05T23:23:22.387Z</time>
      </trkpt>
      <trkpt lat="52.012909" lon="5.471402">
        <ele>48.846527</ele>
        <time>2026-03-05T23:23:22.791Z</time>
      </trkpt>
      <trkpt lat="52.012877" lon="5.471388">
        <ele>48.762924</ele>
        <time>2026-03-05T23:23:23.088Z</time>
      </trkpt>
      <trkpt lat="52.011229" lon="5.470637">
        <ele>46.161951</ele>
        <time>2026-03-05T23:23:39.236Z</time>
      </trkpt>
      <trkpt lat="52.008289" lon="5.469253">
        <ele>40.045832</ele>
        <time>2026-03-05T23:24:06.490Z</time>
      </trkpt>
      <trkpt lat="52.007944" lon="5.468991">
        <ele>39.154498</ele>
        <time>2026-03-05T23:24:09.604Z</time>
      </trkpt>
      <trkpt lat="52.007684" lon="5.468667">
        <ele>38.324366</ele>
        <time>2026-03-05T23:24:12.255Z</time>
      </trkpt>
      <trkpt lat="52.007269" lon="5.468067">
        <ele>36.511417</ele>
        <time>2026-03-05T23:24:16.684Z</time>
      </trkpt>
      <trkpt lat="52.006711" lon="5.467161">
        <ele>33.936890</ele>
        <time>2026-03-05T23:24:23.050Z</time>
      </trkpt>
      <trkpt lat="52.006435" lon="5.466646">
        <ele>32.576399</ele>
        <time>2026-03-05T23:24:26.464Z</time>
      </trkpt>
      <trkpt lat="52.006349" lon="5.466475">
        <ele>32.176754</ele>
        <time>2026-03-05T23:24:27.567Z</time>
      </trkpt>
      <trkpt lat="52.006267" lon="5.466305">
        <ele>31.785870</ele>
        <time>2026-03-05T23:24:28.650Z</time>
      </trkpt>
      <trkpt lat="52.006119" lon="5.466024">
        <ele>31.116546</ele>
        <time>2026-03-05T23:24:31.321Z</time>
      </trkpt>
      <trkpt lat="52.005826" lon="5.465520">
        <ele>29.861880</ele>
        <time>2026-03-05T23:24:36.351Z</time>
      </trkpt>
      <trkpt lat="52.005544" lon="5.465093">
        <ele>28.728436</ele>
        <time>2026-03-05T23:24:40.956Z</time>
      </trkpt>
      <trkpt lat="52.005347" lon="5.464796">
        <ele>27.938226</ele>
        <time>2026-03-05T23:24:44.140Z</time>
      </trkpt>
      <trkpt lat="52.004134" lon="5.463331">
        <ele>24.151627</ele>
        <time>2026-03-05T23:25:02.472Z</time>
      </trkpt>
      <trkpt lat="52.003864" lon="5.463044">
        <ele>23.363041</ele>
        <time>2026-03-05T23:25:06.442Z</time>
      </trkpt>
      <trkpt lat="52.003324" lon="5.462493">
        <ele>22.994193</ele>
        <time>2026-03-05T23:25:14.422Z</time>
      </trkpt>
      <trkpt lat="52.003311" lon="5.462481">
        <ele>22.994193</ele>
        <time>2026-03-05T23:25:14.607Z</time>
      </trkpt>
      <trkpt lat="52.003081" lon="5.462251">
        <ele>22.994193</ele>
        <time>2026-03-05T23:25:18.178Z</time>
      </trkpt>
      <trkpt lat="52.002963" lon="5.462136">
        <ele>22.994193</ele>
        <time>2026-03-05T23:25:20.056Z</time>
      </trkpt>
      <trkpt lat="52.003089" lon="5.461667">
        <ele>22.994193</ele>
        <time>2026-03-05T23:25:24.494Z</time>
      </trkpt>
      <trkpt lat="52.003096" lon="5.461639">
        <ele>22.994193</ele>
        <time>2026-03-05T23:25:24.762Z</time>
      </trkpt>
      <trkpt lat="52.003568" lon="5.461798">
        <ele>22.994193</ele>
        <time>2026-03-05T23:25:38.510Z</time>
      </trkpt>
      <trkpt lat="52.003710" lon="5.461478">
        <ele>22.994193</ele>
        <time>2026-03-05T23:25:55.407Z</time>
      </trkpt>
    </trkseg>
  </trk>
</gpx>